[[{"header":{"parameterUnit":"m.s-1","parameterCategory":1,"la1":31.0,"la2":29.5877,"lo1":-88.7671,"lo2":-86.6584,"dy":0.0162,"dx":0.0185,"nx":115,"ny":88,"refTime":"2024-05-14T06:00:00:Z","depth":0,"parameterNumber":2,"parameterNumberName":"U-component_of_WINDS"},"data":[0.0,0.0,0.0,0.0,0.0,0.0,0.0,0.0,0.0,0.0,0.0,0.0,0.0,0.0,0.0,0.0,0.0,0.0,0.0,0.0,0.0,0.0,0.0,0.0,0.0,0.0,0.0,0.0,0.0,0.0,0.0,0.0,0.0,0.0,0.0,0.0,0.0,0.0,0.0,0.0,0.0,0.0,0.0,0.0,0.0,0.0,0.0,0.0,0.0,0.0,0.0,0.0,0.0,0.0,0.0,0.0,0.0,0.0,0.0,0.0,0.0,0.0,0.0,0.0,0.0,0.0,0.0,0.0,0.0,0.0,0.0,0.0,0.0,0.0,0.0,0.0,0.0,0.0,0.0,0.0,0.0,0.0,0.0,0.0,0.0,0.0,0.0,0.0,0.0,0.0,0.0,0.0,0.0,0.0,0.0,0.0,0.0,0.0,0.0,0.0,0.0,0.0,0.0,0.0,0.0,0.0,0.0,0.0,0.0,0.0,0.0,0.0,0.0,0.0,0.0,0.0,0.0,0.0,0.0,0.0,0.0,0.0,0.0,0.0,0.0,0.0,0.0,0.0,0.0,0.0,0.0,0.0,0.0,0.0,0.0,0.0,0.0,0.0,0.0,0.0,0.0,0.0,0.0,0.0,0.0,0.0,0.0,0.0,0.0,0.0,0.0,0.0,0.0,0.0,0.0,0.0,0.0,0.0,0.0,0.0,0.0,0.0,0.0,0.0,0.0,0.0,0.0,0.0,0.0,0.0,0.0,0.0,0.0,0.0,0.0,0.0,0.0,0.0,0.0,0.0,0.0,0.0,0.0,0.0,0.0,0.0,0.0,0.0,0.0,0.0,0.0,0.0,0.0,0.0,0.0,0.0,0.0,0.0,0.0,0.0,0.0,0.0,0.0,0.0,0.0,0.0,0.0,0.0,0.0,0.0,0.0,0.0,0.0,0.0,0.0,0.0,0.0,0.0,0.0,0.0,0.0,0.0,0.0,0.0,0.0,0.0,0.0,0.0,0.0,0.0,0.0,0.0,0.0,0.0,0.0,0.0,0.0,0.0,0.0,0.0,0.0,0.0,0.0,0.0,0.0,0.0,0.0,0.0,0.0,0.0,0.0,0.0,0.0,0.0,0.0,0.0,0.0,0.0,0.0,0.0,0.0,0.0,0.0,0.0,0.0,0.0,0.0,0.0,0.0,0.0,0.0,0.0,0.0,0.0,0.0,0.0,0.0,0.0,0.0,0.0,0.0,0.0,0.0,0.0,0.0,0.0,0.0,0.0,0.0,0.0,0.0,0.0,0.0,0.0,0.0,0.0,0.0,0.0,0.0,0.0,0.0,0.0,0.0,0.0,0.0,0.0,0.0,0.0,0.0,0.0,0.0,0.0,0.0,0.0,0.0,0.0,0.0,0.0,0.0,0.0,0.0,0.0,0.0,0.0,0.0,0.0,0.0,0.0,0.0,0.0,0.0,0.0,0.0,0.0,0.0,0.0,0.0,0.0,0.0,0.0,0.0,0.0,0.0,0.0,0.0,0.0,0.0,0.0,0.0,0.0,0.0,0.0,0.0,0.0,0.0,0.0,0.0,0.0,0.0,0.0,0.0,0.0,0.0,0.0,0.0,0.0,0.0,0.0,0.0,0.0,0.0,0.0,0.0,0.0,0.0,0.0,0.0,0.0,0.0,0.0,0.0,0.0,0.0,0.0,0.0,0.0,0.0,0.0,0.0,0.0,0.0,0.0,0.0,0.0,0.0,0.0,0.0,0.0,0.0,0.0,0.0,0.0,0.0,0.0,0.0,0.0,0.0,0.0,0.0,0.0,0.0,0.0,0.0,0.0,0.0,0.0,0.0,0.0,0.0,0.0,0.0,0.0,0.0,0.0,0.0,0.0,0.0,0.0,0.0,0.0,0.0,0.0,0.0,0.0,0.0,0.0,0.0,0.0,0.0,0.0,0.0,0.0,0.0,0.0,0.0,0.0,0.0,0.0,0.0,0.0,0.0,0.0,0.0,0.0,0.0,0.0,0.0,0.0,0.0,0.0,0.0,0.0,0.0,0.0,0.0,0.0,0.0,0.0,0.0,0.0,0.0,0.0,0.0,0.0,0.0,0.0,0.0,0.0,0.0,0.0,0.0,0.0,0.0,0.0,0.0,0.0,0.0,0.0,0.0,0.0,0.0,0.0,0.0,0.0,0.0,0.0,0.0,0.0,0.0,0.0,0.0,0.0,0.0,0.0,0.0,0.0,0.0,0.0,0.0,0.0,0.0,0.0,0.0,0.0,0.0,0.0,0.0,0.0,0.0,0.0,0.0,0.0,0.0,0.0,0.0,0.0,0.0,0.0,0.0,0.0,0.0,0.0,0.0,0.0,0.0,0.0,0.0,0.0,0.0,0.0,0.0,0.0,0.0,0.0,0.0,0.0,0.0,0.0,0.0,0.0,0.0,0.0,0.0,0.0,0.0,0.0,0.0,0.0,0.0,0.0,0.0,0.0,0.0,0.0,0.0,0.0,0.0,0.0,0.0,0.0,0.0,0.0,0.0,0.0,0.0,0.0,0.0,0.0,0.0,0.0,0.0,0.0,0.0,0.0,0.0,0.0,0.0,0.0,0.0,0.0,0.0,0.0,0.0,0.0,0.0,0.0,0.0,0.0,0.0,0.0,0.0,0.0,0.0,0.0,0.0,0.0,0.0,0.0,0.0,0.0,0.0,0.0,0.0,0.0,0.0,0.0,0.0,0.0,0.0,0.0,0.0,0.0,0.0,0.0,0.0,0.0,0.0,0.0,0.0,0.0,0.0,0.0,0.0,0.0,0.0,0.0,0.0,0.0,0.0,0.0,0.0,0.0,0.0,0.0,0.0,0.0,0.0,0.0,0.0,0.0,0.0,0.0,0.0,0.0,0.0,0.0,0.0,0.0,0.0,0.0,0.0,0.0,0.0,0.0,0.0,0.0,0.0,0.0,0.0,0.0,0.0,0.0,0.0,0.0,0.0,0.0,0.0,0.0,0.0,0.0,0.0,0.0,0.0,0.0,0.0,0.0,0.0,0.0,0.0,0.0,0.0,0.0,0.0,0.0,0.0,0.0,0.0,0.0,0.0,0.0,0.0,0.0,0.0,0.0,0.0,0.0,0.0,0.0,0.0,0.0,0.0,0.0,0.0,0.0,0.0,0.0,0.0,0.0,0.0,0.0,0.0,0.0,0.0,0.0,0.0,0.0,0.0,0.0,0.0,0.0,0.0,0.0,0.0,0.0,0.0,0.0,0.0,0.0,0.0,0.0,0.0,0.0,0.0,0.0,0.0,0.0,0.0,0.0,0.0,0.0,0.0,0.0,0.0,0.0,0.0,0.0,0.0,0.0,0.0,0.0,0.0,0.0,0.0,0.0,0.0,0.0,0.0,0.0,0.0,0.0,0.0,0.0,0.0,0.0,0.0,0.0,0.0,0.0,0.0,0.0,0.0,0.0,0.0,0.0,0.0,0.0,0.0,0.0,0.0,0.0,0.0,0.0,0.0,0.0,0.0,0.0,0.0,0.0,0.0,0.0,0.0,0.0,0.0,0.0,0.0,0.0,0.0,0.0,0.0,0.0,0.0,0.0,0.0,0.0,0.0,0.0,0.0,0.0,0.0,0.0,0.0,0.0,0.0,0.0,0.0,0.0,0.0,0.0,0.0,0.0,0.0,0.0,0.0,0.0,0.0,0.0,0.0,0.0,0.0,0.0,0.0,0.0,0.0,0.0,0.0,0.0,0.0,0.0,0.0,0.0,0.0,0.0,0.0,0.0,0.0,0.0,0.0,0.0,0.0,0.0,0.0,0.0,0.0,0.0,0.0,0.0,0.0,0.0,0.0,0.0,0.0,0.0,0.0,0.0,0.0,0.0,0.0,0.0,0.0,0.0,0.0,0.0,0.0,0.0,0.0,0.0,0.0,0.0,0.0,0.0,0.0,0.0,0.0,0.0,0.0,0.0,0.0,0.0,0.0,0.0,0.0,0.0,0.0,0.0,0.0,0.0,0.0,0.0,0.0,0.0,0.0,0.0,0.0,0.0,0.0,0.0,0.0,0.0,0.0,0.0,0.0,0.0,0.0,0.0,0.0,0.0,0.0,0.0,0.0,0.0,0.0,0.0,0.0,0.0,0.0,0.0,0.0,0.0,0.0,0.0,0.0,0.0,0.0,0.0,0.0,0.0,0.0,0.0,0.0,0.0,0.0,0.0,0.0,0.0,0.0,0.0,0.0,0.0,0.0,0.0,0.0,0.0,0.0,0.0,0.0,0.0,0.6842,0.0,0.0,0.0,0.0,0.0,0.0,0.0,0.0,0.0,0.0,0.0,0.0,0.0,0.0,0.0,0.0,0.0,0.0,0.0,0.0,0.0,0.0,0.0,0.0,0.0,0.0,0.0,0.0,0.0,0.0,0.0,0.0,0.0,0.0,0.0,0.0,0.0,0.0,0.0,0.0,0.0,0.0,0.0,0.0,0.0,0.0,0.0,0.0,0.0,0.0,0.0,0.0,0.0,0.0,0.0,0.0,0.0,0.0,0.0,0.0,0.0,0.0,0.0,0.0,0.0,0.0,0.0,0.0,0.0,0.0,0.0,0.0,0.0,0.0,0.0,0.0,0.0,0.0,0.0,0.0,0.0,0.0,0.0,0.0,0.0,0.0,0.0,0.0,0.0,0.0,0.0,0.0,0.0,0.0,0.0,0.0,0.0,0.0,0.0,0.0,0.0,0.0,0.0,0.0,0.0,0.0,0.0,0.0,0.0,0.0,0.7253,0.719,0.7158,0.704,0.6922,0.0,0.0,0.0,0.0,0.0,0.0,0.0,0.0,0.0,0.0,0.0,0.0,0.0,0.0,0.0,0.0,0.0,0.0,0.0,0.0,0.0,0.0,0.0,0.0,0.0,0.0,0.0,0.0,0.0,0.0,0.0,0.0,0.0,0.0,0.0,0.0,0.0,0.0,0.0,0.0,0.0,0.0,0.0,0.0,0.0,0.0,0.0,0.0,0.0,0.0,0.0,0.0,0.0,0.0,0.0,0.0,0.0,0.0,0.0,0.0,0.0,0.0,0.0,0.0,0.0,0.0,0.0,0.0,0.0,0.0,0.0,0.0,0.0,0.0,0.0,0.0,0.0,0.0,0.0,0.0,0.0,0.0,0.0,0.0,0.0,0.0,0.0,0.0,0.0,0.0,0.0,0.0,0.0,0.0,0.0,0.0,0.0,0.0,0.0,0.0,0.0,0.0,0.0,0.0,0.0,0.0,0.0,0.0,0.0,0.0,0.0,0.0,0.7299,0.7165,0.69,0.0,0.0,0.0,0.0,0.0,0.0,0.0,0.0,0.0,0.0,0.0,0.0,0.0,0.0,0.0,0.0,0.0,0.0,0.0,0.0,0.0,0.0,0.0,0.0,0.0,0.0,0.0,0.0,0.0,0.0,0.0,0.0,0.0,0.0,0.0,0.0,0.0,0.0,0.0,0.0,0.0,0.0,0.0,0.0,0.0,0.0,0.0,0.0,0.0,0.0,0.0,0.0,0.0,0.0,0.0,0.0,0.0,0.0,0.0,0.0,0.0,0.0,0.0,0.0,0.0,0.0,0.0,0.0,0.0,0.0,0.0,0.0,0.0,0.0,0.0,0.0,0.0,0.0,0.0,0.0,0.0,0.0,0.0,0.0,0.0,0.0,0.0,0.0,0.0,0.0,0.0,0.0,0.0,0.0,0.0,0.0,0.0,0.0,0.0,0.0,0.0,0.0,0.0,0.0,0.0,0.0,0.0,0.0,0.0,0.0,0.6877,0.7367,0.7487,0.0,0.6589,0.0,0.0,0.0,0.0,0.0,0.0,0.0,0.0,0.0,0.0,0.0,0.0,0.0,0.0,0.0,0.0,0.0,0.0,0.0,0.0,0.0,0.0,0.0,0.0,0.0,0.0,0.0,0.0,0.0,0.0,0.0,0.0,0.0,0.0,0.0,0.0,0.0,0.0,0.0,0.0,0.0,0.0,0.0,0.0,0.0,0.0,0.0,0.0,0.0,0.0,0.0,0.0,0.0,0.0,0.0,0.0,0.0,0.0,0.0,0.0,0.0,0.0,0.0,0.0,0.0,0.0,0.0,0.0,0.0,0.0,0.0,0.0,0.0,0.0,0.0,0.0,0.0,0.0,0.0,0.0,0.0,0.0,0.0,0.0,0.0,0.0,0.0,0.0,0.0,0.0,0.0,0.0,0.0,0.0,0.0,0.0,0.0,0.0,0.0,0.0,0.0,0.0,0.0,0.0,0.0,0.0,0.0,0.0,0.0,0.0,0.7247,0.7348,0.7228,0.6834,0.0,0.0,0.0,0.0,0.0,0.0,0.0,0.0,0.0,0.0,0.0,0.0,0.0,0.0,0.0,0.0,0.0,0.0,0.0,0.0,0.0,0.0,0.0,0.0,0.0,0.0,0.0,0.0,0.0,0.0,0.0,0.0,0.0,0.0,0.0,0.0,0.0,0.0,0.0,0.0,0.0,0.0,0.0,0.0,0.0,0.0,0.0,0.0,0.0,0.0,0.0,0.0,0.0,0.0,0.0,0.0,0.0,0.0,0.0,0.0,0.0,0.0,0.0,0.0,0.0,0.0,0.0,0.0,0.0,0.0,0.0,0.0,0.0,0.0,0.0,0.0,0.0,0.0,0.0,0.0,0.0,0.0,0.0,0.0,0.0,0.0,0.0,0.0,0.0,0.0,0.0,0.0,0.0,0.0,0.0,0.0,0.0,0.0,0.0,0.0,0.0,0.0,0.0,0.0,0.0,0.0,0.0,0.0,0.0,0.0,0.7235,0.7368,0.7212,0.6994,0.6548,0.5838,0.0,0.0,0.0,0.0,0.0,0.0,0.0,0.0,0.0,0.0,0.0,0.0,0.0,0.0,0.0,0.0,0.0,0.0,0.0,0.0,0.0,0.0,0.0,0.0,0.0,0.0,0.0,0.0,0.0,0.0,0.0,0.0,0.0,0.0,0.0,0.0,0.0,0.0,0.0,0.0,0.0,0.0,0.0,0.0,0.0,0.0,0.0,0.0,0.0,0.0,0.0,0.0,0.0,0.0,0.0,0.0,0.0,0.0,0.0,0.0,0.0,0.0,0.0,0.0,0.0,0.0,0.0,0.0,0.0,0.0,0.0,0.0,0.0,0.0,0.0,0.0,0.0,0.0,0.0,0.0,0.0,0.0,0.0,0.0,0.0,0.0,0.0,0.0,0.0,0.0,0.0,0.0,0.0,0.0,0.0,0.0,0.0,0.0,0.0,0.0,0.0,0.0,0.0,0.0,0.0,0.0,0.0,0.0,0.7425,0.7168,0.7041,0.7036,0.693,0.6578,0.0,0.0,0.0,0.0,0.0,0.0,0.0,0.0,0.0,0.0,0.0,0.0,0.0,0.0,0.0,0.0,0.0,0.0,0.0,0.0,0.0,0.0,0.0,0.0,0.0,0.0,0.0,0.0,0.0,0.0,0.0,0.0,0.0,0.0,0.0,0.0,0.0,0.0,0.0,0.0,0.0,0.0,0.0,0.0,0.0,0.0,0.0,0.0,0.0,0.0,0.0,0.0,0.0,0.0,0.0,0.0,0.0,0.0,0.0,0.0,0.0,0.0,0.0,0.0,0.0,0.0,0.0,0.0,0.0,0.0,0.0,0.0,0.0,0.0,0.0,0.0,0.0,0.0,0.0,0.0,0.0,0.0,0.0,0.0,0.0,0.0,0.0,0.0,0.0,0.0,0.0,0.0,0.0,0.0,0.0,0.0,0.0,0.0,0.0,0.0,0.0,0.0,0.0,0.0,0.0,0.0,0.0,0.0,0.0,0.7236,0.7266,0.7251,0.7176,0.6969,0.6453,0.0,0.0,0.0,0.0,0.0,0.0,0.0,0.0,0.0,0.0,0.0,0.0,0.0,0.0,0.0,0.0,0.0,0.0,0.0,0.0,0.0,0.0,0.0,0.0,0.0,0.0,0.0,0.0,0.0,0.0,0.0,0.0,0.0,0.0,0.0,0.0,0.0,0.0,0.0,0.0,0.0,0.0,0.0,0.0,0.0,0.0,0.0,0.0,0.0,0.0,0.0,0.0,0.0,0.0,0.0,0.0,0.0,0.0,0.0,0.0,0.0,0.0,0.0,0.0,0.0,0.0,0.0,0.0,0.0,0.0,0.0,0.0,0.0,0.0,0.0,0.0,0.0,0.0,0.0,0.0,0.0,0.0,0.0,0.0,0.0,0.0,0.0,0.0,0.0,0.0,0.0,0.0,0.0,0.0,0.0,0.0,0.0,0.0,0.0,0.0,0.0,0.0,0.0,0.0,0.0,0.0,0.0,0.0,0.0,0.738,0.0,0.7622,0.7432,0.6978,0.6366,0.0,0.0,0.0,0.0,0.0,0.0,0.0,0.0,0.0,0.0,0.0,0.0,0.0,0.0,0.0,0.0,0.0,0.0,0.0,0.0,0.0,0.0,0.0,0.0,0.0,0.0,0.0,0.0,0.0,0.0,0.0,0.0,0.0,0.0,0.0,0.0,0.0,0.0,0.0,0.0,0.0,0.0,0.0,0.0,0.0,0.0,0.0,0.0,0.0,0.0,0.0,0.0,0.0,0.0,0.0,0.0,0.0,0.0,0.0,0.0,0.0,0.0,0.0,0.0,0.0,0.0,0.0,0.0,0.0,0.0,0.0,0.0,0.0,0.0,0.0,0.0,0.0,0.0,0.0,0.0,0.0,0.0,0.0,0.0,0.0,0.0,0.0,0.0,0.0,0.0,0.0,0.0,0.0,0.0,0.0,0.0,0.0,0.0,0.0,0.0,0.0,0.0,0.0,0.0,0.0,0.0,0.0,0.0,0.743,0.7989,0.8201,0.814,0.7719,0.7016,0.6326,0.0,0.0,0.0,0.0,0.0,0.0,0.0,0.0,0.0,0.0,0.0,0.0,0.0,0.0,0.0,0.0,0.0,0.0,0.0,0.0,0.0,0.0,0.0,0.0,0.0,0.0,0.0,0.0,0.0,0.0,0.0,0.0,0.0,0.0,0.0,0.0,0.0,0.0,0.0,0.0,0.0,0.0,0.0,0.0,0.0,0.0,0.0,0.0,0.0,0.0,0.0,0.0,0.0,0.0,0.0,0.0,0.0,0.0,0.0,0.0,0.0,0.0,0.0,0.0,0.0,0.0,0.0,0.0,0.0,0.0,0.0,0.0,0.0,0.0,0.0,0.0,0.0,0.0,0.0,0.0,0.0,0.0,0.0,0.0,0.0,0.0,0.0,0.0,0.0,0.0,0.0,0.0,0.0,0.0,0.0,0.0,0.0,0.0,0.0,0.0,0.0,0.0,0.0,0.0,0.0,0.0,0.0,0.0,0.0,0.8976,0.9085,0.8842,0.8274,0.7776,0.693,0.0,0.0,0.0,0.0,0.0,0.0,0.0,0.0,0.0,0.0,0.0,0.0,0.0,0.0,0.0,0.0,0.0,0.0,0.0,0.0,0.0,0.0,0.0,0.0,0.0,0.0,0.0,0.0,0.0,0.0,0.0,0.0,0.0,0.0,0.0,0.0,0.0,0.0,0.0,0.0,0.0,0.0,0.0,0.0,0.0,0.0,0.0,0.0,0.0,0.0,0.0,0.0,0.0,0.0,0.0,0.0,0.0,0.0,0.0,0.0,0.0,0.0,0.0,0.0,0.0,0.0,0.0,0.0,0.0,0.0,0.0,0.0,0.0,0.0,0.0,0.0,0.0,0.0,0.0,0.0,0.0,0.0,0.0,0.0,0.0,0.0,0.0,0.0,0.0,0.0,0.0,0.0,0.0,0.0,0.0,0.0,0.0,0.0,0.0,0.0,0.0,0.0,0.0,0.0,0.0,0.0,0.0,0.0,0.0,1.0472,1.0379,0.9994,0.9361,0.8587,0.7553,0.6064,0.0,0.0,0.0,0.0,0.0,0.0,0.0,0.0,0.0,0.0,0.0,0.0,0.0,0.0,0.0,0.0,0.0,0.0,0.0,0.0,0.0,0.0,0.0,0.0,0.0,0.0,0.0,0.0,0.0,0.0,0.0,0.0,0.0,0.0,0.0,0.0,0.0,0.0,0.0,0.0,0.0,0.0,0.0,0.0,0.0,0.0,0.0,0.0,0.0,0.0,0.0,0.0,0.0,0.0,0.0,0.0,0.0,0.0,0.0,0.0,0.0,0.0,0.0,0.0,0.0,0.0,0.0,0.0,0.0,0.0,0.0,0.0,0.0,0.0,0.0,0.0,0.0,0.0,0.0,0.0,0.0,0.0,0.0,0.0,0.0,0.0,0.0,0.0,0.0,0.0,0.0,0.0,0.0,0.0,0.0,0.0,0.0,0.0,0.0,0.0,0.0,0.0,0.0,0.0,0.0,0.0,0.0,0.0,1.245,1.1981,1.1469,1.0809,0.9497,0.8124,0.0,0.0,0.0,0.0,0.0,0.0,0.0,0.0,0.0,0.0,0.0,0.0,0.0,0.0,0.0,0.0,0.0,0.0,0.0,0.0,0.0,0.0,0.0,0.0,0.0,0.0,0.0,0.0,0.0,0.0,0.0,0.0,0.0,0.0,0.0,0.0,0.0,0.0,0.0,0.0,0.0,0.0,0.0,0.0,0.0,0.0,0.0,0.0,0.0,0.0,0.0,0.0,0.0,0.0,0.0,0.0,0.0,0.0,0.0,0.0,0.0,0.0,0.0,0.0,0.0,0.0,0.0,0.0,0.0,0.0,0.0,0.0,0.0,0.0,0.0,0.0,0.0,0.0,0.0,0.0,0.0,0.0,0.0,0.0,0.0,0.0,0.0,0.0,0.0,0.0,0.0,0.0,0.0,0.0,0.0,0.0,0.0,0.0,0.0,0.0,0.0,0.0,0.0,0.0,0.0,0.0,0.0,0.0,0.0,1.313,1.3479,1.3105,1.1963,1.0801,0.9227,0.0,0.0,0.0,0.0,0.0,0.0,0.0,0.0,0.0,0.0,0.0,0.0,0.0,0.0,0.0,0.0,0.0,0.0,0.0,0.0,0.0,0.0,0.0,0.0,0.0,0.0,0.0,0.0,0.0,0.0,0.0,0.0,0.0,0.0,0.0,0.0,0.0,0.0,0.0,0.0,0.0,0.0,0.0,0.0,0.0,0.0,0.0,0.0,0.0,0.0,0.0,0.0,0.0,0.0,0.0,0.0,0.0,0.0,0.0,0.0,0.0,0.0,0.0,0.0,0.0,0.0,0.0,0.0,0.0,0.0,0.0,0.0,0.0,0.0,0.0,0.0,0.0,0.0,0.0,0.0,0.0,0.0,0.0,0.0,0.0,0.0,0.0,0.0,0.0,0.0,0.0,0.0,0.0,0.0,0.0,0.0,0.0,0.0,0.0,0.0,0.0,0.0,0.0,0.0,0.0,0.0,0.0,0.0,1.1847,1.3446,1.4136,1.4116,1.3201,1.1675,0.9837,0.0,0.0,0.0,0.0,0.0,0.0,0.0,0.0,0.0,0.0,0.0,0.0,0.0,0.0,0.0,0.0,0.0,0.0,0.0,0.0,0.0,0.0,0.0,0.0,0.0,0.0,0.0,0.0,0.0,0.0,0.0,0.0,0.0,0.0,0.0,0.0,0.0,0.0,0.0,0.0,0.0,0.0,0.0,0.0,0.0,0.0,0.0,0.0,0.0,0.0,0.0,0.0,0.0,0.0,0.0,0.0,0.0,0.0,0.0,0.0,0.0,0.0,0.0,0.0,0.0,0.0,0.0,0.0,0.0,0.0,0.0,0.0,0.0,0.0,0.0,0.0,0.0,0.0,0.0,0.0,0.0,0.0,0.0,0.0,0.0,0.0,0.0,0.0,0.0,0.0,0.0,0.0,0.0,0.0,0.0,0.0,0.0,0.0,0.0,0.0,0.0,0.0,0.0,0.0,0.0,0.0,0.0,0.0,1.1806,1.3237,1.4173,1.4489,1.3967,1.2202,1.0095,0.0,0.0,0.0,0.0,0.0,0.0,0.0,0.0,0.0,0.0,0.0,0.0,0.0,0.0,0.0,0.0,0.0,0.0,0.0,0.0,0.0,0.0,0.0,0.0,0.0,0.0,0.0,0.0,0.0,0.0,0.0,0.0,0.0,0.0,0.0,0.0,0.0,0.0,0.0,0.0,0.0,0.0,0.0,0.0,0.0,0.0,0.0,0.0,0.0,0.0,0.0,0.0,0.0,0.0,0.0,0.0,0.0,0.0,0.0,0.0,0.0,0.0,0.0,0.0,0.0,0.0,0.0,0.0,0.0,0.0,0.0,0.0,0.0,0.0,0.0,0.0,0.0,0.0,0.0,0.0,0.0,0.0,0.0,0.0,0.0,0.0,0.0,0.0,0.0,0.0,0.0,0.0,0.0,0.0,0.0,0.0,0.0,0.0,0.0,0.0,0.0,0.0,0.0,0.0,0.0,0.0,0.0,0.0,1.1172,1.2497,1.3035,1.3074,1.2698,1.2098,1.0571,0.0,0.0,0.0,0.0,0.0,0.0,0.0,0.0,0.0,0.0,0.0,0.0,0.0,0.0,0.0,0.0,0.0,0.0,0.0,0.0,0.0,0.0,0.0,0.0,0.0,0.0,0.0,0.0,0.0,0.0,0.0,0.0,0.0,0.0,0.0,0.0,0.0,0.0,0.0,0.0,0.0,0.0,0.0,0.0,0.0,0.0,0.0,0.0,0.0798,0.0,0.0,0.0,0.0,0.0,0.0,0.0,0.0,0.0,0.0,0.0,0.0,0.0,0.0,0.0,0.0,0.0,0.0,0.0,0.0,0.0,0.0,0.0,0.0,0.0,0.0,0.0,0.0,0.0,0.0,0.0,0.0,0.0,0.0,0.0,0.0,0.0,0.0,0.0,0.0,0.0,0.0,0.0,0.0,0.0,0.0,0.0,0.0,0.0,0.0,0.0,0.0,0.0,0.0,0.0,0.0,0.0,0.0,0.0,1.0466,1.1534,1.1842,1.1921,1.1703,1.0977,0.9691,0.0,0.0,0.0,0.0,0.0,0.0,0.0,0.0,0.0,0.0,0.0,0.0,0.0,0.0,0.0,0.0,0.0,0.0,0.0,0.0,0.0,0.0,0.0,0.0,0.0,0.0,0.0,0.0,0.0,0.0,0.0,0.0,0.0,0.0,0.0,0.0,0.0,0.0,0.0,0.0,0.0,0.0,0.0,0.0,0.0,0.0,0.0,0.0,0.0,0.0,0.0,0.0,0.0,0.0,0.0,0.0,0.0,0.0,0.0,0.0,0.0,0.0,0.0,0.0,0.0,0.0,0.0,0.0,0.0,0.0,0.0,0.0,0.0,0.0,0.0,0.0,0.0,0.0,0.0,0.0,0.0,0.0,0.0,0.0,0.0,0.0,0.0,0.0,0.0,0.0,0.0,0.0,0.0,0.0,0.0,0.0,0.0,0.0,0.0,0.0,0.0,0.0,0.0,0.0,0.0,0.0,0.0,0.8785,0.9644,1.0412,1.0704,1.0773,1.0606,0.9559,0.8264,0.6776,0.0,0.0,0.0,0.0,0.0,0.0,0.0,0.0,0.0,0.0,0.0,0.0,0.0,0.0,0.0,0.0,0.0,0.0,0.0,0.0,0.0,0.0,0.0,0.0,0.0,0.0,0.0,0.0,0.0,0.0,0.0,0.0,0.0,0.0,0.0,0.0,0.0,0.0,-0.1701,-0.0553,0.0,0.0,0.0,0.0,0.0,0.0,0.0,0.0,0.0724,0.0,0.0,0.0,0.0,0.0,0.0,0.0,0.0,0.0,0.0,0.0,0.0,0.0,0.0,0.0,0.0,0.0,0.0,0.0,0.0,0.0,0.0,0.0,0.0,0.0,0.0,0.0,0.0,0.0,0.0,0.0,0.0,0.0,0.0,0.0,0.0,0.0,0.0,0.0,0.0,0.0,0.0,0.0,0.0,0.0,0.0,0.0,0.0,0.0,0.0,0.0,0.0,0.0,0.0,0.0,0.0,0.7186,0.8,0.875,0.9326,0.9764,0.9589,0.8889,0.8174,0.6901,0.5171,0.0,0.0,0.0,0.0,0.0,0.0,0.0,0.0,0.0,0.0,0.0,0.0,0.0,0.0,0.0,0.0,0.0,0.0,0.0,0.0,0.0,0.0,0.0,0.0,0.0,0.0,0.0,0.0,0.0,0.0,0.0,0.0,0.0,0.0,0.0,0.0,0.0,0.0,0.0,-0.0165,0.0732,0.0,0.0,0.0,0.0,0.0,0.0,0.0,0.0,-0.0,0.0,0.0,0.0,0.0,0.0,0.0,0.0,0.0,0.0,0.0,0.0,0.0,0.0,0.0,0.0,0.0,0.0,0.0,0.0,0.0,0.0,0.0,0.0,0.0,0.0,0.0,0.0,0.0,0.0,0.0,0.0,0.0,0.0,0.0,0.0,0.0,0.0,0.0,0.0,0.0,0.0,0.0,0.0,0.0,0.0,0.0,0.0,0.0,0.0,0.0,0.0,0.0,0.0,0.0,0.0,0.6185,0.6915,0.7402,0.7685,0.7927,0.7728,0.7246,0.6382,0.5336,0.0,0.0,0.0,0.0,0.0,0.0,0.0,0.0,0.0,0.0,0.0,0.0,0.0,0.0,0.0,0.0,0.0,0.0,0.0,0.0,0.0,0.0,0.0,0.0,0.0,0.0,0.0,0.0,0.0,0.0,0.0,0.0,0.0,0.0,0.0,0.0,0.0,0.0,0.0,0.0,-0.0351,0.0672,0.145,0.0,0.0,0.0,0.0,0.0,0.0,0.05,-0.0126,0.0,0.0,0.0,0.0,0.0,0.0,0.0,0.0,0.0,0.0,0.0,0.0,0.0,0.0,0.0,0.0,0.0,0.0,0.0,0.0,0.0,0.0,0.0,0.0,0.0,0.0,0.0,0.0,0.0,0.0,0.0,0.0,0.0,0.0,0.0,0.0,0.0,0.0,0.0,0.0,0.0,0.0,0.0,0.0,0.0,0.0,0.0,0.0,0.0,0.0,0.0,0.0,0.0,0.0,0.0,0.5367,0.5825,0.6149,0.6229,0.6172,0.6064,0.5698,0.4968,0.4046,0.0,0.0,0.0,0.0,0.0,0.0,0.0,0.0,0.0,0.0,0.0,0.0,0.0,0.0,0.0,0.0,0.0,0.0,0.0,0.0,0.0,0.0,0.0,0.0,0.0,0.0,0.0,0.0,0.0,0.0,0.0,0.0,0.0,0.0,0.0,0.0,0.0,0.0,0.0,0.0,0.0,0.0522,0.1854,0.1656,0.0,0.0,0.0,0.0,0.1048,0.0461,0.0,0.0,0.0,0.0,0.0,0.0,0.0,0.0,0.0,0.0,0.0,0.0,0.0,0.0,0.0,0.0,0.0,0.0,0.0,0.0,0.0,0.0,0.0,0.0,0.0,0.0,0.0,0.0,0.0,0.0,0.0,0.0,0.0,0.0,0.0,0.0,0.0,0.0,0.0,0.0,0.0,0.0,0.0,0.0,0.0,0.0,0.0,0.0,0.0,0.0,0.0,0.0,0.0,0.0,0.0,0.0,0.4985,0.5087,0.529,0.5476,0.5566,0.5231,0.4369,0.4596,0.3795,0.0,0.0,0.0,0.0,0.0,0.0,0.0,0.0,0.0,0.0,0.0,0.0,0.0,0.0,0.0,0.0,0.0,0.0,0.0,0.0,0.0,0.0,0.0,0.0,0.0,0.0,0.0,0.0,0.0,0.0,0.0,0.0,0.0,0.0,0.0,0.0,0.0,0.0,0.0,0.0,0.0,0.0477,0.2217,0.1798,0.1426,0.0,0.0,0.1351,0.1045,0.0425,0.0,0.0,0.0,0.0,0.0,0.0,0.0,0.0,0.0,0.0,0.0,0.0,0.0,0.0,0.0,0.0,0.0,0.0,0.0,0.0,0.0,0.0,0.0,0.0,0.0,0.0,0.0,0.0,0.0,0.0,0.0,0.0,0.0,0.0,0.0,0.0,0.0,0.0,0.0,0.0,0.0,0.0,0.0,0.0,0.0,0.0,0.0,0.0,0.0,0.0,0.0,0.0,0.0,0.0,0.0,0.3369,0.4058,0.4051,0.418,0.4475,0.4265,0.3907,0.3494,0.2974,0.2147,0.0,0.0,0.0,0.0,0.0,0.0,0.0,0.0,0.0,0.0,0.0,0.0,0.0,0.0,0.0,0.0,0.0,0.0,0.0,0.0,0.0,0.0,0.0,0.0,0.0,0.0,0.0,0.0,0.0,0.0,0.0,0.0,0.0,0.0,0.0,0.0,0.0,0.0,0.0,0.0,0.0,0.0,0.1928,0.1714,0.0,0.0,0.0,0.1095,0.0439,0.0,0.0,0.0,0.0,0.0,0.0,0.0,0.0,0.0,0.0,0.0,0.0,0.0,0.0,0.0,0.0,0.0,0.0,0.0,0.0,0.0,0.0,0.0,0.0,0.0,0.0,0.0,0.0,0.0,0.0,0.0,0.0,0.0,0.0,0.0,0.0,0.0,0.0,0.0,0.0,0.0,0.0,0.0,0.0,0.0,0.0,0.0,0.0,0.0,0.0,0.0,0.0,0.0,0.0,0.0,0.0,0.0,0.3195,0.317,0.3247,0.3567,0.3153,0.2759,0.2536,0.1521,0.0,0.0,0.0,0.0,0.0,0.0,0.0,0.0,0.0,0.0,0.0,0.0,0.0,0.0,0.0,0.0,0.0,0.0,0.0,0.0,0.0,0.0,0.0,0.0,0.0,0.0,0.0,-0.4056,0.0,0.0,0.0,0.0,0.0,0.0,0.0,0.0,0.0,0.0,0.0,0.0,0.0,0.0,0.0074,0.1688,0.1697,0.1624,0.0,0.0,0.0684,-0.0077,-0.054,-0.137,0.0,0.0,0.0,0.0,0.0,0.0,0.0,0.0,0.0,0.0,0.0,0.0,0.0,0.0,0.0,0.0,0.0,0.0,0.0,0.0,0.0,0.0,0.0,0.0,0.0,0.0,0.0,0.0,0.0,0.0,0.0,0.0,0.0,0.0,0.0,0.0,0.0,0.0,0.0,0.0,0.0,0.0,0.0,0.0,0.0,0.0,0.0,0.0,0.0,0.0,0.0,0.0,0.0,0.0,0.1948,0.2696,0.2661,0.2777,0.3004,0.2594,0.2053,0.1428,0.0879,0.0233,0.0,0.0,0.0,0.0,0.0,0.0,0.0,0.0,0.0,0.0,0.0,0.0,0.0,0.0,0.0,0.0,0.0,0.0,0.0,0.0,0.0,0.0,0.0,0.0,0.0,0.0,0.0,0.0,0.0,0.0,0.0,0.0,0.0,0.0,0.0,0.0,0.0,0.0,0.0,0.0,0.0,-0.0224,0.1843,0.1862,0.1714,0.0,0.0,0.0332,-0.0406,-0.1296,-0.2058,-0.2801,0.0,0.0,0.0,0.0,0.0,0.0,0.0,0.0,0.0,0.0,0.0,0.0,0.0,0.0,0.0,0.0,0.0,0.0,0.0,0.0,0.0,0.0,0.0,0.0,0.0,0.0,0.0,0.0,0.0,0.0,0.0,0.0,0.0,0.0,0.0,0.0,0.0,0.0,0.0,0.0,0.0,0.0,0.0,0.0,0.0,0.0,0.0,0.0,0.0,0.0,0.0,0.0,0.0,0.1492,0.2213,0.2371,0.252,0.2453,0.1437,0.0537,-0.0194,-0.0439,-0.0822,0.0,0.0,0.0,0.0,0.0,0.0,0.0,0.0,0.0,0.0,0.0,0.0,0.0,0.0,0.0,0.0,0.0,0.0,0.0,0.0,0.0,0.0,0.0,0.0,0.0,0.0,0.0,0.0,-0.2737,-0.2738,-0.3153,0.0,0.0,0.0,0.0,0.0,0.0,0.0,0.0,0.0,0.0,-0.0152,0.1857,0.1894,0.0,0.0,0.1514,0.0672,-0.0333,-0.1233,-0.2087,-0.2689,-0.3609,0.0,0.0,0.0,0.0,0.0,0.0,0.0,0.0,0.0,0.0,0.0,0.0,0.0,0.0,0.0,0.0,0.0,0.0,0.0,0.0,0.0,0.0,0.0,0.0,0.0,0.0,0.0,0.0,0.0,0.0,0.0,0.0,0.0,0.0,0.0,0.0,0.0,0.0,0.0,0.0,0.0,0.0,0.0,0.0,0.0,0.0,0.0,0.0,0.0,0.0,0.0,0.0,0.0952,0.154,0.173,0.178,0.1679,0.0673,-0.0266,-0.1035,-0.1318,-0.1603,0.0,0.0,0.0,0.0,0.0,0.0,0.0,0.0,0.0,0.0,0.0,0.0,0.0,0.0,0.0,0.0,0.0,0.0,0.0,0.0,0.0,0.0,0.0,0.0,0.0,0.0,0.0,0.0,-0.2647,-0.2702,-0.3225,0.0,0.0,0.0,0.0,0.0,0.0,0.0,0.0,0.0,0.0,-0.0312,0.1471,0.1759,0.1957,0.2399,0.2061,0.1286,-0.0085,-0.1335,-0.2198,-0.2525,0.0,0.0,0.0,0.0,0.0,0.0,0.0,0.0,0.0,0.0,0.0,0.0,0.0,0.0,0.0,0.0,0.0,0.0,0.0,0.0,0.0,0.0,0.0,0.0,0.0,0.0,0.0,0.0,0.0,0.0,-0.2205,0.0,0.0,0.0,0.0,0.0,0.0,0.0,0.0,0.0,0.0,0.0,0.0,0.0,0.0,0.0,0.0,0.0,0.0,0.0,0.0,0.0,0.0,0.0336,0.0739,0.068,0.0572,0.0537,0.0472,-0.0067,-0.11,-0.1633,-0.2039,-0.2296,0.0,0.0,0.0,0.0,0.0,0.0,0.0,0.0,0.0,0.0,0.0,0.0,0.0,0.0,0.0,0.0,0.0,0.0,0.0,0.0,0.0,0.0,0.0,0.0,0.0,0.0,-0.2885,-0.2501,-0.2533,0.0,0.0,0.0,0.0,0.0,0.0,0.0,0.0,0.0,0.0,-0.187,-0.0957,0.0585,0.1542,0.2186,0.2769,0.2777,0.2135,0.0262,-0.1451,-0.2567,0.0,0.0,0.0,0.0,0.0,0.0,0.0,0.0,0.0,0.0,0.0,0.0,0.0,0.0,0.0,0.0,0.0,0.0,0.0,0.0,0.0,0.0,0.0,0.0,0.0,0.0,0.0,-0.0655,-0.0908,0.0,0.0,0.0,0.0,0.0,0.0,0.0,0.0,0.0,0.0,0.0,-0.1335,-0.1408,0.0,0.0,0.0,0.0,0.0,0.0,0.0,0.0,0.0,0.0,0.0,0.0,-0.0293,0.0246,-0.0252,-0.0324,0.0134,-0.0404,-0.0938,-0.1326,-0.1743,-0.2265,-0.2697,0.0,0.0,0.0,0.0,0.0,0.0,0.0,0.0,0.0,0.0,0.0,0.0,0.0,0.0,0.0,0.0,0.0,0.0,0.0,0.0,0.0,0.0,0.0,0.0,0.0,-0.3664,0.0,0.0,0.0,0.0,0.0,0.0,0.0,0.0,0.0,0.0,0.0,-0.3303,-0.2928,-0.2326,-0.1624,-0.0754,-0.0087,0.0355,0.0,0.0,0.0,0.0,0.0,0.0,0.0,0.0,0.0,0.0,0.0,0.0,0.0,0.0,-0.9787,-0.9489,-0.9522,-0.9717,-0.9873,0.0,0.0,0.0,0.0,0.0,0.0,0.0,0.0,0.0,0.0,0.0,0.0,0.0,0.0,-0.0369,0.0,-0.1174,0.0,0.0,0.0,0.0,0.0,0.0,0.0,0.0,-0.143,-0.1325,-0.1275,-0.1352,-0.1535,0.0,-0.1771,-0.1813,0.0,0.0,0.0,0.0,0.0,0.0,0.0,0.0,-0.0669,-0.0251,-0.0768,-0.0852,-0.0404,-0.101,-0.1277,-0.1276,-0.1814,-0.2334,-0.2913,-0.3252,-0.3691,0.0,0.0,0.0,0.0,0.0,0.0,0.0,0.0,0.0,0.0,0.0,0.0,0.0,0.0,0.0,0.0,0.0,0.0,0.0,0.0,0.0,0.0,0.0,-0.3808,0.0,0.0,0.0,0.0,0.0,0.0,0.0,0.0,0.0,-0.4236,-0.382,-0.3481,-0.3201,-0.2896,-0.2509,-0.2037,0.0,0.0,0.0,0.0,0.0,0.0,0.0,-0.3749,-0.3856,-0.4224,-0.4889,-0.625,-0.7731,-0.8914,-0.9276,0.0,0.0,-0.9342,-0.9537,-0.9737,-0.9882,-1.0218,-1.0699,-1.125,-1.1461,-1.1824,0.0,0.0,0.0,0.0,0.0,0.0,0.0,0.0,-0.0056,-0.0286,0.0,-0.0942,0.0,0.0,0.0,0.0,0.0,-0.1974,0.0,0.0,-0.1361,-0.125,-0.1146,-0.1315,-0.1366,-0.1302,-0.1532,-0.1509,-0.1429,-0.1988,0.0,0.0,0.0,0.0,0.0,0.0,-0.0941,-0.0709,-0.097,-0.1115,-0.1078,-0.1144,-0.1143,-0.1208,-0.178,-0.237,-0.2999,-0.3369,-0.3782,-0.4207,-0.4365,0.0,0.0,0.0,0.0,0.0,0.0,0.0,0.0,0.0,0.0,0.0,0.0,0.0,0.0,0.0,0.0,0.0,0.0,0.0,0.0,-0.4313,0.0,0.0,0.0,0.0,0.0,0.0,0.0,0.0,0.0,0.0,-0.4422,-0.4059,-0.3688,-0.3224,0.0,0.0,0.0,0.0,-0.3678,-0.3681,-0.368,-0.3681,-0.3866,-0.4335,-0.4658,-0.4736,0.0,0.0,-0.7232,-0.824,-0.8832,-0.9116,-0.9218,-0.9288,-0.9725,-0.997,-1.0139,-1.0236,-1.074,-1.1347,-1.1657,-1.2111,-1.2545,0.2802,0.0,0.0,0.0,0.0,-0.0721,-0.0902,-0.0661,-0.024,-0.0363,-0.0914,-0.1097,0.0,0.0,0.0,0.0,0.0,0.0,-0.1515,-0.1332,-0.1247,-0.1204,-0.1141,-0.1221,-0.1287,-0.1341,-0.1421,-0.1486,-0.1604,-0.1938,-0.1977,-0.1684,0.0,0.0,0.0,0.0,-0.1407,-0.1228,-0.1449,-0.1536,-0.1346,-0.1548,-0.1883,-0.2216,-0.2288,-0.264,-0.3283,-0.3372,-0.368,-0.416,-0.4314,0.0,0.0,0.0,0.0,0.0,0.0,0.0,0.0,0.0,0.0,0.0,0.0,0.0,0.0,0.0,0.0,0.0,0.0,0.0,-0.4877,-0.4604,-0.448,0.0,0.0,0.0,0.0,0.0,0.0,0.0,0.0,0.0,-0.5774,-0.5146,-0.4755,0.0,0.0,-0.4944,-0.4683,-0.477,-0.4862,-0.4751,-0.494,0.0,-0.5498,-0.5852,-0.6118,-0.634,-0.6765,-0.7399,-0.7949,-0.8769,-0.932,-0.9401,-0.9682,-0.9989,-0.994,-0.9943,-1.0054,-1.0414,-1.0939,-1.1515,-1.2047,-1.2641,-1.3144,0.1955,0.1583,0.129,0.0511,-0.0511,-0.1022,-0.1151,-0.115,-0.0821,-0.0822,-0.1086,-0.1264,-0.1329,-0.1279,-0.1533,0.0,0.0,0.0,-0.1798,-0.1837,-0.175,-0.171,-0.1726,-0.1727,-0.1718,-0.1849,-0.1848,-0.1841,-0.1967,-0.2113,-0.2118,-0.2117,0.0,0.0,-0.1574,-0.1747,-0.1837,-0.1643,-0.1802,-0.1816,-0.1614,-0.1816,-0.2084,-0.2552,-0.2572,-0.2822,-0.3321,-0.3525,-0.3815,-0.4183,-0.432,-0.4563,0.0,0.0,0.0,0.0,0.0,0.0,0.0,0.0,0.0,0.0,0.0,-0.6272,-0.6161,0.0,0.0,0.0,-0.5951,-0.5506,-0.4925,-0.4879,0.0,0.0,0.0,0.0,0.0,0.0,0.0,-0.6849,-0.6829,-0.6869,-0.6805,-0.6431,-0.6009,-0.584,-0.5886,-0.588,-0.5703,0.0,-0.5768,-0.5796,-0.5901,-0.6216,-0.6714,-0.6923,-0.7221,-0.776,-0.8283,-0.8777,-0.8983,-0.9446,-0.9838,-0.9966,-1.0216,-1.0454,-1.043,-1.0504,-1.0564,-1.0929,-1.1599,-1.2288,-1.2725,-1.3257,-1.3802,0.0674,-0.0146,0.007,-0.0475,-0.1354,-0.1421,-0.1421,-0.1553,-0.1646,-0.1518,-0.1282,-0.1452,-0.1456,-0.1421,-0.1625,0.0,-0.2599,-0.2397,-0.2461,-0.2648,-0.2576,-0.2533,-0.251,-0.251,-0.2481,-0.2504,-0.2504,-0.2473,-0.2419,-0.2418,-0.2561,-0.2701,-0.2499,-0.2129,-0.1694,-0.2066,-0.2158,-0.1951,-0.2153,-0.2153,-0.2018,-0.1951,-0.2153,-0.249,-0.2745,-0.3025,-0.3409,-0.3753,-0.4003,-0.4195,-0.4367,-0.4584,-0.4865,0.0,0.0,0.0,0.0,0.0,0.0,0.0,0.0,0.0,0.0,0.0,0.0,0.0,0.0,0.0,-0.5918,0.0,-0.5146,-0.5147,0.0,0.0,0.0,-0.6293,-0.6674,-0.6917,-0.7204,-0.7242,0.0,0.0,-0.7628,-0.7695,-0.7446,-0.6672,-0.6527,-0.652,-0.6517,-0.6605,-0.6659,-0.691,-0.6929,-0.7168,-0.7904,-0.8113,-0.8354,-0.9064,-0.9714,-1.0002,-1.0109,-1.034,-1.0439,-1.0413,-1.0721,-1.0923,-1.1203,-1.1487,-1.1766,-1.1739,-1.2663,-1.3464,-1.3588,-1.4031,-1.4476,-0.031,-0.0771,-0.1296,-0.1782,-0.222,-0.222,-0.2362,-0.25,-0.2271,-0.2131,-0.2142,-0.2131,-0.2275,-0.2359,-0.2286,-0.2366,-0.2673,-0.2504,-0.2468,-0.2574,-0.2544,-0.2496,-0.251,-0.251,-0.2503,-0.2491,-0.2489,-0.2481,-0.2467,-0.2772,-0.2898,-0.2926,-0.328,-0.3112,-0.2409,-0.2558,-0.254,-0.2288,-0.2487,-0.2621,-0.2757,-0.2621,-0.2822,-0.3424,-0.3459,-0.3663,-0.411,-0.4125,-0.4226,-0.4505,-0.4571,-0.474,-0.492,-0.5089,0.0,0.0,0.0,0.0,0.0,0.0,0.0,0.0,0.0,-0.5928,-0.6081,0.0,-0.6095,0.0,-0.6145,-0.6006,-0.6057,-0.6012,0.0,0.0,-0.6373,-0.6678,-0.6915,-0.7202,-0.7447,-0.7671,-0.8012,-0.8305,-0.8353,-0.866,-0.8922,-0.8835,-0.8169,-0.7753,-0.7757,-0.7933,-0.8302,-0.875,-0.8918,-0.932,-0.99,-1.0263,-1.0369,-1.0626,-1.0769,-1.09,-1.0904,-1.1033,-1.1188,-1.1049,-1.134,-1.1667,-1.181,-1.2304,-1.2824,-1.3009,-1.3303,-1.374,-1.4233,-1.4832,-1.5182,-0.1256,-0.1649,-0.2199,-0.2707,-0.3242,-0.3016,-0.3088,-0.3458,-0.327,-0.3254,-0.3252,-0.2997,-0.2982,-0.2983,-0.2837,-0.3001,-0.3405,-0.3304,-0.3417,-0.3609,-0.3657,-0.3622,-0.3659,-0.3659,-0.376,-0.3798,-0.38,-0.3778,-0.374,-0.3895,-0.4008,-0.3917,-0.422,-0.4141,-0.3625,-0.3399,-0.3195,-0.3012,-0.3044,-0.3157,-0.3424,-0.3291,-0.3487,-0.4023,-0.4096,-0.4232,-0.4498,-0.4614,-0.4741,-0.481,-0.4928,-0.5016,-0.5137,-0.5355,-0.5576,0.0,0.0,0.0,0.0,0.0,0.0,0.0,0.0,0.0,0.0,0.0,-0.6081,-0.637,-0.6422,-0.647,-0.6392,-0.6423,-0.6483,-0.6676,-0.6783,-0.7028,-0.7423,-0.7622,-0.794,-0.829,-0.8664,-0.8904,-0.9081,-0.936,-0.9694,-0.9781,-0.951,-0.9248,-0.9074,-0.9161,-0.9358,-0.9739,-1.0145,-1.0627,-1.1424,-1.1785,-1.1878,-1.1883,-1.1883,-1.1883,-1.1883,-1.1983,-1.2023,-1.1918,-1.218,-1.2428,-1.2499,-1.285,-1.3374,-1.3701,-1.3824,-1.4106,-1.4556,-1.5123,-1.5517,-0.2042,-0.2588,-0.2824,-0.345,-0.4157,-0.3849,-0.3923,-0.4295,-0.4451,-0.45,-0.4508,-0.4115,-0.3845,-0.3614,-0.3614,-0.3871,-0.4395,-0.441,-0.4696,-0.5101,-0.5121,-0.5187,-0.5289,-0.5211,-0.535,-0.5452,-0.5455,-0.5397,-0.5294,-0.5292,-0.5225,-0.511,-0.5104,-0.5049,-0.5003,-0.4416,-0.4014,-0.3774,-0.368,-0.3761,-0.4095,-0.3959,-0.409,-0.442,-0.4758,-0.4838,-0.4788,-0.5225,-0.5367,-0.5233,-0.5357,-0.5477,-0.5456,-0.5632,-0.5783,0.0,-0.6005,0.0,0.0,0.0,0.0,0.0,0.0,0.0,0.0,-0.6113,-0.6322,-0.652,-0.6823,-0.6897,-0.6584,-0.6724,-0.6905,-0.7084,-0.7123,-0.7411,-0.8102,-0.8272,-0.8423,-0.9008,-0.932,-0.9492,-0.974,-0.9951,-1.0125,-1.0299,-1.0554,-1.0549,-1.0299,-1.0212,-1.0202,-1.0413,-1.0918,-1.1604,-1.2315,-1.2635,-1.2861,-1.2861,-1.2861,-1.2861,-1.2861,-1.2867,-1.2861,-1.2861,-1.2964,-1.3158,-1.3147,-1.3346,-1.3716,-1.4201,-1.4254,-1.436,-1.4749,-1.5082,-1.5439,-0.2431,-0.2978,-0.345,-0.4073,-0.4857,-0.5422,-0.5489,-0.509,-0.5477,-0.5651,-0.5825,-0.5719,-0.5574,-0.5398,-0.5238,-0.5121,-0.5137,-0.5308,-0.5362,-0.5471,-0.5575,-0.5635,-0.5661,-0.5499,-0.5432,-0.5455,-0.5455,-0.5441,-0.5419,-0.5579,-0.5598,-0.5399,-0.5633,-0.5647,-0.5443,0.0,0.0,0.0,-0.4214,-0.4289,-0.4492,-0.4561,-0.4761,-0.516,-0.5352,0.0,-0.565,-0.5741,-0.5811,-0.5778,-0.5778,0.0,0.0,0.0,0.0,0.0,0.0,0.0,0.0,0.0,0.0,0.0,-0.6244,-0.6427,-0.6355,-0.6781,-0.7091,-0.7164,-0.7307,-0.7478,-0.7555,-0.7552,-0.7681,-0.7871,-0.803,-0.8304,-0.8625,-0.8896,-0.9219,-0.955,-0.9866,-1.0154,-1.0366,-1.0641,-1.0987,-1.1246,-1.1413,-1.1505,-1.1607,-1.1246,-1.1163,-1.1577,-1.2199,-1.2697,-1.2919,-1.32,-1.3323,-1.3346,-1.3346,-1.3346,-1.3346,-1.3346,-1.3346,-1.3346,-1.334,-1.3539,-1.3732,-1.3738,-1.3943,-1.4274,-1.4286,-1.4424,-1.4897,-1.5041,-1.5185,-0.3188,0.0,-0.4435,-0.5017,0.0,-0.6461,-0.6697,-0.6474,-0.6552,-0.6627,-0.6688,-0.6771,-0.6647,-0.6498,-0.6495,-0.6455,-0.6308,-0.6461,-0.6495,-0.6505,-0.6579,-0.6649,-0.6719,-0.647,-0.6427,-0.6494,-0.6319,-0.6285,-0.6226,-0.6304,-0.6315,-0.626,-0.642,-0.6428,-0.6363,-0.6294,-0.5842,-0.5059,-0.5057,-0.5127,-0.5267,-0.5267,-0.5433,-0.5631,-0.5818,0.0,0.0,0.0,0.0,0.0,0.0,0.0,0.0,0.0,0.0,-0.6089,-0.6033,-0.5952,-0.5834,-0.5989,-0.6058,-0.6065,-0.6497,-0.6754,-0.6704,-0.7053,-0.7229,-0.7233,-0.7605,-0.7856,-0.7794,-0.7961,-0.8103,-0.8216,-0.8479,-0.8772,-0.9222,-0.959,-1.0015,-1.0293,-1.0742,-1.1068,-1.1154,-1.1332,-1.1602,-1.186,-1.1935,-1.2106,-1.2118,-1.186,-1.1858,-1.228,-1.2681,-1.3003,-1.324,-1.3555,-1.3731,-1.3737,-1.3837,-1.3908,-1.3919,-1.3919,-1.3919,-1.3919,-1.3919,-1.3919,-1.4016,-1.4118,-1.4112,-1.4298,-1.4298,-1.4364,-1.4666,-1.4817,-1.4914,-0.408,-0.4905,-0.5402,-0.6025,-0.6695,-0.73,-0.7745,-0.7943,0.0,0.0,0.0,-0.7605,-0.7673,-0.7481,-0.7729,-0.771,-0.7683,-0.771,-0.7646,-0.7662,-0.7609,-0.7689,-0.7815,-0.7561,-0.7548,-0.7588,-0.7323,-0.7169,-0.7056,-0.7052,-0.7144,-0.7166,-0.7235,-0.7237,-0.7308,-0.7273,-0.6911,-0.6187,-0.6078,-0.6097,-0.6113,-0.6175,-0.6177,-0.6112,-0.6376,-0.642,-0.6374,-0.6706,-0.6837,-0.6781,-0.6923,-0.6894,-0.6788,-0.6726,-0.661,-0.6309,-0.6374,-0.6318,-0.6186,-0.6257,-0.6356,-0.6458,-0.6737,-0.6966,-0.7013,-0.7169,-0.733,-0.7326,-0.7772,-0.8013,-0.7934,-0.8259,-0.8522,-0.8607,-0.8843,-0.9271,-0.9843,-1.0278,-1.0709,-1.1123,-1.1499,-1.1763,-1.1843,-1.194,-1.2123,-1.2123,-1.2283,-1.2448,-1.2448,-1.2289,-1.2273,-1.2633,-1.2851,-1.2963,-1.3327,-1.3664,-1.3839,-1.383,-1.4093,-1.4232,-1.4286,-1.4298,-1.4298,-1.4298,-1.4298,-1.4298,-1.4298,-1.4304,-1.4298,-1.4298,-1.4298,-1.4298,-1.4322,-1.4479,-1.463,-0.5098,-0.5924,-0.6185,-0.6774,-0.762,-0.8018,-0.8508,-0.9074,-0.8572,-0.8508,-0.8661,-0.8913,-0.8996,-0.8994,-0.883,-0.8743,-0.8595,-0.8756,-0.867,-0.8514,-0.8587,-0.8674,-0.8694,-0.8257,-0.8089,-0.8109,-0.7852,-0.7753,-0.7735,-0.7731,-0.7733,-0.7588,-0.7735,-0.7903,-0.7988,-0.8329,-0.8452,-0.8328,-0.7335,-0.6869,-0.6844,-0.6982,-0.7112,-0.7157,-0.7434,-0.7554,-0.7279,-0.7509,-0.7502,-0.7172,-0.712,-0.7078,-0.6907,-0.692,-0.6781,-0.6581,-0.6474,-0.6414,-0.6347,-0.6346,-0.6499,-0.7019,-0.7134,-0.7071,-0.6978,-0.7401,-0.7719,-0.7719,-0.7964,-0.8138,-0.83,-0.8544,-0.883,-0.9216,-0.9591,-1.009,-1.0747,-1.1075,-1.1364,-1.1768,-1.1866,-1.2032,-1.2277,-1.2277,-1.2369,-1.2534,-1.2619,-1.2619,-1.2619,-1.2619,-1.2631,-1.2703,-1.2889,-1.3033,-1.3194,-1.3399,-1.3622,-1.3876,-1.3918,-1.4032,-1.4238,-1.4268,-1.4274,-1.4298,-1.4298,-1.4298,-1.4298,-1.4298,-1.4298,-1.4298,-1.4298,-1.4298,-1.4298,-1.4352,-1.4377,-0.6392,-0.7,-0.741,-0.7963,-0.8662,-0.9086,-0.9347,-0.968,-0.9588,-0.9425,-0.934,-0.9602,-0.9726,-0.9804,-0.989,-0.9838,-0.9578,-0.9672,-0.9633,-0.9384,-0.9474,-0.9428,-0.9257,-0.8903,-0.8732,-0.8556,-0.8376,-0.8336,-0.8426,-0.8434,-0.848,-0.8472,-0.8635,-0.883,-0.9002,-0.9302,-0.9481,-0.9471,-0.8613,-0.8094,-0.7982,-0.7947,-0.7843,-0.7806,-0.7943,-0.8042,-0.8007,-0.8077,-0.8103,-0.8015,-0.801,-0.7844,-0.7586,-0.746,-0.7219,-0.6881,-0.6752,-0.6653,-0.6511,-0.6585,-0.6707,-0.7015,-0.7103,-0.7153,-0.7067,-0.7435,-0.7638,-0.7642,-0.7799,-0.8073,-0.8394,-0.8575,-0.8955,-0.9668,-1.0123,-1.0611,-1.107,-1.1594,-1.1929,-1.2198,-1.2283,-1.2454,-1.2534,-1.2534,-1.2619,-1.2699,-1.2705,-1.2705,-1.2705,-1.2705,-1.2705,-1.2717,-1.2813,-1.2886,-1.2916,-1.3127,-1.3332,-1.3465,-1.3604,-1.3791,-1.4026,-1.4087,-1.4147,-1.4268,-1.4298,-1.4298,-1.4298,-1.4298,-1.4298,-1.4298,-1.4298,-1.4298,-1.4298,-1.4298,-1.4298,-0.7569,-0.81,-0.8578,-0.9161,-0.9689,-1.012,-1.0294,-1.0294,-1.0463,-1.0381,-1.012,-1.0125,-1.0294,-1.0549,-1.0727,-1.0727,-1.0646,-1.0609,-1.0547,-1.0289,-1.0333,-1.0181,-1.0004,-0.9744,-0.9562,-0.9389,-0.9207,-0.9191,-0.9328,-0.9336,-0.9427,-0.9664,-0.974,-0.9909,-1.0133,-1.0376,-1.0595,-1.0526,-0.9994,-0.9513,-0.9168,-0.892,-0.8734,-0.8605,-0.8657,-0.8704,-0.872,-0.8786,-0.8836,-0.8871,-0.8795,-0.8604,-0.8222,-0.8013,-0.7677,-0.7219,-0.7122,-0.7049,-0.6911,-0.7022,-0.7173,-0.7173,-0.7334,-0.7411,-0.7338,-0.7488,-0.7561,-0.7565,-0.7696,-0.8021,-0.8365,-0.8729,-0.9136,-0.9942,-1.0531,-1.0969,-1.1381,-1.202,-1.2448,-1.2448,-1.2619,-1.2705,-1.2705,-1.2705,-1.2699,-1.2699,-1.2705,-1.2705,-1.2705,-1.2705,-1.2705,-1.2705,-1.2705,-1.2717,-1.2717,-1.288,-1.3049,-1.3097,-1.329,-1.3525,-1.3743,-1.3857,-1.3966,-1.4159,-1.4268,-1.4292,-1.4298,-1.4298,-1.4298,-1.4298,-1.4298,-1.4298,-1.4208,-1.4112,-1.4202,-0.8694,-0.9144,-0.9589,-1.0202,-1.0819,-1.1079,-1.1262,-1.117,-1.1246,-1.1322,-1.144,-1.0901,-1.0911,-1.1154,-1.1251,-1.1354,-1.1548,-1.1564,-1.14,-1.1242,-1.1247,-1.1253,-1.1227,-1.0968,-1.0789,-1.0779,-1.0586,-1.0499,-1.0546,-1.0551,-1.0731,-1.1191,-1.1237,-1.1282,-1.1473,-1.1778,-1.1832,-1.1861,-1.179,-1.1179,-1.0188,-1.0135,-1.0012,-0.9788,-0.9921,-0.9898,-0.9763,-0.9896,-0.9796,-0.9308,-0.9227,-0.8964,-0.8495,-0.8373,-0.8152,-0.7787,-0.774,-0.7681,-0.7681,-0.7855,-0.7949,-0.8025,-0.7949,-0.7876,-0.7727,-0.7723,-0.7718,-0.7598,-0.7841,-0.8175,-0.8414,-0.8941,-0.9494,-1.0159,-1.0745,-1.123,-1.1768,-1.2198,-1.2448,-1.2699,-1.2699,-1.2705,-1.2705,-1.2705,-1.2705,-1.2705,-1.2705,-1.2705,-1.2705,-1.2705,-1.2705,-1.2705,-1.2705,-1.2705,-1.2711,-1.2711,-1.2856,-1.3055,-1.3133,-1.3278,-1.3489,-1.3719,-1.3924,-1.3924,-1.4105,-1.4208,-1.4238,-1.4298,-1.428,-1.425,-1.4262,-1.4202,-1.4022,-1.3829,-1.3823,-0.9854,-1.012,-1.0722,-1.1408,-1.2068,-1.248,-1.2638,-1.2632,-1.2632,-1.2727,-1.2815,-1.2549,-1.2292,-1.1997,-1.2132,-1.2288,-1.2299,-1.231,-1.227,-1.218,-1.2193,-1.214,-1.2048,-1.1957,-1.1773,-1.1681,-1.1589,-1.1559,-1.1672,-1.1693,-1.1874,-1.2231,-1.2308,-1.2365,-1.2637,-1.2986,-1.3028,-1.294,-1.3004,-1.2692,-1.1936,-1.1359,-1.0999,-1.0889,-1.0819,-1.0703,-1.0598,-1.0592,-1.0392,-1.0076,-0.9924,-0.9595,-0.9105,-0.896,-0.8769,-0.8389,-0.8093,-0.7944,-0.7944,-0.8025,-0.8102,-0.8102,-0.8102,-0.8025,-0.7953,-0.7957,-0.7927,-0.7878,-0.8003,-0.8286,-0.8699,-0.9215,-0.9781,-1.0489,-1.1021,-1.1596,-1.1952,-1.2369,-1.2619,-1.2705,-1.2705,-1.2705,-1.2705,-1.2705,-1.2705,-1.2705,-1.2705,-1.2705,-1.2705,-1.2705,-1.2705,-1.2705,-1.2705,-1.2705,-1.2705,-1.2705,-1.2765,-1.2843,-1.288,-1.297,-1.3224,-1.3344,-1.3483,-1.3646,-1.3791,-1.3863,-1.3809,-1.3984,-1.4069,-1.4093,-1.4046,-1.4022,-1.3732,-1.3539,-1.3636,-1.1163,-1.1342,-1.2099,-1.2768,-1.3312,-1.377,-1.3948,-1.3941,-1.3941,-1.3941,-1.3845,-1.4022,-1.3779,-1.3273,-1.3188,-1.3144,-1.3241,-1.322,-1.3256,-1.317,-1.3222,-1.3171,-1.2985,-1.2985,-1.2893,-1.2702,-1.2718,-1.2802,-1.2853,-1.2959,-1.3053,-1.3314,-1.3356,-1.351,-1.3628,-1.3975,-1.3975,-1.3749,-1.3811,-1.3662,-1.3265,-1.2536,-1.2058,-1.1754,-1.1487,-1.134,-1.126,-1.1037,-1.0887,-1.0663,-1.0443,-1.0067,-0.9695,-0.9473,-0.9241,-0.8937,-0.8556,-0.8408,-0.8408,-0.8408,-0.8408,-0.8412,-0.8408,-0.8358,-0.8326,-0.8267,-0.823,-0.8205,-0.8346,-0.8647,-0.8906,-0.9521,-1.0057,-1.0707,-1.1327,-1.1763,-1.1952,-1.246,-1.2705,-1.2705,-1.2705,-1.2705,-1.2705,-1.2705,-1.2705,-1.2705,-1.2705,-1.2705,-1.2705,-1.2705,-1.2705,-1.2705,-1.2705,-1.2705,-1.2705,-1.2705,-1.2705,-1.2705,-1.2723,-1.2795,-1.2988,-1.3043,-1.3139,-1.3399,-1.3453,-1.3532,-1.3616,-1.3737,-1.3764,-1.3737,-1.3684,-1.3471,-1.3335,-1.3244,-1.3055,-1.2551,-1.2857,-1.3804,-1.4283,-1.4674,-1.4867,-1.495,-1.4997,-1.4963,-1.4744,-1.4501,-1.5048,-1.5272,-1.5035,-1.428,-1.3966,-1.4191,-1.4161,-1.4173,-1.4204,-1.4224,-1.425,-1.4262,-1.4262,-1.4148,-1.41,-1.4088,-1.4124,-1.4166,-1.4166,-1.4382,-1.4555,-1.4518,-1.459,-1.457,-1.4625,-1.454,-1.4291,-1.4206,-1.4123,-1.399,-1.3678,-1.3007,-1.2331,-1.2152,-1.2012,-1.1689,-1.149,-1.1267,-1.1111,-1.0669,-1.0293,-0.9922,-0.9695,-0.9473,-0.9322,-0.9246,-0.9246,-0.918,-0.919,-0.9194,-0.9194,-0.9076,-0.8966,-0.8913,-0.8792,-0.8631,-0.8552,-0.8915,-0.9123,-0.9074,-0.9809,-1.0341,-1.0717,-1.1332,-1.1768,-1.1952,-1.2369,-1.2619,-1.2705,-1.2705,-1.2705,-1.2705,-1.2705,-1.2705,-1.2705,-1.2705,-1.2705,-1.2705,-1.2705,-1.2619,-1.2619,-1.2619,-1.2705,-1.2705,-1.2705,-1.2705,-1.2705,-1.2705,-1.2711,-1.2807,-1.291,-1.3043,-1.3163,-1.3284,-1.3387,-1.3471,-1.3483,-1.3499,-1.3316,-1.2963,-1.2718,-1.2727,-1.236,-1.2175,-1.3983,-1.4543,-1.5006,-1.5413,-1.5714,-1.5892,-1.5968,-1.6061,-1.6061,-1.5855,-1.5663,-1.5985,-1.6241,-1.6241,-1.5837,-1.5411,-1.5045,-1.4879,-1.4836,-1.4848,-1.4841,-1.4783,-1.4783,-1.4783,-1.479,-1.479,-1.479,-1.479,-1.479,-1.479,-1.4885,-1.4981,-1.5166,-1.5197,-1.5207,-1.5295,-1.5279,-1.5013,-1.4814,-1.4568,-1.4362,-1.4082,-1.3645,-1.3113,-1.291,-1.2667,-1.2447,-1.2069,-1.1759,-1.1273,-1.0887,-1.0519,-1.0143,-0.9765,-0.9625,-0.9635,-0.9478,-0.9382,-0.9509,-0.9534,-0.96,-0.9736,-0.9672,-0.9528,-0.946,-0.9304,-0.9114,-0.8937,-0.9253,-0.9397,-0.9416,-0.999,-1.0554,-1.0727,-1.1251,-1.178,-1.2037,-1.2283,-1.2534,-1.2705,-1.2705,-1.2705,-1.2705,-1.2705,-1.2705,-1.2705,-1.2619,-1.2534,-1.2454,-1.2369,-1.2289,-1.2289,-1.2203,-1.2203,-1.2289,-1.2534,-1.2705,-1.2705,-1.2705,-1.2705,-1.2765,-1.2697,-1.2793,-1.2904,-1.3043,-1.3079,-1.3109,-1.3052,-1.3021,-1.2927,-1.2471,-1.2168,-1.2032,-1.177,-1.1688,-1.5241,-1.5805,-1.6097,-1.6281,-1.6487,-1.6685,-1.6864,-1.6864,-1.6864,-1.6763,-1.6655,-1.6763,-1.6871,-1.6878,-1.6784,-1.6494,-1.592,-1.573,-1.5553,-1.5458,-1.5465,-1.5363,-1.5369,-1.5363,-1.5363,-1.5363,-1.5363,-1.5363,-1.5363,-1.5363,-1.5363,-1.5363,-1.554,-1.554,-1.5635,-1.5737,-1.5685,-1.5398,-1.511,-1.4816,-1.4529,-1.4235,-1.3995,-1.3801,-1.3594,-1.33,-1.2919,-1.2518,-1.2158,-1.1671,-1.1175,-1.0755,-1.0299,-0.9992,-0.9965,-1.0193,-0.9975,-0.9916,-1.019,-1.0153,-1.0147,-1.0293,-1.0151,-1.0004,-0.9911,-0.9775,-0.9536,-0.9222,-0.9325,-0.9506,-0.9515,-1.0038,-1.0559,-1.0733,-1.1257,-1.1699,-1.1866,-1.2198,-1.2448,-1.2619,-1.2705,-1.2705,-1.2705,-1.2619,-1.2619,-1.2619,-1.2448,-1.2283,-1.2283,-1.2118,-1.1957,-1.1957,-1.2043,-1.2037,-1.2037,-1.2289,-1.2369,-1.2369,-1.2454,-1.254,-1.2625,-1.2619,-1.2619,-1.2705,-1.2705,-1.2705,-1.2599,-1.2545,-1.2511,-1.2472,-1.201,-1.1571,-1.149,-1.1287,-1.1096,-1.6302,-1.6619,-1.6871,-1.6943,-1.703,-1.7138,-1.7333,-1.7239,-1.7239,-1.7232,-1.7138,-1.7239,-1.7239,-1.7239,-1.7066,-1.6979,-1.6878,-1.6588,-1.64,-1.613,-1.6123,-1.6028,-1.5832,-1.5737,-1.5737,-1.5737,-1.573,-1.573,-1.573,-1.573,-1.5737,-1.5737,-1.573,-1.573,-1.5825,-1.5818,-1.5691,-1.5431,-1.5157,-1.485,-1.4536,-1.4275,-1.4102,-1.4062,-1.4028,-1.3774,-1.326,-1.2823,-1.2523,-1.2196,-1.1611,-1.0941,-1.0534,-1.0506,-1.0667,-1.0878,-1.0918,-1.0954,-1.1158,-1.1042,-1.0891,-1.0887,-1.06,-1.0388,-1.0287,-1.0085,-0.9823,-0.9365,-0.9414,-0.9515,-0.9432,-0.9781,-1.0207,-1.0646,-1.1262,-1.1613,-1.1785,-1.2112,-1.2443,-1.2619,-1.2729,-1.2711,-1.2717,-1.2617,-1.2561,-1.2475,-1.2302,-1.2059,-1.2065,-1.1961,-1.1894,-1.1888,-1.1796,-1.1693,-1.178,-1.1952,-1.1957,-1.1957,-1.2043,-1.2209,-1.2289,-1.2369,-1.2454,-1.2534,-1.2619,-1.2619,-1.2448,-1.2319,-1.2004,-1.1871,-1.1395,-1.1036,-1.0908,-1.0801,-1.0511,-1.6879,-1.7044,-1.7145,-1.7246,-1.7239,-1.7232,-1.7333,-1.7333,-1.7333,-1.7333,-1.7333,-1.7333,-1.7333,-1.7333,-1.7239,-1.7246,-1.7246,-1.7145,-1.6864,-1.6494,-1.6494,-1.6312,-1.6123,-1.6028,-1.6028,-1.5825,-1.5825,-1.5825,-1.5825,-1.5825,-1.5825,-1.5825,-1.5825,-1.5825,-1.5825,-1.5825,-1.5772,-1.5678,-1.5411,-1.5117,-1.483,-1.4543,-1.4295,-1.4108,-1.4088,-1.3981,-1.3821,-1.3375,-1.2972,-1.2693,-1.2365,-1.1994,-1.16,-1.1431,-1.1496,-1.1659,-1.142,-1.1197,-1.1243,-1.1211,-1.12,-1.1164,-1.1038,-1.0895,-1.0615,-1.0368,-0.9966,-0.9432,-0.9345,-0.9345,-0.9432,-0.9689,-1.0125,-1.0641,-1.1003,-1.1359,-1.1699,-1.2118,-1.2363,-1.2472,-1.2787,-1.2976,-1.2937,-1.2839,-1.285,-1.2767,-1.2327,-1.1975,-1.1975,-1.1661,-1.1331,-1.1326,-1.1221,-1.1267,-1.1343,-1.1429,-1.1435,-1.1607,-1.1693,-1.1871,-1.2037,-1.2118,-1.2283,-1.2369,-1.2454,-1.2363,-1.2277,-1.2014,-1.1679,-1.1377,-1.1017,-1.0712,-1.0414,-1.0212,-1.0019,-1.7153,-1.7333,-1.7333,-1.7333,-1.7333,-1.7333,-1.7333,-1.7333,-1.7333,-1.7333,-1.7333,-1.7333,-1.7333,-1.7333,-1.7333,-1.7333,-1.7333,-1.7333,-1.7138,-1.6864,-1.6777,-1.6588,-1.6312,-1.6224,-1.6028,-1.5832,-1.5825,-1.5825,-1.5825,-1.5825,-1.5825,-1.5825,-1.5825,-1.5825,-1.5825,-1.5825,-1.5825,-1.5785,-1.5538,-1.5304,-1.5084,-1.4736,-1.4442,-1.4262,-1.4142,-1.4088,-1.4075,-1.3734,-1.3428,-1.3085,-1.2795,-1.2571,-1.2418,-1.2166,-1.2153,-1.2338,-1.195,-1.1611,-1.1662,-1.1539,-1.1431,-1.1408,-1.1267,-1.1084,-1.0748,-1.0435,-0.9962,-0.9446,-0.9328,-0.9248,-0.9187,-0.9519,-0.9951,-1.0386,-1.0829,-1.1181,-1.1607,-1.1854,-1.2169,-1.2337,-1.2663,-1.288,-1.3016,-1.2925,-1.2962,-1.2871,-1.25,-1.1951,-1.1833,-1.1551,-1.1292,-1.111,-1.0982,-1.0948,-1.0748,-1.0819,-1.0911,-1.1089,-1.1348,-1.1607,-1.1866,-1.1866,-1.1952,-1.2118,-1.2203,-1.2026,-1.1854,-1.1505,-1.1194,-1.092,-1.0579,-1.0233,-0.9981,-0.9702,-0.9525,-1.7333,-1.7333,-1.7333,-1.7333,-1.7333,-1.7333,-1.7333,-1.7333,-1.7333,-1.7333,-1.7333,-1.7333,-1.7333,-1.7333,-1.7333,-1.7333,-1.7333,-1.7333,-1.7333,-1.7239,-1.7059,-1.6878,-1.6588,-1.6312,-1.6028,-1.5927,-1.5825,-1.5825,-1.5825,-1.5825,-1.5825,-1.5825,-1.5825,-1.5825,-1.5825,-1.5825,-1.5825,-1.5785,-1.5571,-1.5431,-1.5351,-1.4999,-1.4677,-1.4543,-1.4322,-1.4188,-1.4148,-1.4082,-1.3851,-1.3346,-1.3037,-1.2959,-1.3007,-1.2641,-1.2638,-1.3029,-1.2438,-1.22,-1.2219,-1.1906,-1.1693,-1.1657,-1.1321,-1.0947,-1.0752,-1.0459,-0.9956,-0.9473,-0.9298,-0.9131,-0.908,-0.9213,-0.9551,-0.9956,-1.0656,-1.1181,-1.1527,-1.151,-1.1679,-1.2235,-1.2426,-1.2618,-1.3036,-1.2751,-1.2699,-1.2699,-1.2439,-1.1997,-1.1791,-1.1569,-1.1425,-1.1141,-1.0875,-1.0711,-1.0602,-1.0738,-1.0743,-1.0906,-1.1084,-1.1348,-1.1521,-1.1607,-1.1688,-1.186,-1.1882,-1.1699,-1.1446,-1.1029,-1.0745,-1.0515,-1.0179,-0.9862,-0.953,-0.9375,-0.913,-1.7333,-1.7333,-1.7333,-1.7333,-1.7333,-1.7333,-1.7333,-1.7333,-1.7333,-1.7333,-1.7333,-1.7333,-1.7333,-1.7333,-1.7333,-1.7333,-1.7333,-1.7333,-1.7333,-1.7333,-1.7232,-1.7153,-1.6878,-1.6407,-1.613,-1.6028,-1.5927,-1.5825,-1.5825,-1.5825,-1.5825,-1.5825,-1.5825,-1.5825,-1.5825,-1.5825,-1.5825,-1.5825,-1.5765,-1.5598,-1.5404,-1.5257,-1.5057,-1.485,-1.4654,-1.4502,-1.4409,-1.4195,-1.4062,-1.3898,-1.3824,-1.3688,-1.3751,-1.3316,-1.3092,-1.3161,-1.2693,-1.2202,-1.21,-1.1888,-1.1701,-1.1673,-1.143,-1.1232,-1.1126,-1.0548,-1.0099,-0.9688,-0.9368,-0.9134,-0.9156,-0.9191,-0.9495,-0.9979,-1.0477,-1.1003,-1.1176,-1.1262,-1.1505,-1.201,-1.2389,-1.2786,-1.3003,-1.2991,-1.2808,-1.2723,-1.2337,-1.1949,-1.1697,-1.1333,-1.112,-1.092,-1.0721,-1.0524,-1.044,-1.0644,-1.0738,-1.0727,-1.0901,-1.1084,-1.117,-1.1251,-1.1332,-1.1505,-1.1484,-1.1326,-1.0922,-1.0597,-1.0315,-1.0111,-0.9866,-0.954,-0.9295,-0.9133,-0.8928,-1.7333,-1.7333,-1.7333,-1.7333,-1.7333,-1.7333,-1.7333,-1.7333,-1.7333,-1.7333,-1.7333,-1.7333,-1.7333,-1.7333,-1.7333,-1.7333,-1.7333,-1.7333,-1.7333,-1.7333,-1.7333,-1.7153,-1.6979,-1.6602,-1.6407,-1.6224,-1.6035,-1.592,-1.5825,-1.5825,-1.5825,-1.5825,-1.5825,-1.5825,-1.5825,-1.5825,-1.5832,-1.5825,-1.5825,-1.5738,-1.5591,-1.5464,-1.5324,-1.5228,-1.5037,-1.4856,-1.4696,-1.4543,-1.4362,-1.4155,-1.4082,-1.4088,-1.4088,-1.3652,-1.3398,-1.3398,-1.2807,-1.236,-1.2127,-1.1932,-1.1793,-1.1722,-1.1483,-1.1177,-1.0925,-1.0454,-1.0041,-0.9647,-0.9341,-0.9198,-0.915,-0.9142,-0.9366,-0.9648,-1.0222,-1.0574,-1.0829,-1.1179,-1.1497,-1.1907,-1.2329,-1.2757,-1.2981,-1.2962,-1.2829,-1.2651,-1.2328,-1.194,-1.1633,-1.1264,-1.0972,-1.0749,-1.0547,-1.0385,-1.029,-1.0314,-1.0455,-1.0509,-1.0554,-1.0819,-1.0911,-1.0906,-1.0911,-1.1013,-1.0994,-1.0885,-1.0504,-1.0159,-0.9925,-0.9746,-0.9573,-0.9304,-0.8954,-0.8832,-0.8726,-1.7326,-1.7333,-1.7333,-1.7333,-1.7333,-1.7333,-1.7333,-1.7333,-1.7333,-1.7333,-1.7333,-1.7333,-1.7333,-1.7333,-1.7333,-1.7333,-1.7333,-1.7333,-1.7333,-1.7333,-1.7333,-1.7246,-1.7066,-1.6979,-1.6739,-1.649,-1.6279,-1.6143,-1.6101,-1.5985,-1.5945,-1.6005,-1.5985,-1.5945,-1.6025,-1.5979,-1.5932,-1.5972,-1.5952,-1.5925,-1.5832,-1.5752,-1.5591,-1.5424,-1.5275,-1.5161,-1.5003,-1.4923,-1.471,-1.4208,-1.4182,-1.4235,-1.4222,-1.3762,-1.3512,-1.3391,-1.2955,-1.2449,-1.2382,-1.2169,-1.1951,-1.1707,-1.1436,-1.1086,-1.0697,-1.036,-0.9914,-0.9604,-0.949,-0.9362,-0.9181,-0.9113,-0.9195,-0.9306,-0.9703,-1.0052,-1.0517,-1.1025,-1.1436,-1.1655,-1.2072,-1.2501,-1.2678,-1.2662,-1.2467,-1.237,-1.2078,-1.178,-1.1585,-1.1244,-1.0969,-1.0688,-1.041,-1.0238,-1.0152,-1.0072,-1.0229,-1.031,-1.028,-1.0386,-1.0651,-1.0656,-1.0492,-1.0532,-1.0642,-1.0399,-1.0044,-0.9732,-0.9545,-0.9366,-0.918,-0.889,-0.859,-0.8619,-0.8528,-1.7527,-1.7333,-1.7333,-1.7333,-1.7333,-1.7333,-1.7333,-1.7326,-1.7333,-1.7333,-1.7333,-1.7333,-1.7333,-1.7333,-1.7333,-1.7333,-1.7362,-1.7369,-1.7333,-1.7333,-1.7333,-1.7333,-1.7261,-1.7116,-1.7035,-1.6978,-1.6767,-1.6696,-1.6742,-1.6552,-1.6506,-1.6486,-1.6433,-1.6506,-1.648,-1.644,-1.6513,-1.648,-1.6293,-1.6172,-1.6106,-1.5899,-1.5826,-1.5685,-1.5451,-1.5324,-1.5257,-1.5084,-1.4903,-1.481,-1.4776,-1.477,-1.4628,-1.4268,-1.3983,-1.3735,-1.3171,-1.27,-1.2626,-1.2232,-1.1863,-1.1848,-1.1397,-1.0986,-1.1052,-1.0396,-1.0032,-0.9807,-0.9641,-0.9417,-0.9157,-0.8938,-0.8951,-0.9076,-0.9095,-0.9349,-0.9814,-1.0509,-1.1005,-1.1385,-1.1614,-1.1929,-1.2237,-1.2165,-1.2073,-1.1883,-1.1785,-1.1585,-1.1389,-1.1194,-1.0951,-1.0581,-1.0329,-1.0158,-1.0079,-1.009,-1.0306,-1.0381,-1.0276,-1.025,-1.0426,-1.0406,-1.0274,-1.0243,-1.031,-0.9981,-0.9578,-0.9447,-0.9336,-0.9111,-0.8874,-0.8652,-0.8414,-0.8428,-0.8333,-1.7807,-1.7707,-1.7707,-1.7707,-1.7707,-1.7707,-1.7707,-1.7613,-1.7527,-1.752,-1.7426,-1.7333,-1.7333,-1.7333,-1.734,-1.7399,-1.7582,-1.7721,-1.7794,-1.7801,-1.7801,-1.7794,-1.7786,-1.7676,-1.7563,-1.7398,-1.7316,-1.7281,-1.7285,-1.7027,-1.688,-1.6914,-1.682,-1.6667,-1.6707,-1.672,-1.668,-1.6667,-1.6567,-1.642,-1.6259,-1.6132,-1.5939,-1.5845,-1.5678,-1.5605,-1.5578,-1.5471,-1.5384,-1.5364,-1.5357,-1.5224,-1.4823,-1.4405,-1.4141,-1.3785,-1.3359,-1.2853,-1.269,-1.2328,-1.2062,-1.198,-1.1322,-1.0988,-1.0774,-1.0314,-1.0019,-0.9821,-0.9698,-0.9506,-0.925,-0.906,-0.8968,-0.8893,-0.8874,-0.9003,-0.9389,-1.0135,-1.0812,-1.1164,-1.1512,-1.1809,-1.194,-1.1775,-1.1683,-1.159,-1.1296,-1.1096,-1.1194,-1.0998,-1.0806,-1.0462,-1.0316,-1.0171,-1.014,-1.0196,-1.037,-1.044,-1.0491,-1.0434,-1.0519,-1.0301,-1.0088,-1.0058,-0.994,-0.9651,-0.9325,-0.918,-0.8975,-0.8728,-0.8576,-0.8418,-0.8333,-0.8233,-0.8137,-1.8179,-1.8172,-1.8087,-1.8087,-1.8087,-1.8087,-1.8087,-1.8087,-1.7908,-1.7721,-1.7714,-1.752,-1.7426,-1.7333,-1.7333,-1.7516,-1.7808,-1.8101,-1.8189,-1.8189,-1.8189,-1.8189,-1.8211,-1.8255,-1.8142,-1.7735,-1.7761,-1.7925,-1.7795,-1.7458,-1.7367,-1.7291,-1.7069,-1.7042,-1.6881,-1.6847,-1.6907,-1.6921,-1.6827,-1.6693,-1.646,-1.6339,-1.6099,-1.5872,-1.5805,-1.5785,-1.5778,-1.5765,-1.5785,-1.5825,-1.5737,-1.5371,-1.4878,-1.4443,-1.4079,-1.3658,-1.3397,-1.3102,-1.2869,-1.2518,-1.2139,-1.198,-1.138,-1.089,-1.0408,-1.0117,-0.9821,-0.9723,-0.9608,-0.9547,-0.9372,-0.9222,-0.9056,-0.8893,-0.8906,-0.8924,-0.9144,-0.9848,-1.0491,-1.0808,-1.1172,-1.1526,-1.1473,-1.1389,-1.1389,-1.1296,-1.1002,-1.0806,-1.0801,-1.0801,-1.0609,-1.0413,-1.0266,-1.0249,-1.0223,-1.0105,-1.0301,-1.0412,-1.0491,-1.0362,-1.0366,-1.0181,-0.9872,-0.9688,-0.949,-0.9263,-0.9091,-0.8897,-0.8674,-0.8425,-0.8333,-0.8237,-0.8137,-0.8038,-0.8041,-1.8542,-1.845,-1.8172,-1.8087,-1.8087,-1.8087,-1.8179,-1.8087,-1.8087,-1.7994,-1.7994,-1.7721,-1.7628,-1.7527,-1.7419,-1.7523,-1.786,-1.8225,-1.8386,-1.8379,-1.8386,-1.8386,-1.8445,-1.8613,-1.8657,-1.8564,-1.8412,-1.8425,-1.8501,-1.8386,-1.8074,-1.7832,-1.7714,-1.7596,-1.7479,-1.7428,-1.7355,-1.7295,-1.7161,-1.7021,-1.686,-1.6493,-1.6159,-1.5892,-1.5852,-1.5825,-1.5825,-1.5825,-1.5825,-1.5825,-1.5635,-1.5393,-1.5094,-1.4873,-1.459,-1.4117,-1.3576,-1.3233,-1.2973,-1.2425,-1.1975,-1.1585,-1.0998,-1.0507,-1.0117,-0.9821,-0.9723,-0.9624,-0.9616,-0.9555,-0.9376,-0.9315,-0.9226,-0.9092,-0.9003,-0.9154,-0.9288,-0.9694,-1.0076,-1.0393,-1.0756,-1.11,-1.0998,-1.09,-1.0806,-1.0806,-1.0609,-1.0511,-1.0609,-1.0507,-1.031,-1.0314,-1.0207,-1.0301,-1.0395,-1.0158,-1.0205,-1.0178,-1.0193,-1.0014,-0.9943,-0.9824,-0.9647,-0.9643,-0.9482,-0.9292,-0.901,-0.8795,-0.8517,-0.8333,-0.8237,-0.8041,-0.8038,-0.8041,-0.8062,-1.9288,-1.9112,-1.8928,-1.8835,-1.8835,-1.8727,-1.8635,-1.8635,-1.8373,-1.8288,-1.828,-1.8001,-1.7815,-1.7721,-1.7535,-1.7691,-1.8072,-1.8599,-1.8782,-1.8803,-1.8811,-1.8803,-1.8782,-1.8972,-1.9023,-1.9038,-1.8957,-1.889,-1.9056,-1.8743,-1.8548,-1.8436,-1.8227,-1.7911,-1.7799,-1.7667,-1.7589,-1.7542,-1.7442,-1.7288,-1.7114,-1.6587,-1.6213,-1.6079,-1.5912,-1.5832,-1.5825,-1.5825,-1.5825,-1.573,-1.5629,-1.5363,-1.5077,-1.479,-1.4406,-1.3919,-1.3539,-1.3152,-1.2759,-1.2273,-1.1883,-1.1394,-1.0703,-1.0212,-1.0019,-0.9826,-0.9628,-0.9624,-0.9624,-0.9596,-0.951,-0.9421,-0.9319,-0.9242,-0.9165,-0.921,-0.9324,-0.9552,-0.9845,-1.0009,-1.0426,-1.0592,-1.0605,-1.0507,-1.0314,-1.0314,-1.0216,-1.0314,-1.0314,-1.0216,-1.0117,-1.0117,-1.0019,-1.0117,-1.0216,-1.0134,-1.0039,-1.0009,-1.0079,-0.9905,-0.9814,-0.9795,-0.985,-0.9871,-0.962,-0.9319,-0.8958,-0.8718,-0.8428,-0.8233,-0.8137,-0.8038,-0.8038,-0.8045,-0.8082,-1.9936,-1.9853,-1.9762,-1.9679,-1.9579,-1.9471,-1.9279,-1.9196,-1.8835,-1.8666,-1.8574,-1.828,-1.8001,-1.7837,-1.7769,-1.7956,-1.8343,-1.8899,-1.9111,-1.9206,-1.9213,-1.9242,-1.9264,-1.9272,-1.9242,-1.9213,-1.9235,-1.9272,-1.9279,-1.9071,-1.8974,-1.8764,-1.8338,-1.8122,-1.8016,-1.7799,-1.7694,-1.7589,-1.7582,-1.7435,-1.7101,-1.6714,-1.6406,-1.6333,-1.6079,-1.5932,-1.5952,-1.5858,-1.5832,-1.5737,-1.5547,-1.5363,-1.4981,-1.4496,-1.3919,-1.3534,-1.3249,-1.2856,-1.2467,-1.2273,-1.179,-1.1198,-1.06,-1.0212,-0.992,-0.9723,-0.9624,-0.9624,-0.9624,-0.9624,-0.9583,-0.9502,-0.9433,-0.9397,-0.9303,-0.9222,-0.937,-0.9548,-0.9715,-0.985,-1.0156,-1.019,-1.0207,-1.0117,-1.0019,-1.0023,-0.992,-0.992,-1.0019,-0.992,-0.992,-0.9821,-0.9821,-0.9821,-0.9821,-0.9924,-0.9862,-0.9938,-0.993,-0.9892,-0.9922,-0.9976,-0.9993,-0.9882,-0.9694,-0.9296,-0.8924,-0.863,-0.8432,-0.8233,-0.8038,-0.8038,-0.8038,-0.8096,-0.816,-2.0564,-2.0564,-2.0292,-2.0119,-1.9928,-1.9837,-1.9762,-1.9487,-1.9196,-1.9096,-1.9012,-1.8658,-1.828,-1.8054,-1.783,-1.7955,-1.8328,-1.8694,-1.9045,-1.9242,-1.9272,-1.9272,-1.9272,-1.9272,-1.9272,-1.9272,-1.9272,-1.9272,-1.9279,-1.9272,-1.9071,-1.8862,-1.8764,-1.8555,-1.8128,-1.7911,-1.7806,-1.7694,-1.7589,-1.7455,-1.7208,-1.7054,-1.6867,-1.6647,-1.6393,-1.6199,-1.6146,-1.5992,-1.5872,-1.5737,-1.5369,-1.5178,-1.4987,-1.4118,-1.3732,-1.3443,-1.3249,-1.2861,-1.2467,-1.2175,-1.1688,-1.1096,-1.0605,-1.0117,-0.9821,-0.9624,-0.9624,-0.9624,-0.9624,-0.9624,-0.9624,-0.9604,-0.9587,-0.9571,-0.9518,-0.9502,-0.9535,-0.9449,-0.9616,-0.9641,-0.9895,-0.9908,-1.0019,-0.9821,-0.9628,-0.9628,-0.9727,-0.9727,-0.9723,-0.9723,-0.9727,-0.9727,-0.9727,-0.9723,-0.9723,-0.9727,-0.9727,-0.9821,-0.9821,-0.9821,-0.9821,-0.9821,-0.9723,-0.9616,-0.9529,-0.9434,-0.9229,-0.8829,-0.8531,-0.8233,-0.8137,-0.8038,-0.8038,-0.8119,-0.8228,-2.1553,-2.1284,-2.1105,-2.0925,-2.0753,-2.0555,-2.0283,-2.0019,-1.9737,-1.9463,-1.9188,-1.9012,-1.8643,-1.8155,-1.8058,-1.8088,-1.8321,-1.8628,-1.8964,-1.9213,-1.9272,-1.9272,-1.9272,-1.9272,-1.9272,-1.9272,-1.9272,-1.9272,-1.9272,-1.9272,-1.9168,-1.9071,-1.8974,-1.8764,-1.8443,-1.8122,-1.8016,-1.7799,-1.7687,-1.7515,-1.7382,-1.7241,-1.7094,-1.6954,-1.6673,-1.6473,-1.6293,-1.6179,-1.5883,-1.5701,-1.5274,-1.4987,-1.4694,-1.4022,-1.3539,-1.3443,-1.3152,-1.2764,-1.2467,-1.2073,-1.1585,-1.1096,-1.0605,-1.0117,-0.9723,-0.9624,-0.9624,-0.9624,-0.9624,-0.9624,-0.9624,-0.9624,-0.9624,-0.9624,-0.9624,-0.9624,-0.9624,-0.9624,-0.9608,-0.962,-0.9628,-0.9723,-0.9821,-0.9727,-0.9628,-0.9628,-0.9628,-0.9628,-0.9624,-0.9624,-0.9624,-0.9628,-0.9624,-0.9624,-0.9624,-0.9628,-0.9628,-0.9723,-0.9723,-0.9723,-0.9624,-0.9624,-0.9624,-0.9624,-0.9628,-0.9529,-0.943,-0.9031,-0.863,-0.8432,-0.8137,-0.8175,-0.8116,-0.8191,-0.8319,-2.253,-2.2167,-2.1998,-2.1741,-2.1571,-2.1365,-2.1006,-2.0564,-2.0201,-1.9837,-1.9471,-1.9196,-1.8727,-1.8311,-1.807,-1.8038,-1.8174,-1.8518,-1.884,-1.9074,-1.9235,-1.9272,-1.9272,-1.9272,-1.9272,-1.9272,-1.9272,-1.9272,-1.9272,-1.9272,-1.9272,-1.9272,-1.9078,-1.8974,-1.8764,-1.8548,-1.8227,-1.7905,-1.7687,-1.7569,-1.7528,-1.7375,-1.7301,-1.7174,-1.6981,-1.6714,-1.652,-1.6195,-1.5926,-1.5724,-1.5102,-1.479,-1.4502,-1.3829,-1.3443,-1.3249,-1.3055,-1.2662,-1.237,-1.2073,-1.158,-1.1091,-1.0605,-1.0019,-0.9723,-0.9624,-0.9624,-0.9624,-0.9624,-0.9624,-0.9624,-0.9624,-0.9624,-0.9624,-0.9624,-0.9624,-0.9624,-0.9624,-0.9624,-0.9624,-0.9624,-0.9624,-0.9624,-0.9624,-0.9624,-0.9624,-0.9624,-0.9624,-0.9624,-0.9624,-0.9624,-0.9624,-0.9624,-0.9624,-0.9624,-0.9624,-0.9624,-0.9624,-0.9624,-0.9624,-0.9624,-0.9624,-0.9624,-0.9624,-0.9624,-0.9624,-0.9529,-0.913,-0.8829,-0.8645,-0.8478,-0.8362,-0.8323,-0.8299,-0.8435,-2.3667,-2.358,-2.2696,-2.2264,-2.2097,-2.2008,-2.1741,-2.1212,-2.0736,-2.0464,-2.0011,-1.9288,-1.8819,-1.8473,-1.8069,-1.7888,-1.7889,-1.8196,-1.854,-1.8855,-1.9103,-1.9228,-1.9257,-1.9272,-1.9272,-1.9272,-1.9272,-1.9272,-1.9272,-1.9272,-1.9272,-1.9272,-1.9175,-1.9071,-1.8974,-1.8764,-1.8443,-1.8122,-1.7799,-1.7687,-1.7582,-1.7535,-1.7522,-1.7468,-1.7281,-1.7101,-1.7054,-1.6388,-1.5869,-1.5687,-1.4889,-1.44,-1.4208,-1.363,-1.3249,-1.3055,-1.2861,-1.2565,-1.237,-1.2078,-1.1688,-1.1194,-1.0507,-0.992,-0.9624,-0.9624,-0.9624,-0.9624,-0.9624,-0.9624,-0.9624,-0.9624,-0.9624,-0.9624,-0.9624,-0.9624,-0.9624,-0.9624,-0.9624,-0.9624,-0.9624,-0.9624,-0.9624,-0.9624,-0.9624,-0.9624,-0.9624,-0.9624,-0.9624,-0.9624,-0.9624,-0.9624,-0.9624,-0.9624,-0.9624,-0.9624,-0.9624,-0.9624,-0.9624,-0.9624,-0.9624,-0.9624,-0.9624,-0.9624,-0.9624,-0.9624,-0.9624,-0.9327,-0.9137,-0.8866,-0.8625,-0.8533,-0.8488,-0.8509,-0.8652,-2.3841,-2.3754,-2.3396,-2.3057,-2.2706,-2.2706,-2.2362,-2.183,-2.1463,-2.0916,-2.0283,-1.9745,-1.9196,-1.8727,-1.8381,-1.8176,-1.8001,-1.7925,-1.8321,-1.8672,-1.8928,-1.9096,-1.9177,-1.9264,-1.9272,-1.9272,-1.9272,-1.9272,-1.9272,-1.9272,-1.9272,-1.9272,-1.9272,-1.9272,-1.9175,-1.8974,-1.8555,-1.8128,-1.7911,-1.7799,-1.7582,-1.7589,-1.7589,-1.7562,-1.7515,-1.7308,-1.7114,-1.6559,-1.5998,-1.536,-1.4631,-1.4244,-1.3823,-1.334,-1.305,-1.2856,-1.2667,-1.2473,-1.2181,-1.198,-1.159,-1.0801,-1.031,-0.992,-0.9624,-0.9624,-0.9624,-0.9624,-0.9624,-0.9624,-0.9624,-0.9624,-0.9624,-0.9624,-0.9624,-0.9624,-0.9624,-0.9624,-0.9624,-0.9624,-0.9624,-0.9624,-0.9624,-0.9624,-0.9624,-0.9624,-0.9624,-0.9624,-0.9624,-0.9624,-0.9624,-0.9624,-0.9624,-0.9624,-0.9624,-0.9624,-0.9624,-0.9624,-0.9624,-0.9624,-0.9624,-0.9624,-0.9624,-0.9624,-0.9624,-0.9624,-0.9628,-0.9529,-0.9367,-0.9141,-0.8936,-0.8635,-0.8709,-0.8696,-0.8808,-2.4013,-2.4013,-2.4013,-2.3744,-2.3319,-2.3222,-2.2882,-2.2441,-2.1998,-2.1463,-2.0654,-2.0292,-1.9745,-1.9196,-1.8743,-1.8365,-1.8218,-1.8104,-1.8206,-1.8416,-1.8686,-1.8906,-1.9089,-1.922,-1.9272,-1.9272,-1.9272,-1.9272,-1.9272,-1.9272,-1.9272,-1.9272,-1.9272,-1.9272,-1.9272,-1.9071,-1.866,-1.8345,-1.8122,-1.8016,-1.7799,-1.7694,-1.7694,-1.7555,-1.7468,-1.7328,-1.6972,-1.6351,-1.5668,-1.506,-1.4376,-1.3846,-1.3437,-1.3055,-1.2759,-1.2565,-1.2375,-1.2175,-1.1883,-1.1688,-1.1389,-1.0609,-1.0212,-0.992,-0.9723,-0.9624,-0.9624,-0.9624,-0.9624,-0.9624,-0.9624,-0.9624,-0.9624,-0.9624,-0.9624,-0.9624,-0.9624,-0.9624,-0.9624,-0.9624,-0.9624,-0.9624,-0.9624,-0.9624,-0.9624,-0.9624,-0.9624,-0.9624,-0.9624,-0.9624,-0.9624,-0.9624,-0.9624,-0.9624,-0.9624,-0.9624,-0.9624,-0.9624,-0.9624,-0.9624,-0.9624,-0.9624,-0.9624,-0.9624,-0.9624,-0.9624,-0.9652,-0.9585,-0.9566,-0.945,-0.9183,-0.8927,-0.8759,-0.8828,-0.8862,-2.4464,-2.4464,-2.4464,-2.4196,-2.3754,-2.359,-2.3319,-2.2969,-2.253,-2.1998,-2.1293,-2.0826,-2.0374,-1.9745,-1.9196,-1.869,-1.8201,-1.8145,-1.8067,-1.805,-1.8408,-1.8694,-1.8913,-1.9067,-1.9206,-1.9264,-1.9272,-1.9272,-1.9272,-1.9272,-1.9272,-1.9272,-1.9272,-1.9272,-1.9272,-1.9071,-1.8869,-1.8764,-1.8541,-1.8331,-1.8016,-1.801,-1.7799,-1.7573,-1.7335,-1.7201,-1.6695,-1.6021,-1.5369,-1.4765,-1.3957,-1.3357,-1.2953,-1.2662,-1.237,-1.2073,-1.1975,-1.1683,-1.1292,-1.1198,-1.0904,-1.0413,-1.0019,-0.9821,-0.9624,-0.9624,-0.9624,-0.9624,-0.9624,-0.9624,-0.9624,-0.9624,-0.9624,-0.9624,-0.9624,-0.9624,-0.9624,-0.9624,-0.9624,-0.9624,-0.9624,-0.9624,-0.9624,-0.9624,-0.9624,-0.9624,-0.9624,-0.9624,-0.9624,-0.9624,-0.9624,-0.9624,-0.9624,-0.9624,-0.9624,-0.9624,-0.9624,-0.9624,-0.9624,-0.9624,-0.9624,-0.9624,-0.9624,-0.9624,-0.9624,-0.9624,-0.9693,-0.9762,-0.9693,-0.9637,-0.9417,-0.9154,-0.9074,-0.8923,-0.8933,-2.455,-2.455,-2.455,-2.4454,-2.4196,-2.4024,-2.3764,-2.3319,-2.2882,-2.2362,-2.1919,-2.1463,-2.0916,-2.0283,-1.9646,-1.9004,-1.8388,-1.7867,-1.7749,-1.7845,-1.8101,-1.8423,-1.8679,-1.8869,-1.9045,-1.922,-1.9272,-1.9228,-1.9272,-1.9206,-1.925,-1.9272,-1.9184,-1.9272,-1.9272,-1.9175,-1.9071,-1.8876,-1.8764,-1.8548,-1.8325,-1.8101,-1.7914,-1.7633,-1.7277,-1.6932,-1.6462,-1.5642,-1.498,-1.4439,-1.3642,-1.3061,-1.2662,-1.237,-1.2078,-1.1683,-1.1487,-1.1198,-1.0801,-1.0507,-1.0314,-1.0117,-0.9924,-0.9727,-0.9624,-0.9624,-0.9624,-0.9624,-0.9624,-0.9624,-0.9624,-0.9624,-0.9624,-0.9624,-0.9624,-0.9624,-0.9624,-0.9624,-0.9624,-0.9624,-0.9624,-0.9624,-0.9624,-0.9624,-0.9624,-0.9624,-0.9624,-0.9624,-0.9624,-0.9624,-0.9624,-0.9624,-0.9624,-0.9624,-0.9624,-0.9624,-0.9624,-0.9624,-0.9624,-0.9624,-0.9624,-0.9624,-0.9624,-0.9624,-0.9624,-0.9632,-0.9758,-0.9794,-0.9776,-0.9636,-0.9481,-0.9254,-0.9003,-0.893,-0.8933,-2.455,-2.455,-2.455,-2.455,-2.4454,-2.4292,-2.3937,-2.359,-2.3242,-2.2794,-2.2441,-2.1998,-2.1553,-2.0916,-2.0184,-1.9546,-1.8812,-1.8272,-1.7766,-1.786,-1.7794,-1.8064,-1.8343,-1.8584,-1.8701,-1.8913,-1.8942,-1.8913,-1.8869,-1.8913,-1.8899,-1.8877,-1.8942,-1.8869,-1.8942,-1.906,-1.9175,-1.9078,-1.8959,-1.8783,-1.8511,-1.8219,-1.7908,-1.7469,-1.7083,-1.664,-1.5937,-1.5337,-1.4655,-1.4021,-1.3447,-1.2754,-1.2365,-1.198,-1.1688,-1.1194,-1.0801,-1.0609,-1.0314,-1.0019,-0.992,-0.9826,-0.9628,-0.9624,-0.9624,-0.9624,-0.9624,-0.9624,-0.9624,-0.9624,-0.9624,-0.9624,-0.9624,-0.9624,-0.9624,-0.9624,-0.9624,-0.9624,-0.9624,-0.9624,-0.9624,-0.9624,-0.9624,-0.9624,-0.9624,-0.9624,-0.9624,-0.9624,-0.9624,-0.9624,-0.9624,-0.9624,-0.9624,-0.9624,-0.9624,-0.9624,-0.9624,-0.9624,-0.9624,-0.9624,-0.9624,-0.9624,-0.9624,-0.9628,-0.9632,-0.9689,-0.9868,-0.9832,-0.9824,-0.9774,-0.9592,-0.934,-0.8933,-0.8937,-0.8937,-2.4529,-2.455,-2.455,-2.455,-2.4464,-2.4292,-2.411,-2.3841,-2.359,-2.3319,-2.3047,-2.2441,-2.1998,-2.1553,-2.0744,-2.0011,-1.9463,-1.8812,-1.8295,-1.7819,-1.7816,-1.7905,-1.7962,-1.8167,-1.8357,-1.8357,-1.8401,-1.8518,-1.835,-1.8467,-1.8452,-1.8394,-1.8474,-1.8474,-1.8628,-1.8825,-1.9096,-1.9037,-1.9051,-1.8854,-1.8533,-1.8288,-1.7799,-1.7355,-1.6731,-1.6196,-1.553,-1.488,-1.4183,-1.3659,-1.3061,-1.2565,-1.2073,-1.1487,-1.1096,-1.0703,-1.0314,-1.0117,-1.0019,-0.9723,-0.9723,-0.9727,-0.9628,-0.9624,-0.9624,-0.9624,-0.9624,-0.9624,-0.9624,-0.9624,-0.9624,-0.9624,-0.9624,-0.9624,-0.9624,-0.9624,-0.9624,-0.9624,-0.9624,-0.9624,-0.9624,-0.9624,-0.9624,-0.9624,-0.9624,-0.9624,-0.9624,-0.9624,-0.9624,-0.9624,-0.9624,-0.9624,-0.9624,-0.9624,-0.9624,-0.9624,-0.9624,-0.9624,-0.9624,-0.9624,-0.9624,-0.9624,-0.9624,-0.9632,-0.9644,-0.9766,-1.0034,-1.0031,-0.9885,-0.981,-0.9567,-0.9361,-0.8937,-0.8937,-0.8937,-2.425,-2.4444,-2.455,-2.455,-2.4464,-2.4454,-2.4292,-2.411,-2.3841,-2.359,-2.3426,-2.2979,-2.253,-2.2017,-2.1365,-2.0645,-1.992,-1.9279,-1.8635,-1.8241,-1.7849,-1.7816,-1.7765,-1.7911,-1.8086,-1.8211,-1.8262,-1.8218,-1.8277,-1.8269,-1.8262,-1.8313,-1.8203,-1.8233,-1.8306,-1.8482,-1.8694,-1.8862,-1.8906,-1.8731,-1.8499,-1.8247,-1.769,-1.7121,-1.6703,-1.6069,-1.5216,-1.4563,-1.401,-1.3539,-1.2856,-1.237,-1.198,-1.1492,-1.0998,-1.0314,-0.9924,-0.9727,-0.9723,-0.9624,-0.9624,-0.9624,-0.9624,-0.9624,-0.9624,-0.9624,-0.9624,-0.9624,-0.9624,-0.9624,-0.9624,-0.9624,-0.9624,-0.9624,-0.9624,-0.9624,-0.9624,-0.9624,-0.9624,-0.9624,-0.9624,-0.9624,-0.9624,-0.9624,-0.9624,-0.9624,-0.9624,-0.9624,-0.9624,-0.9624,-0.9624,-0.9624,-0.9624,-0.9624,-0.9624,-0.9624,-0.9624,-0.9624,-0.9624,-0.9624,-0.9624,-0.9624,-0.9624,-0.9673,-0.9746,-0.9981,-1.0286,-1.0126,-0.9888,-0.9734,-0.9588,-0.9265,-0.9047,-0.8937,-0.8937,-2.3836,-2.3991,-2.4002,-2.4105,-2.4291,-2.4467,-2.4454,-2.4282,-2.4024,-2.3937,-2.3764,-2.3319,-2.2891,-2.253,-2.1811,-2.1096,-2.0374,-1.9737,-1.9096,-1.8458,-1.7994,-1.7834,-1.7779,-1.7647,-1.7713,-1.7874,-1.7925,-1.783,-1.7947,-1.7925,-1.7896,-1.7874,-1.7918,-1.7925,-1.794,-1.8035,-1.8211,-1.8386,-1.8489,-1.8496,-1.8287,-1.8028,-1.7559,-1.6945,-1.6601,-1.58,-1.5013,-1.44,-1.3727,-1.3244,-1.2565,-1.2078,-1.1688,-1.11,-1.0511,-0.9924,-0.9727,-0.9628,-0.9624,-0.9624,-0.9624,-0.9624,-0.9624,-0.9624,-0.9624,-0.9624,-0.9624,-0.9624,-0.9624,-0.9624,-0.9624,-0.9624,-0.9624,-0.9624,-0.9624,-0.9624,-0.9624,-0.9624,-0.9624,-0.9624,-0.9624,-0.9624,-0.9624,-0.9624,-0.9624,-0.9624,-0.9624,-0.9624,-0.9624,-0.9624,-0.9624,-0.9624,-0.9624,-0.9624,-0.9624,-0.9624,-0.9624,-0.9624,-0.9624,-0.9624,-0.9624,-0.9648,-0.9669,-0.977,-0.9888,-1.0144,-1.04,-1.0074,-0.9832,-0.9673,-0.9485,-0.9158,-0.8937,-0.8937,-0.8937,-2.3405,-2.3215,-2.3194,-2.3474,-2.3857,-2.4271,-2.4372,-2.4413,-2.4262,-2.4196,-2.4024,-2.3484,-2.3232,-2.2882,-2.2246,-2.1633,-2.0916,-2.0374,-1.9646,-1.8912,-1.8365,-1.814,-1.7759,-1.7448,-1.7566,-1.7391,-1.7391,-1.753,-1.7406,-1.745,-1.7494,-1.7333,-1.7399,-1.7465,-1.753,-1.7677,-1.7816,-1.7882,-1.8021,-1.8086,-1.794,-1.769,-1.7361,-1.6665,-1.6143,-1.5458,-1.4694,-1.4016,-1.334,-1.2759,-1.2268,-1.1683,-1.0998,-1.0511,-1.0023,-0.9727,-0.9628,-0.9624,-0.9624,-0.9624,-0.9624,-0.9624,-0.9624,-0.9624,-0.9624,-0.9624,-0.9624,-0.9624,-0.9624,-0.9624,-0.9624,-0.9624,-0.9624,-0.9624,-0.9624,-0.9624,-0.9624,-0.9624,-0.9624,-0.9624,-0.9624,-0.9624,-0.9624,-0.9624,-0.9624,-0.9624,-0.9624,-0.9624,-0.9624,-0.9624,-0.9624,-0.9624,-0.9624,-0.9624,-0.9624,-0.9624,-0.9624,-0.9624,-0.9624,-0.9624,-0.9624,-0.9669,-0.9717,-0.988,-1.0059,-1.0237,-1.0337,-1.012,-0.9979,-0.979,-0.9485,-0.9047,-0.8937,-0.8937,-0.8937,-2.3181,-2.3416,-2.3265,-2.3267,-2.3412,-2.3846,-2.4033,-2.4064,-2.432,-2.4378,-2.4333,-2.4044,-2.358,-2.3047,-2.2872,-2.2255,-2.1463,-2.0907,-2.0283,-1.9554,-1.892,-1.8458,-1.7994,-1.7721,-1.7527,-1.7333,-1.7333,-1.7333,-1.7333,-1.7333,-1.7333,-1.7333,-1.7333,-1.7333,-1.7333,-1.7486,-1.7501,-1.7523,-1.7582,-1.775,-1.7772,-1.7384,-1.6928,-1.6494,-1.6109,-1.5445,-1.4682,-1.3913,-1.3335,-1.2754,-1.1878,-1.1096,-1.0314,-1.0117,-0.9924,-0.9628,-0.9624,-0.9624,-0.9624,-0.9624,-0.9624,-0.9624,-0.9624,-0.9624,-0.9624,-0.9624,-0.9624,-0.9624,-0.9624,-0.9624,-0.9624,-0.9624,-0.9624,-0.9624,-0.9624,-0.9624,-0.9624,-0.9624,-0.9624,-0.9624,-0.9624,-0.9624,-0.9624,-0.9624,-0.9624,-0.9624,-0.9624,-0.9624,-0.9624,-0.9624,-0.9624,-0.9624,-0.9624,-0.9624,-0.9624,-0.9624,-0.9624,-0.9624,-0.9624,-0.9624,-0.9632,-0.9721,-0.9823,-1.005,-1.0245,-1.0387,-1.0401,-1.0401,-1.0139,-0.9812,-0.9596,-0.9158,-0.8937,-0.8937,-0.8937,-2.2801,-2.2898,-2.2881,-2.2884,-2.2967,-2.3381,-2.3681,-2.3908,-2.4146,-2.4385,-2.4485,-2.4217,-2.3841,-2.3299,-2.3222,-2.2706,-2.1909,-2.1454,-2.0736,-2.011,-1.9471,-1.8912,-1.8458,-1.8001,-1.7721,-1.7527,-1.7333,-1.7333,-1.7333,-1.7333,-1.7333,-1.7333,-1.7333,-1.7333,-1.7333,-1.7333,-1.7333,-1.734,-1.7333,-1.7443,-1.7618,-1.7167,-1.6878,-1.6494,-1.6015,-1.535,-1.4682,-1.3913,-1.334,-1.2565,-1.1688,-1.09,-1.0314,-0.9924,-0.9723,-0.9624,-0.9624,-0.9624,-0.9624,-0.9624,-0.9624,-0.9624,-0.9624,-0.9624,-0.9624,-0.9624,-0.9624,-0.9624,-0.9624,-0.9624,-0.9624,-0.9624,-0.9624,-0.9624,-0.9624,-0.9624,-0.9624,-0.9624,-0.9624,-0.9624,-0.9624,-0.9624,-0.9624,-0.9624,-0.9624,-0.9624,-0.9624,-0.9624,-0.9624,-0.9624,-0.9624,-0.9624,-0.9624,-0.9624,-0.9624,-0.9624,-0.9624,-0.9624,-0.9624,-0.9685,-0.9734,-0.9823,-0.9945,-1.0176,-1.0359,-1.0469,-1.0478,-1.0453,-1.0147,-0.9812,-0.9596,-0.9272,-0.9047,-0.8937,-0.8937,-2.2328,-2.2069,-2.2299,-2.2408,-2.248,-2.2904,-2.3308,-2.366,-2.3836,-2.4095,-2.433,-2.4251,-2.3993,-2.3637,-2.3299,-2.2696,-2.2176,-2.1731,-2.1105,-2.0464,-1.9828,-1.9279,-1.8735,-1.8187,-1.7908,-1.7628,-1.7527,-1.7333,-1.7333,-1.7333,-1.7333,-1.7333,-1.7333,-1.7333,-1.7333,-1.7333,-1.7333,-1.7333,-1.7333,-1.7333,-1.7254,-1.7066,-1.6871,-1.6393,-1.592,-1.5255,-1.4592,-1.4016,-1.3346,-1.2565,-1.1688,-1.0904,-1.0413,-1.0023,-0.9727,-0.9628,-0.9624,-0.9624,-0.9624,-0.9624,-0.9624,-0.9624,-0.9624,-0.9624,-0.9624,-0.9624,-0.9624,-0.9624,-0.9624,-0.9624,-0.9624,-0.9624,-0.9624,-0.9624,-0.9624,-0.9624,-0.9624,-0.9624,-0.9624,-0.9624,-0.9624,-0.9624,-0.9624,-0.9624,-0.9624,-0.9624,-0.9624,-0.9624,-0.9624,-0.9624,-0.9624,-0.9624,-0.9624,-0.9624,-0.9624,-0.9624,-0.9624,-0.9624,-0.964,-0.9738,-0.9835,-0.9929,-1.0079,-1.0314,-1.0473,-1.0566,-1.0619,-1.057,-1.0253,-0.9923,-0.9706,-0.9489,-0.9047,-0.8937,-0.8937,-2.1632,-2.1576,-2.1811,-2.1942,-2.2014,-2.2428,-2.2687,-2.2884,-2.3567,-2.3939,-2.4011,-2.4149,-2.4024,-2.3744,-2.3744,-2.3232,-2.2353,-2.1909,-2.1454,-2.0817,-2.0019,-1.9471,-1.9012,-1.8465,-1.8102,-1.7822,-1.7628,-1.7527,-1.7426,-1.7333,-1.7333,-1.7333,-1.7333,-1.7333,-1.7333,-1.7333,-1.7333,-1.7333,-1.7333,-1.7326,-1.7145,-1.7059,-1.6777,-1.6407,-1.6035,-1.5369,-1.479,-1.4106,-1.3528,-1.2662,-1.1785,-1.11,-1.0609,-1.0216,-0.9821,-0.9624,-0.9624,-0.9624,-0.9624,-0.9624,-0.9624,-0.9624,-0.9624,-0.9624,-0.9624,-0.9624,-0.9624,-0.9624,-0.9624,-0.9624,-0.9624,-0.9624,-0.9624,-0.9624,-0.9624,-0.9624,-0.9624,-0.9624,-0.9624,-0.9624,-0.9624,-0.9624,-0.9624,-0.9624,-0.9624,-0.9624,-0.9624,-0.9624,-0.9624,-0.9624,-0.9624,-0.9624,-0.9624,-0.9624,-0.9624,-0.9624,-0.9624,-0.9624,-0.9669,-0.9786,-0.9908,-1.0034,-1.0209,-1.0436,-1.0558,-1.0647,-1.0688,-1.0582,-1.0253,-0.9926,-0.9816,-0.9596,-0.9158,-0.8947,-0.8954]},{"header":{"parameterUnit":"m.s-1","parameterCategory":1,"la1":31.0,"la2":29.5877,"lo1":-88.7671,"lo2":-86.6584,"dy":0.0162,"dx":0.0185,"nx":115,"ny":88,"refTime":"2024-05-14T06:00:00:Z","depth":0,"parameterNumber":3,"parameterNumberName":"V-component_of_WINDS"},"data":[0.0,0.0,0.0,0.0,0.0,0.0,0.0,0.0,0.0,0.0,0.0,0.0,0.0,0.0,0.0,0.0,0.0,0.0,0.0,0.0,0.0,0.0,0.0,0.0,0.0,0.0,0.0,0.0,0.0,0.0,0.0,0.0,0.0,0.0,0.0,0.0,0.0,0.0,0.0,0.0,0.0,0.0,0.0,0.0,0.0,0.0,0.0,0.0,0.0,0.0,0.0,0.0,0.0,0.0,0.0,0.0,0.0,0.0,0.0,0.0,0.0,0.0,0.0,0.0,0.0,0.0,0.0,0.0,0.0,0.0,0.0,0.0,0.0,0.0,0.0,0.0,0.0,0.0,0.0,0.0,0.0,0.0,0.0,0.0,0.0,0.0,0.0,0.0,0.0,0.0,0.0,0.0,0.0,0.0,0.0,0.0,0.0,0.0,0.0,0.0,0.0,0.0,0.0,0.0,0.0,0.0,0.0,0.0,0.0,0.0,0.0,0.0,0.0,0.0,0.0,0.0,0.0,0.0,0.0,0.0,0.0,0.0,0.0,0.0,0.0,0.0,0.0,0.0,0.0,0.0,0.0,0.0,0.0,0.0,0.0,0.0,0.0,0.0,0.0,0.0,0.0,0.0,0.0,0.0,0.0,0.0,0.0,0.0,0.0,0.0,0.0,0.0,0.0,0.0,0.0,0.0,0.0,0.0,0.0,0.0,0.0,0.0,0.0,0.0,0.0,0.0,0.0,0.0,0.0,0.0,0.0,0.0,0.0,0.0,0.0,0.0,0.0,0.0,0.0,0.0,0.0,0.0,0.0,0.0,0.0,0.0,0.0,0.0,0.0,0.0,0.0,0.0,0.0,0.0,0.0,0.0,0.0,0.0,0.0,0.0,0.0,0.0,0.0,0.0,0.0,0.0,0.0,0.0,0.0,0.0,0.0,0.0,0.0,0.0,0.0,0.0,0.0,0.0,0.0,0.0,0.0,0.0,0.0,0.0,0.0,0.0,0.0,0.0,0.0,0.0,0.0,0.0,0.0,0.0,0.0,0.0,0.0,0.0,0.0,0.0,0.0,0.0,0.0,0.0,0.0,0.0,0.0,0.0,0.0,0.0,0.0,0.0,0.0,0.0,0.0,0.0,0.0,0.0,0.0,0.0,0.0,0.0,0.0,0.0,0.0,0.0,0.0,0.0,0.0,0.0,0.0,0.0,0.0,0.0,0.0,0.0,0.0,0.0,0.0,0.0,0.0,0.0,0.0,0.0,0.0,0.0,0.0,0.0,0.0,0.0,0.0,0.0,0.0,0.0,0.0,0.0,0.0,0.0,0.0,0.0,0.0,0.0,0.0,0.0,0.0,0.0,0.0,0.0,0.0,0.0,0.0,0.0,0.0,0.0,0.0,0.0,0.0,0.0,0.0,0.0,0.0,0.0,0.0,0.0,0.0,0.0,0.0,0.0,0.0,0.0,0.0,0.0,0.0,0.0,0.0,0.0,0.0,0.0,0.0,0.0,0.0,0.0,0.0,0.0,0.0,0.0,0.0,0.0,0.0,0.0,0.0,0.0,0.0,0.0,0.0,0.0,0.0,0.0,0.0,0.0,0.0,0.0,0.0,0.0,0.0,0.0,0.0,0.0,0.0,0.0,0.0,0.0,0.0,0.0,0.0,0.0,0.0,0.0,0.0,0.0,0.0,0.0,0.0,0.0,0.0,0.0,0.0,0.0,0.0,0.0,0.0,0.0,0.0,0.0,0.0,0.0,0.0,0.0,0.0,0.0,0.0,0.0,0.0,0.0,0.0,0.0,0.0,0.0,0.0,0.0,0.0,0.0,0.0,0.0,0.0,0.0,0.0,0.0,0.0,0.0,0.0,0.0,0.0,0.0,0.0,0.0,0.0,0.0,0.0,0.0,0.0,0.0,0.0,0.0,0.0,0.0,0.0,0.0,0.0,0.0,0.0,0.0,0.0,0.0,0.0,0.0,0.0,0.0,0.0,0.0,0.0,0.0,0.0,0.0,0.0,0.0,0.0,0.0,0.0,0.0,0.0,0.0,0.0,0.0,0.0,0.0,0.0,0.0,0.0,0.0,0.0,0.0,0.0,0.0,0.0,0.0,0.0,0.0,0.0,0.0,0.0,0.0,0.0,0.0,0.0,0.0,0.0,0.0,0.0,0.0,0.0,0.0,0.0,0.0,0.0,0.0,0.0,0.0,0.0,0.0,0.0,0.0,0.0,0.0,0.0,0.0,0.0,0.0,0.0,0.0,0.0,0.0,0.0,0.0,0.0,0.0,0.0,0.0,0.0,0.0,0.0,0.0,0.0,0.0,0.0,0.0,0.0,0.0,0.0,0.0,0.0,0.0,0.0,0.0,0.0,0.0,0.0,0.0,0.0,0.0,0.0,0.0,0.0,0.0,0.0,0.0,0.0,0.0,0.0,0.0,0.0,0.0,0.0,0.0,0.0,0.0,0.0,0.0,0.0,0.0,0.0,0.0,0.0,0.0,0.0,0.0,0.0,0.0,0.0,0.0,0.0,0.0,0.0,0.0,0.0,0.0,0.0,0.0,0.0,0.0,0.0,0.0,0.0,0.0,0.0,0.0,0.0,0.0,0.0,0.0,0.0,0.0,0.0,0.0,0.0,0.0,0.0,0.0,0.0,0.0,0.0,0.0,0.0,0.0,0.0,0.0,0.0,0.0,0.0,0.0,0.0,0.0,0.0,0.0,0.0,0.0,0.0,0.0,0.0,0.0,0.0,0.0,0.0,0.0,0.0,0.0,0.0,0.0,0.0,0.0,0.0,0.0,0.0,0.0,0.0,0.0,0.0,0.0,0.0,0.0,0.0,0.0,0.0,0.0,0.0,0.0,0.0,0.0,0.0,0.0,0.0,0.0,0.0,0.0,0.0,0.0,0.0,0.0,0.0,0.0,0.0,0.0,0.0,0.0,0.0,0.0,0.0,0.0,0.0,0.0,0.0,0.0,0.0,0.0,0.0,0.0,0.0,0.0,0.0,0.0,0.0,0.0,0.0,0.0,0.0,0.0,0.0,0.0,0.0,0.0,0.0,0.0,0.0,0.0,0.0,0.0,0.0,0.0,0.0,0.0,0.0,0.0,0.0,0.0,0.0,0.0,0.0,0.0,0.0,0.0,0.0,0.0,0.0,0.0,0.0,0.0,0.0,0.0,0.0,0.0,0.0,0.0,0.0,0.0,0.0,0.0,0.0,0.0,0.0,0.0,0.0,0.0,0.0,0.0,0.0,0.0,0.0,0.0,0.0,0.0,0.0,0.0,0.0,0.0,0.0,0.0,0.0,0.0,0.0,0.0,0.0,0.0,0.0,0.0,0.0,0.0,0.0,0.0,0.0,0.0,0.0,0.0,0.0,0.0,0.0,0.0,0.0,0.0,0.0,0.0,0.0,0.0,0.0,0.0,0.0,0.0,0.0,0.0,0.0,0.0,0.0,0.0,0.0,0.0,0.0,0.0,0.0,0.0,0.0,0.0,0.0,0.0,0.0,0.0,0.0,0.0,0.0,0.0,0.0,0.0,0.0,0.0,0.0,0.0,0.0,0.0,0.0,0.0,0.0,0.0,0.0,0.0,0.0,0.0,0.0,0.0,0.0,0.0,0.0,0.0,0.0,0.0,0.0,0.0,0.0,0.0,0.0,0.0,0.0,0.0,0.0,0.0,0.0,0.0,0.0,0.0,0.0,0.0,0.0,0.0,0.0,0.0,0.0,0.0,0.0,0.0,0.0,0.0,0.0,0.0,0.0,0.0,0.0,0.0,0.0,0.0,0.0,0.0,0.0,0.0,0.0,0.0,0.0,0.0,0.0,0.0,0.0,0.0,0.0,0.0,0.0,0.0,0.0,0.0,0.0,0.0,0.0,0.0,0.0,0.0,0.0,0.0,0.0,0.0,0.0,0.0,0.0,0.0,0.0,0.0,0.0,0.0,0.0,0.0,0.0,0.0,0.0,0.0,0.0,0.0,0.0,0.0,0.0,0.0,0.0,0.0,0.0,0.0,0.0,0.0,0.0,0.0,0.0,0.0,0.0,0.0,0.0,0.0,0.0,0.0,0.0,0.0,0.0,0.0,0.0,0.0,0.0,0.0,0.0,0.0,0.0,0.0,0.0,0.0,0.0,0.0,0.0,0.0,0.0,0.0,0.0,0.0,0.0,0.0,0.0,0.0,0.0,0.0,0.0,0.0,0.0,0.0,0.0,0.0,0.0,0.0,0.0,0.0,0.0,0.0,0.0,0.0,0.0,0.0,0.0,0.0,-1.3873,0.0,0.0,0.0,0.0,0.0,0.0,0.0,0.0,0.0,0.0,0.0,0.0,0.0,0.0,0.0,0.0,0.0,0.0,0.0,0.0,0.0,0.0,0.0,0.0,0.0,0.0,0.0,0.0,0.0,0.0,0.0,0.0,0.0,0.0,0.0,0.0,0.0,0.0,0.0,0.0,0.0,0.0,0.0,0.0,0.0,0.0,0.0,0.0,0.0,0.0,0.0,0.0,0.0,0.0,0.0,0.0,0.0,0.0,0.0,0.0,0.0,0.0,0.0,0.0,0.0,0.0,0.0,0.0,0.0,0.0,0.0,0.0,0.0,0.0,0.0,0.0,0.0,0.0,0.0,0.0,0.0,0.0,0.0,0.0,0.0,0.0,0.0,0.0,0.0,0.0,0.0,0.0,0.0,0.0,0.0,0.0,0.0,0.0,0.0,0.0,0.0,0.0,0.0,0.0,0.0,0.0,0.0,0.0,0.0,0.0,-1.4389,-1.442,-1.4436,-1.4515,-1.4594,0.0,0.0,0.0,0.0,0.0,0.0,0.0,0.0,0.0,0.0,0.0,0.0,0.0,0.0,0.0,0.0,0.0,0.0,0.0,0.0,0.0,0.0,0.0,0.0,0.0,0.0,0.0,0.0,0.0,0.0,0.0,0.0,0.0,0.0,0.0,0.0,0.0,0.0,0.0,0.0,0.0,0.0,0.0,0.0,0.0,0.0,0.0,0.0,0.0,0.0,0.0,0.0,0.0,0.0,0.0,0.0,0.0,0.0,0.0,0.0,0.0,0.0,0.0,0.0,0.0,0.0,0.0,0.0,0.0,0.0,0.0,0.0,0.0,0.0,0.0,0.0,0.0,0.0,0.0,0.0,0.0,0.0,0.0,0.0,0.0,0.0,0.0,0.0,0.0,0.0,0.0,0.0,0.0,0.0,0.0,0.0,0.0,0.0,0.0,0.0,0.0,0.0,0.0,0.0,0.0,0.0,0.0,0.0,0.0,0.0,0.0,0.0,-1.5388,-1.5365,-1.5228,0.0,0.0,0.0,0.0,0.0,0.0,0.0,0.0,0.0,0.0,0.0,0.0,0.0,0.0,0.0,0.0,0.0,0.0,0.0,0.0,0.0,0.0,0.0,0.0,0.0,0.0,0.0,0.0,0.0,0.0,0.0,0.0,0.0,0.0,0.0,0.0,0.0,0.0,0.0,0.0,0.0,0.0,0.0,0.0,0.0,0.0,0.0,0.0,0.0,0.0,0.0,0.0,0.0,0.0,0.0,0.0,0.0,0.0,0.0,0.0,0.0,0.0,0.0,0.0,0.0,0.0,0.0,0.0,0.0,0.0,0.0,0.0,0.0,0.0,0.0,0.0,0.0,0.0,0.0,0.0,0.0,0.0,0.0,0.0,0.0,0.0,0.0,0.0,0.0,0.0,0.0,0.0,0.0,0.0,0.0,0.0,0.0,0.0,0.0,0.0,0.0,0.0,0.0,0.0,0.0,0.0,0.0,0.0,0.0,0.0,-1.5538,-1.626,-1.6335,0.0,-1.5429,0.0,0.0,0.0,0.0,0.0,0.0,0.0,0.0,0.0,0.0,0.0,0.0,0.0,0.0,0.0,0.0,0.0,0.0,0.0,0.0,0.0,0.0,0.0,0.0,0.0,0.0,0.0,0.0,0.0,0.0,0.0,0.0,0.0,0.0,0.0,0.0,0.0,0.0,0.0,0.0,0.0,0.0,0.0,0.0,0.0,0.0,0.0,0.0,0.0,0.0,0.0,0.0,0.0,0.0,0.0,0.0,0.0,0.0,0.0,0.0,0.0,0.0,0.0,0.0,0.0,0.0,0.0,0.0,0.0,0.0,0.0,0.0,0.0,0.0,0.0,0.0,0.0,0.0,0.0,0.0,0.0,0.0,0.0,0.0,0.0,0.0,0.0,0.0,0.0,0.0,0.0,0.0,0.0,0.0,0.0,0.0,0.0,0.0,0.0,0.0,0.0,0.0,0.0,0.0,0.0,0.0,0.0,0.0,0.0,0.0,-1.6868,-1.7207,-1.7343,-1.6808,0.0,0.0,0.0,0.0,0.0,0.0,0.0,0.0,0.0,0.0,0.0,0.0,0.0,0.0,0.0,0.0,0.0,0.0,0.0,0.0,0.0,0.0,0.0,0.0,0.0,0.0,0.0,0.0,0.0,0.0,0.0,0.0,0.0,0.0,0.0,0.0,0.0,0.0,0.0,0.0,0.0,0.0,0.0,0.0,0.0,0.0,0.0,0.0,0.0,0.0,0.0,0.0,0.0,0.0,0.0,0.0,0.0,0.0,0.0,0.0,0.0,0.0,0.0,0.0,0.0,0.0,0.0,0.0,0.0,0.0,0.0,0.0,0.0,0.0,0.0,0.0,0.0,0.0,0.0,0.0,0.0,0.0,0.0,0.0,0.0,0.0,0.0,0.0,0.0,0.0,0.0,0.0,0.0,0.0,0.0,0.0,0.0,0.0,0.0,0.0,0.0,0.0,0.0,0.0,0.0,0.0,0.0,0.0,0.0,0.0,-1.7149,-1.7898,-1.8193,-1.834,-1.7632,-1.6041,0.0,0.0,0.0,0.0,0.0,0.0,0.0,0.0,0.0,0.0,0.0,0.0,0.0,0.0,0.0,0.0,0.0,0.0,0.0,0.0,0.0,0.0,0.0,0.0,0.0,0.0,0.0,0.0,0.0,0.0,0.0,0.0,0.0,0.0,0.0,0.0,0.0,0.0,0.0,0.0,0.0,0.0,0.0,0.0,0.0,0.0,0.0,0.0,0.0,0.0,0.0,0.0,0.0,0.0,0.0,0.0,0.0,0.0,0.0,0.0,0.0,0.0,0.0,0.0,0.0,0.0,0.0,0.0,0.0,0.0,0.0,0.0,0.0,0.0,0.0,0.0,0.0,0.0,0.0,0.0,0.0,0.0,0.0,0.0,0.0,0.0,0.0,0.0,0.0,0.0,0.0,0.0,0.0,0.0,0.0,0.0,0.0,0.0,0.0,0.0,0.0,0.0,0.0,0.0,0.0,0.0,0.0,0.0,-1.7599,-1.7853,-1.8343,-1.9201,-1.9301,-1.8577,0.0,0.0,0.0,0.0,0.0,0.0,0.0,0.0,0.0,0.0,0.0,0.0,0.0,0.0,0.0,0.0,0.0,0.0,0.0,0.0,0.0,0.0,0.0,0.0,0.0,0.0,0.0,0.0,0.0,0.0,0.0,0.0,0.0,0.0,0.0,0.0,0.0,0.0,0.0,0.0,0.0,0.0,0.0,0.0,0.0,0.0,0.0,0.0,0.0,0.0,0.0,0.0,0.0,0.0,0.0,0.0,0.0,0.0,0.0,0.0,0.0,0.0,0.0,0.0,0.0,0.0,0.0,0.0,0.0,0.0,0.0,0.0,0.0,0.0,0.0,0.0,0.0,0.0,0.0,0.0,0.0,0.0,0.0,0.0,0.0,0.0,0.0,0.0,0.0,0.0,0.0,0.0,0.0,0.0,0.0,0.0,0.0,0.0,0.0,0.0,0.0,0.0,0.0,0.0,0.0,0.0,0.0,0.0,0.0,-1.791,-1.9052,-1.9787,-2.0126,-2.024,-1.9569,0.0,0.0,0.0,0.0,0.0,0.0,0.0,0.0,0.0,0.0,0.0,0.0,0.0,0.0,0.0,0.0,0.0,0.0,0.0,0.0,0.0,0.0,0.0,0.0,0.0,0.0,0.0,0.0,0.0,0.0,0.0,0.0,0.0,0.0,0.0,0.0,0.0,0.0,0.0,0.0,0.0,0.0,0.0,0.0,0.0,0.0,0.0,0.0,0.0,0.0,0.0,0.0,0.0,0.0,0.0,0.0,0.0,0.0,0.0,0.0,0.0,0.0,0.0,0.0,0.0,0.0,0.0,0.0,0.0,0.0,0.0,0.0,0.0,0.0,0.0,0.0,0.0,0.0,0.0,0.0,0.0,0.0,0.0,0.0,0.0,0.0,0.0,0.0,0.0,0.0,0.0,0.0,0.0,0.0,0.0,0.0,0.0,0.0,0.0,0.0,0.0,0.0,0.0,0.0,0.0,0.0,0.0,0.0,0.0,-1.8736,0.0,-2.0941,-2.0988,-2.0856,-2.0192,0.0,0.0,0.0,0.0,0.0,0.0,0.0,0.0,0.0,0.0,0.0,0.0,0.0,0.0,0.0,0.0,0.0,0.0,0.0,0.0,0.0,0.0,0.0,0.0,0.0,0.0,0.0,0.0,0.0,0.0,0.0,0.0,0.0,0.0,0.0,0.0,0.0,0.0,0.0,0.0,0.0,0.0,0.0,0.0,0.0,0.0,0.0,0.0,0.0,0.0,0.0,0.0,0.0,0.0,0.0,0.0,0.0,0.0,0.0,0.0,0.0,0.0,0.0,0.0,0.0,0.0,0.0,0.0,0.0,0.0,0.0,0.0,0.0,0.0,0.0,0.0,0.0,0.0,0.0,0.0,0.0,0.0,0.0,0.0,0.0,0.0,0.0,0.0,0.0,0.0,0.0,0.0,0.0,0.0,0.0,0.0,0.0,0.0,0.0,0.0,0.0,0.0,0.0,0.0,0.0,0.0,0.0,0.0,-1.8863,-2.028,-2.1225,-2.177,-2.1799,-2.1275,-2.0532,0.0,0.0,0.0,0.0,0.0,0.0,0.0,0.0,0.0,0.0,0.0,0.0,0.0,0.0,0.0,0.0,0.0,0.0,0.0,0.0,0.0,0.0,0.0,0.0,0.0,0.0,0.0,0.0,0.0,0.0,0.0,0.0,0.0,0.0,0.0,0.0,0.0,0.0,0.0,0.0,0.0,0.0,0.0,0.0,0.0,0.0,0.0,0.0,0.0,0.0,0.0,0.0,0.0,0.0,0.0,0.0,0.0,0.0,0.0,0.0,0.0,0.0,0.0,0.0,0.0,0.0,0.0,0.0,0.0,0.0,0.0,0.0,0.0,0.0,0.0,0.0,0.0,0.0,0.0,0.0,0.0,0.0,0.0,0.0,0.0,0.0,0.0,0.0,0.0,0.0,0.0,0.0,0.0,0.0,0.0,0.0,0.0,0.0,0.0,0.0,0.0,0.0,0.0,0.0,0.0,0.0,0.0,0.0,0.0,-2.2788,-2.3668,-2.3968,-2.3529,-2.341,-2.2492,0.0,0.0,0.0,0.0,0.0,0.0,0.0,0.0,0.0,0.0,0.0,0.0,0.0,0.0,0.0,0.0,0.0,0.0,0.0,0.0,0.0,0.0,0.0,0.0,0.0,0.0,0.0,0.0,0.0,0.0,0.0,0.0,0.0,0.0,0.0,0.0,0.0,0.0,0.0,0.0,0.0,0.0,0.0,0.0,0.0,0.0,0.0,0.0,0.0,0.0,0.0,0.0,0.0,0.0,0.0,0.0,0.0,0.0,0.0,0.0,0.0,0.0,0.0,0.0,0.0,0.0,0.0,0.0,0.0,0.0,0.0,0.0,0.0,0.0,0.0,0.0,0.0,0.0,0.0,0.0,0.0,0.0,0.0,0.0,0.0,0.0,0.0,0.0,0.0,0.0,0.0,0.0,0.0,0.0,0.0,0.0,0.0,0.0,0.0,0.0,0.0,0.0,0.0,0.0,0.0,0.0,0.0,0.0,0.0,-2.6082,-2.635,-2.6206,-2.5546,-2.5116,-2.3955,-2.2053,0.0,0.0,0.0,0.0,0.0,0.0,0.0,0.0,0.0,0.0,0.0,0.0,0.0,0.0,0.0,0.0,0.0,0.0,0.0,0.0,0.0,0.0,0.0,0.0,0.0,0.0,0.0,0.0,0.0,0.0,0.0,0.0,0.0,0.0,0.0,0.0,0.0,0.0,0.0,0.0,0.0,0.0,0.0,0.0,0.0,0.0,0.0,0.0,0.0,0.0,0.0,0.0,0.0,0.0,0.0,0.0,0.0,0.0,0.0,0.0,0.0,0.0,0.0,0.0,0.0,0.0,0.0,0.0,0.0,0.0,0.0,0.0,0.0,0.0,0.0,0.0,0.0,0.0,0.0,0.0,0.0,0.0,0.0,0.0,0.0,0.0,0.0,0.0,0.0,0.0,0.0,0.0,0.0,0.0,0.0,0.0,0.0,0.0,0.0,0.0,0.0,0.0,0.0,0.0,0.0,0.0,0.0,0.0,-2.9873,-2.9285,-2.8565,-2.7796,-2.6452,-2.5002,0.0,0.0,0.0,0.0,0.0,0.0,0.0,0.0,0.0,0.0,0.0,0.0,0.0,0.0,0.0,0.0,0.0,0.0,0.0,0.0,0.0,0.0,0.0,0.0,0.0,0.0,0.0,0.0,0.0,0.0,0.0,0.0,0.0,0.0,0.0,0.0,0.0,0.0,0.0,0.0,0.0,0.0,0.0,0.0,0.0,0.0,0.0,0.0,0.0,0.0,0.0,0.0,0.0,0.0,0.0,0.0,0.0,0.0,0.0,0.0,0.0,0.0,0.0,0.0,0.0,0.0,0.0,0.0,0.0,0.0,0.0,0.0,0.0,0.0,0.0,0.0,0.0,0.0,0.0,0.0,0.0,0.0,0.0,0.0,0.0,0.0,0.0,0.0,0.0,0.0,0.0,0.0,0.0,0.0,0.0,0.0,0.0,0.0,0.0,0.0,0.0,0.0,0.0,0.0,0.0,0.0,0.0,0.0,0.0,-3.2296,-3.2744,-3.2032,-3.0176,-2.8699,-2.6796,0.0,0.0,0.0,0.0,0.0,0.0,0.0,0.0,0.0,0.0,0.0,0.0,0.0,0.0,0.0,0.0,0.0,0.0,0.0,0.0,0.0,0.0,0.0,0.0,0.0,0.0,0.0,0.0,0.0,0.0,0.0,0.0,0.0,0.0,0.0,0.0,0.0,0.0,0.0,0.0,0.0,0.0,0.0,0.0,0.0,0.0,0.0,0.0,0.0,0.0,0.0,0.0,0.0,0.0,0.0,0.0,0.0,0.0,0.0,0.0,0.0,0.0,0.0,0.0,0.0,0.0,0.0,0.0,0.0,0.0,0.0,0.0,0.0,0.0,0.0,0.0,0.0,0.0,0.0,0.0,0.0,0.0,0.0,0.0,0.0,0.0,0.0,0.0,0.0,0.0,0.0,0.0,0.0,0.0,0.0,0.0,0.0,0.0,0.0,0.0,0.0,0.0,0.0,0.0,0.0,0.0,0.0,0.0,-3.1269,-3.3916,-3.4987,-3.472,-3.3089,-3.102,-2.8569,0.0,0.0,0.0,0.0,0.0,0.0,0.0,0.0,0.0,0.0,0.0,0.0,0.0,0.0,0.0,0.0,0.0,0.0,0.0,0.0,0.0,0.0,0.0,0.0,0.0,0.0,0.0,0.0,0.0,0.0,0.0,0.0,0.0,0.0,0.0,0.0,0.0,0.0,0.0,0.0,0.0,0.0,0.0,0.0,0.0,0.0,0.0,0.0,0.0,0.0,0.0,0.0,0.0,0.0,0.0,0.0,0.0,0.0,0.0,0.0,0.0,0.0,0.0,0.0,0.0,0.0,0.0,0.0,0.0,0.0,0.0,0.0,0.0,0.0,0.0,0.0,0.0,0.0,0.0,0.0,0.0,0.0,0.0,0.0,0.0,0.0,0.0,0.0,0.0,0.0,0.0,0.0,0.0,0.0,0.0,0.0,0.0,0.0,0.0,0.0,0.0,0.0,0.0,0.0,0.0,0.0,0.0,0.0,-3.2658,-3.494,-3.6212,-3.6549,-3.5915,-3.3075,-3.0172,0.0,0.0,0.0,0.0,0.0,0.0,0.0,0.0,0.0,0.0,0.0,0.0,0.0,0.0,0.0,0.0,0.0,0.0,0.0,0.0,0.0,0.0,0.0,0.0,0.0,0.0,0.0,0.0,0.0,0.0,0.0,0.0,0.0,0.0,0.0,0.0,0.0,0.0,0.0,0.0,0.0,0.0,0.0,0.0,0.0,0.0,0.0,0.0,0.0,0.0,0.0,0.0,0.0,0.0,0.0,0.0,0.0,0.0,0.0,0.0,0.0,0.0,0.0,0.0,0.0,0.0,0.0,0.0,0.0,0.0,0.0,0.0,0.0,0.0,0.0,0.0,0.0,0.0,0.0,0.0,0.0,0.0,0.0,0.0,0.0,0.0,0.0,0.0,0.0,0.0,0.0,0.0,0.0,0.0,0.0,0.0,0.0,0.0,0.0,0.0,0.0,0.0,0.0,0.0,0.0,0.0,0.0,0.0,-3.3148,-3.6039,-3.6305,-3.6415,-3.6362,-3.3695,-3.0919,0.0,0.0,0.0,0.0,0.0,0.0,0.0,0.0,0.0,0.0,0.0,0.0,0.0,0.0,0.0,0.0,0.0,0.0,0.0,0.0,0.0,0.0,0.0,0.0,0.0,0.0,0.0,0.0,0.0,0.0,0.0,0.0,0.0,0.0,0.0,0.0,0.0,0.0,0.0,0.0,0.0,0.0,0.0,0.0,0.0,0.0,0.0,0.0,-2.2838,0.0,0.0,0.0,0.0,0.0,0.0,0.0,0.0,0.0,0.0,0.0,0.0,0.0,0.0,0.0,0.0,0.0,0.0,0.0,0.0,0.0,0.0,0.0,0.0,0.0,0.0,0.0,0.0,0.0,0.0,0.0,0.0,0.0,0.0,0.0,0.0,0.0,0.0,0.0,0.0,0.0,0.0,0.0,0.0,0.0,0.0,0.0,0.0,0.0,0.0,0.0,0.0,0.0,0.0,0.0,0.0,0.0,0.0,0.0,-3.3705,-3.6031,-3.6445,-3.6419,-3.6017,-3.4035,-3.1696,0.0,0.0,0.0,0.0,0.0,0.0,0.0,0.0,0.0,0.0,0.0,0.0,0.0,0.0,0.0,0.0,0.0,0.0,0.0,0.0,0.0,0.0,0.0,0.0,0.0,0.0,0.0,0.0,0.0,0.0,0.0,0.0,0.0,0.0,0.0,0.0,0.0,0.0,0.0,0.0,0.0,0.0,0.0,0.0,0.0,0.0,0.0,0.0,0.0,0.0,0.0,0.0,0.0,0.0,0.0,0.0,0.0,0.0,0.0,0.0,0.0,0.0,0.0,0.0,0.0,0.0,0.0,0.0,0.0,0.0,0.0,0.0,0.0,0.0,0.0,0.0,0.0,0.0,0.0,0.0,0.0,0.0,0.0,0.0,0.0,0.0,0.0,0.0,0.0,0.0,0.0,0.0,0.0,0.0,0.0,0.0,0.0,0.0,0.0,0.0,0.0,0.0,0.0,0.0,0.0,0.0,0.0,-3.2222,-3.4193,-3.5721,-3.6429,-3.6368,-3.5521,-3.3893,-3.1956,-2.9646,0.0,0.0,0.0,0.0,0.0,0.0,0.0,0.0,0.0,0.0,0.0,0.0,0.0,0.0,0.0,0.0,0.0,0.0,0.0,0.0,0.0,0.0,0.0,0.0,0.0,0.0,0.0,0.0,0.0,0.0,0.0,0.0,0.0,0.0,0.0,0.0,0.0,0.0,-2.224,-2.304,0.0,0.0,0.0,0.0,0.0,0.0,0.0,0.0,-2.5537,0.0,0.0,0.0,0.0,0.0,0.0,0.0,0.0,0.0,0.0,0.0,0.0,0.0,0.0,0.0,0.0,0.0,0.0,0.0,0.0,0.0,0.0,0.0,0.0,0.0,0.0,0.0,0.0,0.0,0.0,0.0,0.0,0.0,0.0,0.0,0.0,0.0,0.0,0.0,0.0,0.0,0.0,0.0,0.0,0.0,0.0,0.0,0.0,0.0,0.0,0.0,0.0,0.0,0.0,0.0,0.0,-2.9931,-3.2386,-3.4453,-3.606,-3.6125,-3.5788,-3.5002,-3.2785,-3.0498,-2.8241,0.0,0.0,0.0,0.0,0.0,0.0,0.0,0.0,0.0,0.0,0.0,0.0,0.0,0.0,0.0,0.0,0.0,0.0,0.0,0.0,0.0,0.0,0.0,0.0,0.0,0.0,0.0,0.0,0.0,0.0,0.0,0.0,0.0,0.0,0.0,0.0,0.0,0.0,0.0,-2.5195,-2.579,0.0,0.0,0.0,0.0,0.0,0.0,0.0,0.0,-2.7519,0.0,0.0,0.0,0.0,0.0,0.0,0.0,0.0,0.0,0.0,0.0,0.0,0.0,0.0,0.0,0.0,0.0,0.0,0.0,0.0,0.0,0.0,0.0,0.0,0.0,0.0,0.0,0.0,0.0,0.0,0.0,0.0,0.0,0.0,0.0,0.0,0.0,0.0,0.0,0.0,0.0,0.0,0.0,0.0,0.0,0.0,0.0,0.0,0.0,0.0,0.0,0.0,0.0,0.0,0.0,-2.9415,-3.1516,-3.3388,-3.5026,-3.5032,-3.4857,-3.4461,-3.2086,-2.9879,0.0,0.0,0.0,0.0,0.0,0.0,0.0,0.0,0.0,0.0,0.0,0.0,0.0,0.0,0.0,0.0,0.0,0.0,0.0,0.0,0.0,0.0,0.0,0.0,0.0,0.0,0.0,0.0,0.0,0.0,0.0,0.0,0.0,0.0,0.0,0.0,0.0,0.0,0.0,0.0,-2.6795,-2.8,-2.887,0.0,0.0,0.0,0.0,0.0,0.0,-2.8667,-2.8769,0.0,0.0,0.0,0.0,0.0,0.0,0.0,0.0,0.0,0.0,0.0,0.0,0.0,0.0,0.0,0.0,0.0,0.0,0.0,0.0,0.0,0.0,0.0,0.0,0.0,0.0,0.0,0.0,0.0,0.0,0.0,0.0,0.0,0.0,0.0,0.0,0.0,0.0,0.0,0.0,0.0,0.0,0.0,0.0,0.0,0.0,0.0,0.0,0.0,0.0,0.0,0.0,0.0,0.0,0.0,-2.896,-3.0682,-3.239,-3.4024,-3.4134,-3.3955,-3.3602,-3.1367,-2.9253,0.0,0.0,0.0,0.0,0.0,0.0,0.0,0.0,0.0,0.0,0.0,0.0,0.0,0.0,0.0,0.0,0.0,0.0,0.0,0.0,0.0,0.0,0.0,0.0,0.0,0.0,0.0,0.0,0.0,0.0,0.0,0.0,0.0,0.0,0.0,0.0,0.0,0.0,0.0,0.0,0.0,-2.9917,-3.0314,-3.0326,0.0,0.0,0.0,0.0,-3.0021,-3.0192,0.0,0.0,0.0,0.0,0.0,0.0,0.0,0.0,0.0,0.0,0.0,0.0,0.0,0.0,0.0,0.0,0.0,0.0,0.0,0.0,0.0,0.0,0.0,0.0,0.0,0.0,0.0,0.0,0.0,0.0,0.0,0.0,0.0,0.0,0.0,0.0,0.0,0.0,0.0,0.0,0.0,0.0,0.0,0.0,0.0,0.0,0.0,0.0,0.0,0.0,0.0,0.0,0.0,0.0,0.0,0.0,-2.9008,-3.0813,-3.2482,-3.4094,-3.4179,-3.35,-3.2106,-3.0298,-2.7887,0.0,0.0,0.0,0.0,0.0,0.0,0.0,0.0,0.0,0.0,0.0,0.0,0.0,0.0,0.0,0.0,0.0,0.0,0.0,0.0,0.0,0.0,0.0,0.0,0.0,0.0,0.0,0.0,0.0,0.0,0.0,0.0,0.0,0.0,0.0,0.0,0.0,0.0,0.0,0.0,0.0,-3.1227,-3.2737,-3.2939,-3.2664,0.0,0.0,-3.257,-3.1916,-3.2439,0.0,0.0,0.0,0.0,0.0,0.0,0.0,0.0,0.0,0.0,0.0,0.0,0.0,0.0,0.0,0.0,0.0,0.0,0.0,0.0,0.0,0.0,0.0,0.0,0.0,0.0,0.0,0.0,0.0,0.0,0.0,0.0,0.0,0.0,0.0,0.0,0.0,0.0,0.0,0.0,0.0,0.0,0.0,0.0,0.0,0.0,0.0,0.0,0.0,0.0,0.0,0.0,0.0,0.0,0.0,-2.5166,-2.8423,-2.9765,-3.1225,-3.288,-3.2948,-3.2402,-3.127,-2.9538,-2.7279,0.0,0.0,0.0,0.0,0.0,0.0,0.0,0.0,0.0,0.0,0.0,0.0,0.0,0.0,0.0,0.0,0.0,0.0,0.0,0.0,0.0,0.0,0.0,0.0,0.0,0.0,0.0,0.0,0.0,0.0,0.0,0.0,0.0,0.0,0.0,0.0,0.0,0.0,0.0,0.0,0.0,0.0,-3.3949,-3.4137,0.0,0.0,0.0,-3.3439,-3.3571,0.0,0.0,0.0,0.0,0.0,0.0,0.0,0.0,0.0,0.0,0.0,0.0,0.0,0.0,0.0,0.0,0.0,0.0,0.0,0.0,0.0,0.0,0.0,0.0,0.0,0.0,0.0,0.0,0.0,0.0,0.0,0.0,0.0,0.0,0.0,0.0,0.0,0.0,0.0,0.0,0.0,0.0,0.0,0.0,0.0,0.0,0.0,0.0,0.0,0.0,0.0,0.0,0.0,0.0,0.0,0.0,0.0,-2.8041,-2.8948,-3.0256,-3.193,-3.2013,-3.154,-3.052,-2.9023,0.0,0.0,0.0,0.0,0.0,0.0,0.0,0.0,0.0,0.0,0.0,0.0,0.0,0.0,0.0,0.0,0.0,0.0,0.0,0.0,0.0,0.0,0.0,0.0,0.0,0.0,0.0,-2.0162,0.0,0.0,0.0,0.0,0.0,0.0,0.0,0.0,0.0,0.0,0.0,0.0,0.0,0.0,-3.3789,-3.5135,-3.533,-3.5431,0.0,0.0,-3.4856,-3.5273,-3.5347,-3.4875,0.0,0.0,0.0,0.0,0.0,0.0,0.0,0.0,0.0,0.0,0.0,0.0,0.0,0.0,0.0,0.0,0.0,0.0,0.0,0.0,0.0,0.0,0.0,0.0,0.0,0.0,0.0,0.0,0.0,0.0,0.0,0.0,0.0,0.0,0.0,0.0,0.0,0.0,0.0,0.0,0.0,0.0,0.0,0.0,0.0,0.0,0.0,0.0,0.0,0.0,0.0,0.0,0.0,0.0,-2.4748,-2.7995,-2.896,-3.0224,-3.1929,-3.2063,-3.1319,-2.9731,-2.8776,-2.6679,0.0,0.0,0.0,0.0,0.0,0.0,0.0,0.0,0.0,0.0,0.0,0.0,0.0,0.0,0.0,0.0,0.0,0.0,0.0,0.0,0.0,0.0,0.0,0.0,0.0,0.0,0.0,0.0,0.0,0.0,0.0,0.0,0.0,0.0,0.0,0.0,0.0,0.0,0.0,0.0,0.0,-3.4218,-3.6692,-3.7082,-3.7383,0.0,0.0,-3.7987,-3.7244,-3.7106,-3.625,-3.3712,0.0,0.0,0.0,0.0,0.0,0.0,0.0,0.0,0.0,0.0,0.0,0.0,0.0,0.0,0.0,0.0,0.0,0.0,0.0,0.0,0.0,0.0,0.0,0.0,0.0,0.0,0.0,0.0,0.0,0.0,0.0,0.0,0.0,0.0,0.0,0.0,0.0,0.0,0.0,0.0,0.0,0.0,0.0,0.0,0.0,0.0,0.0,0.0,0.0,0.0,0.0,0.0,0.0,-2.5308,-2.8116,-2.8534,-2.9541,-3.1173,-3.1334,-3.0776,-2.9628,-2.8766,-2.6901,0.0,0.0,0.0,0.0,0.0,0.0,0.0,0.0,0.0,0.0,0.0,0.0,0.0,0.0,0.0,0.0,0.0,0.0,0.0,0.0,0.0,0.0,0.0,0.0,0.0,0.0,0.0,0.0,-2.2293,-2.2707,-2.3165,0.0,0.0,0.0,0.0,0.0,0.0,0.0,0.0,0.0,0.0,-3.4921,-3.6985,-3.7706,0.0,0.0,-3.8544,-3.849,-3.8163,-3.7656,-3.6757,-3.5151,-3.4342,0.0,0.0,0.0,0.0,0.0,0.0,0.0,0.0,0.0,0.0,0.0,0.0,0.0,0.0,0.0,0.0,0.0,0.0,0.0,0.0,0.0,0.0,0.0,0.0,0.0,0.0,0.0,0.0,0.0,0.0,0.0,0.0,0.0,0.0,0.0,0.0,0.0,0.0,0.0,0.0,0.0,0.0,0.0,0.0,0.0,0.0,0.0,0.0,0.0,0.0,0.0,0.0,-2.5646,-2.82,-2.8287,-2.9106,-3.0755,-3.0852,-3.0487,-2.963,-2.8739,-2.7179,0.0,0.0,0.0,0.0,0.0,0.0,0.0,0.0,0.0,0.0,0.0,0.0,0.0,0.0,0.0,0.0,0.0,0.0,0.0,0.0,0.0,0.0,0.0,0.0,0.0,0.0,0.0,0.0,-2.3229,-2.3714,-2.4496,0.0,0.0,0.0,0.0,0.0,0.0,0.0,0.0,0.0,0.0,-3.5702,-3.7451,-3.8378,-3.8974,-3.9223,-3.9321,-3.9276,-3.9023,-3.8238,-3.7279,-3.6103,0.0,0.0,0.0,0.0,0.0,0.0,0.0,0.0,0.0,0.0,0.0,0.0,0.0,0.0,0.0,0.0,0.0,0.0,0.0,0.0,0.0,0.0,0.0,0.0,0.0,0.0,0.0,0.0,0.0,0.0,-2.2902,0.0,0.0,0.0,0.0,0.0,0.0,0.0,0.0,0.0,0.0,0.0,0.0,0.0,0.0,0.0,0.0,0.0,0.0,0.0,0.0,0.0,0.0,-2.5701,-2.8232,-2.8312,-2.9135,-3.0737,-3.0875,-3.0488,-2.9647,-2.8762,-2.7444,-2.56,0.0,0.0,0.0,0.0,0.0,0.0,0.0,0.0,0.0,0.0,0.0,0.0,0.0,0.0,0.0,0.0,0.0,0.0,0.0,0.0,0.0,0.0,0.0,0.0,0.0,0.0,-2.3082,-2.3795,-2.4616,0.0,0.0,0.0,0.0,0.0,0.0,0.0,0.0,0.0,0.0,-3.4246,-3.653,-3.8296,-3.9247,-4.0038,-4.0883,-4.1,-4.0745,-3.9999,-3.9094,-3.7901,0.0,0.0,0.0,0.0,0.0,0.0,0.0,0.0,0.0,0.0,0.0,0.0,0.0,0.0,0.0,0.0,0.0,0.0,0.0,0.0,0.0,0.0,0.0,0.0,0.0,0.0,0.0,-2.3096,-2.3107,0.0,0.0,0.0,0.0,0.0,0.0,0.0,0.0,0.0,0.0,0.0,-2.6588,-2.6858,0.0,0.0,0.0,0.0,0.0,0.0,0.0,0.0,0.0,0.0,0.0,0.0,-2.6854,-2.8241,-2.8866,-2.9705,-3.082,-3.0857,-3.0689,-3.0381,-2.9558,-2.7994,-2.5659,0.0,0.0,0.0,0.0,0.0,0.0,0.0,0.0,0.0,0.0,0.0,0.0,0.0,0.0,0.0,0.0,0.0,0.0,0.0,0.0,0.0,0.0,0.0,0.0,0.0,-2.4157,0.0,0.0,0.0,0.0,0.0,0.0,0.0,0.0,0.0,0.0,0.0,-3.1428,-3.3466,-3.549,-3.7191,-3.8371,-3.9707,-4.0721,0.0,0.0,0.0,0.0,0.0,0.0,0.0,0.0,0.0,0.0,0.0,0.0,0.0,0.0,-3.6524,-3.4216,-3.3761,-3.3888,-3.4433,0.0,0.0,0.0,0.0,0.0,0.0,0.0,0.0,0.0,0.0,0.0,0.0,0.0,0.0,-2.4177,0.0,-2.4444,0.0,0.0,0.0,0.0,0.0,0.0,0.0,0.0,-2.848,-2.8895,-2.9191,-2.9481,-2.9296,0.0,-2.895,-2.7655,0.0,0.0,0.0,0.0,0.0,0.0,0.0,0.0,-2.7883,-2.8729,-2.9326,-3.0027,-3.0837,-3.0843,-3.0794,-3.0774,-2.9652,-2.8087,-2.6068,-2.4295,-2.3303,0.0,0.0,0.0,0.0,0.0,0.0,0.0,0.0,0.0,0.0,0.0,0.0,0.0,0.0,0.0,0.0,0.0,0.0,0.0,0.0,0.0,0.0,0.0,-2.5479,0.0,0.0,0.0,0.0,0.0,0.0,0.0,0.0,0.0,-3.0626,-3.1685,-3.3118,-3.4834,-3.68,-3.8277,-3.8872,0.0,0.0,0.0,0.0,0.0,0.0,0.0,-3.9843,-4.0049,-3.9364,-3.911,-4.0023,-4.0718,-4.1055,-4.0995,0.0,0.0,-3.7124,-3.6549,-3.6659,-3.7206,-3.748,-3.7934,-3.8914,-3.9321,-3.96,0.0,0.0,0.0,0.0,0.0,0.0,0.0,0.0,-2.5781,-2.6248,0.0,-2.6976,0.0,0.0,0.0,0.0,0.0,-2.8232,0.0,0.0,-2.9695,-3.013,-3.0897,-3.1711,-3.1279,-2.9815,-3.0508,-3.004,-2.846,-2.7565,0.0,0.0,0.0,0.0,0.0,0.0,-2.8754,-2.9542,-2.9632,-3.0038,-3.086,-3.0819,-3.0799,-3.0757,-2.9106,-2.779,-2.6845,-2.5166,-2.4218,-2.4168,-2.3266,0.0,0.0,0.0,0.0,0.0,0.0,0.0,0.0,0.0,0.0,0.0,0.0,0.0,0.0,0.0,0.0,0.0,0.0,0.0,0.0,-2.5101,0.0,0.0,0.0,0.0,0.0,0.0,0.0,0.0,0.0,0.0,-3.0975,-3.3662,-3.5846,-3.5949,0.0,0.0,0.0,0.0,-4.1007,-4.1046,-4.1027,-4.1046,-4.1088,-4.0393,-4.0101,-4.078,0.0,0.0,-4.1543,-4.239,-4.2929,-4.2889,-4.2908,-4.2333,-4.0509,-3.9987,-3.9924,-3.994,-4.0434,-4.0917,-4.0992,-4.1552,-4.2015,-2.9104,0.0,0.0,0.0,0.0,-2.7549,-2.7563,-2.7551,-2.7557,-2.7693,-2.7934,-2.7928,0.0,0.0,0.0,0.0,0.0,0.0,-3.0177,-3.0498,-3.1733,-3.2439,-3.2675,-3.2907,-3.2768,-3.2335,-3.2547,-3.2407,-3.1932,-3.1679,-3.017,-2.7527,0.0,0.0,0.0,0.0,-2.9302,-2.9603,-3.016,-3.0586,-3.083,-3.082,-3.0782,-3.0721,-2.907,-2.806,-2.7736,-2.6052,-2.5379,-2.5898,-2.4466,0.0,0.0,0.0,0.0,0.0,0.0,0.0,0.0,0.0,0.0,0.0,0.0,0.0,0.0,0.0,0.0,0.0,0.0,0.0,-2.4241,-2.5783,-2.7133,0.0,0.0,0.0,0.0,0.0,0.0,0.0,0.0,0.0,-3.4045,-3.4955,-3.6114,0.0,0.0,-3.9555,-3.9567,-4.0305,-4.108,-4.1703,-4.174,0.0,-4.2478,-4.2312,-4.2195,-4.2419,-4.271,-4.306,-4.3419,-4.4595,-4.5301,-4.4706,-4.5065,-4.5058,-4.3928,-4.2645,-4.1876,-4.1768,-4.23,-4.2976,-4.3439,-4.4083,-4.473,-3.1971,-3.0212,-2.9542,-2.9292,-2.9292,-2.9279,-2.9294,-2.9274,-2.8934,-2.8973,-2.9277,-2.8957,-2.8993,-2.9288,-2.9257,0.0,0.0,0.0,-3.1668,-3.235,-3.3392,-3.4059,-3.4371,-3.439,-3.4215,-3.3875,-3.3856,-3.3719,-3.336,-3.3351,-3.2313,-3.0278,0.0,0.0,-2.8824,-2.9616,-3.0041,-3.0092,-3.0552,-3.0786,-3.0798,-3.0786,-3.0769,-3.0714,-2.9399,-2.865,-2.8597,-2.7234,-2.6721,-2.718,-2.5813,-2.5235,0.0,0.0,0.0,0.0,0.0,0.0,0.0,0.0,0.0,0.0,0.0,-2.2238,-2.2795,0.0,0.0,0.0,-2.2407,-2.3384,-2.5048,-2.6647,0.0,0.0,0.0,0.0,0.0,0.0,0.0,-3.3666,-3.4726,-3.5752,-3.6718,-3.6944,-3.7411,-3.8505,-3.9387,-3.994,-3.9946,0.0,-4.1042,-4.1906,-4.199,-4.2221,-4.2995,-4.31,-4.315,-4.3453,-4.4152,-4.4633,-4.4652,-4.5415,-4.5791,-4.5423,-4.5608,-4.5734,-4.5179,-4.4178,-4.3582,-4.3834,-4.4449,-4.5074,-4.55,-4.5856,-4.6225,-3.4329,-3.3476,-3.1894,-3.1129,-3.1006,-3.1003,-3.1003,-3.0918,-3.015,-3.0235,-3.0911,-3.0219,-3.0317,-3.1003,-3.1012,0.0,-3.2122,-3.2255,-3.3112,-3.4606,-3.467,-3.5124,-3.5889,-3.5889,-3.548,-3.4714,-3.4714,-3.4286,-3.3546,-3.3526,-3.3476,-3.3387,-3.2658,-3.1432,-2.9835,-3.0496,-3.0862,-3.0798,-3.0784,-3.0784,-3.0793,-3.0798,-3.0784,-3.0778,-2.9874,-2.9396,-2.9353,-2.8504,-2.8036,-2.8067,-2.719,-2.6679,-2.657,0.0,0.0,0.0,0.0,0.0,0.0,0.0,0.0,0.0,0.0,0.0,0.0,0.0,0.0,0.0,-2.4651,0.0,-2.5581,-2.7769,0.0,0.0,0.0,-3.2004,-3.2804,-3.2894,-3.3532,-3.52,0.0,0.0,-3.8788,-3.9133,-3.9221,-3.9341,-4.0077,-4.0593,-4.0574,-4.0559,-4.0887,-4.1855,-4.1971,-4.2268,-4.3169,-4.3249,-4.3482,-4.4058,-4.4739,-4.5115,-4.5132,-4.5239,-4.5217,-4.5103,-4.509,-4.5062,-4.4933,-4.4821,-4.5092,-4.5805,-4.6449,-4.6955,-4.7001,-4.6993,-4.6981,-3.5565,-3.5343,-3.4937,-3.3996,-3.2776,-3.2776,-3.2747,-3.2678,-3.2479,-3.2508,-3.2684,-3.2508,-3.2538,-3.2708,-3.2694,-3.2805,-3.3037,-3.3696,-3.4227,-3.4631,-3.5279,-3.5694,-3.5889,-3.5889,-3.5791,-3.5616,-3.5597,-3.548,-3.5285,-3.5223,-3.488,-3.4309,-3.4061,-3.3076,-3.149,-3.1615,-3.1401,-3.0794,-3.0739,-3.0728,-3.0736,-3.0728,-3.071,-3.0649,-2.978,-2.9303,-2.9244,-2.8452,-2.828,-2.885,-2.8068,-2.7584,-2.7552,-2.6488,0.0,0.0,0.0,0.0,0.0,0.0,0.0,0.0,0.0,-2.4227,-2.5576,0.0,-2.491,0.0,-2.5842,-2.6816,-2.8804,-2.9551,0.0,0.0,-3.2407,-3.2824,-3.3612,-3.4251,-3.5037,-3.6088,-3.7294,-3.8249,-3.8878,-3.9471,-3.9833,-3.9853,-4.0154,-4.0356,-4.0375,-4.0341,-4.0805,-4.2068,-4.2412,-4.2926,-4.4198,-4.4456,-4.4471,-4.4691,-4.4858,-4.4967,-4.4986,-4.5518,-4.5721,-4.5152,-4.5483,-4.5521,-4.4858,-4.513,-4.5472,-4.5745,-4.6392,-4.714,-4.7666,-4.8138,-4.852,-3.5974,-3.5958,-3.5948,-3.5385,-3.4457,-3.4478,-3.4432,-3.4338,-3.3964,-3.3789,-3.377,-3.342,-3.3245,-3.3265,-3.3258,-3.3459,-3.3813,-3.4314,-3.4695,-3.5069,-3.5535,-3.597,-3.634,-3.634,-3.6545,-3.6914,-3.6934,-3.672,-3.6351,-3.6295,-3.587,-3.5055,-3.5,-3.4341,-3.3103,-3.2341,-3.1734,-3.1281,-3.0905,-3.0678,-3.0649,-3.0664,-3.0603,-3.0557,-3.0094,-2.9641,-2.9226,-2.9129,-2.9109,-2.9137,-2.8681,-2.8448,-2.8406,-2.7551,-2.6809,0.0,0.0,0.0,0.0,0.0,0.0,0.0,0.0,0.0,0.0,0.0,-2.6338,-2.6792,-2.7542,-2.8593,-3.007,-3.0882,-3.1867,-3.3183,-3.334,-3.3788,-3.4923,-3.5479,-3.619,-3.7393,-3.829,-3.8956,-3.9336,-3.9753,-3.9994,-3.9973,-3.9998,-4.0059,-4.0099,-4.008,-4.0535,-4.177,-4.2256,-4.3023,-4.4575,-4.4764,-4.4719,-4.4738,-4.4738,-4.4738,-4.4738,-4.5115,-4.5266,-4.487,-4.5063,-4.5197,-4.4691,-4.4815,-4.5151,-4.5522,-4.5933,-4.6501,-4.7242,-4.7965,-4.8475,-3.5958,-3.5883,-3.5885,-3.583,-3.5794,-3.5868,-3.5821,-3.5621,-3.4991,-3.4768,-3.4827,-3.4128,-3.3746,-3.3674,-3.3674,-3.3979,-3.4546,-3.4662,-3.5078,-3.5731,-3.5867,-3.6331,-3.7046,-3.7077,-3.7472,-3.8187,-3.8206,-3.78,-3.7085,-3.7065,-3.6601,-3.5789,-3.5751,-3.5364,-3.4502,-3.2987,-3.2113,-3.1887,-3.1092,-3.0629,-3.0586,-3.0585,-3.0548,-3.0482,-3.0471,-3.0122,-2.9398,-3.0017,-3.0052,-2.9302,-2.926,-2.9198,-2.9082,-2.8312,-2.7803,0.0,-2.7656,0.0,0.0,0.0,0.0,0.0,0.0,0.0,0.0,-2.8153,-2.8226,-2.8241,-2.9555,-3.0479,-3.0648,-3.1976,-3.3196,-3.4056,-3.4247,-3.4866,-3.6174,-3.6556,-3.7223,-3.8632,-3.8819,-3.9159,-3.9802,-3.9911,-3.9867,-3.9823,-3.9735,-3.9717,-3.9823,-3.9845,-4.017,-4.1003,-4.1841,-4.2932,-4.4033,-4.443,-4.4487,-4.4487,-4.4487,-4.4487,-4.4487,-4.4505,-4.4487,-4.4487,-4.4477,-4.442,-4.4383,-4.4344,-4.4517,-4.5041,-4.5208,-4.5544,-4.6424,-4.7117,-4.7516,-3.5894,-3.5833,-3.583,-3.5745,-3.5687,-3.6277,-3.6188,-3.5654,-3.611,-3.6716,-3.7302,-3.716,-3.6748,-3.6122,-3.6126,-3.5867,-3.543,-3.6057,-3.6424,-3.6605,-3.73,-3.7706,-3.788,-3.7924,-3.8052,-3.8206,-3.8206,-3.811,-3.7955,-3.7892,-3.7455,-3.6675,-3.66,-3.6163,-3.5365,0.0,0.0,0.0,-3.0964,-3.052,-3.0511,-3.052,-3.049,-3.0425,-3.0352,0.0,-3.0119,-3.0241,-3.0248,-3.0075,-3.0075,0.0,0.0,0.0,0.0,0.0,0.0,0.0,0.0,0.0,0.0,0.0,-3.1038,-3.124,-2.9898,-3.0905,-3.1657,-3.166,-3.1968,-3.239,-3.3054,-3.3375,-3.3946,-3.4785,-3.5489,-3.5968,-3.6274,-3.7414,-3.8401,-3.8662,-3.9207,-3.9618,-3.9724,-3.9712,-3.9618,-3.9545,-3.9477,-3.9471,-3.9502,-3.9545,-3.9914,-4.071,-4.1852,-4.2866,-4.3269,-4.3857,-4.4269,-4.4344,-4.4344,-4.4344,-4.4344,-4.4344,-4.4344,-4.4344,-4.4325,-4.4285,-4.4226,-4.4244,-4.4221,-4.4259,-4.4296,-4.4724,-4.6192,-4.6638,-4.6735,-3.6443,0.0,-3.6784,-3.6867,0.0,-3.7118,-3.7036,-3.6719,-3.7161,-3.7584,-3.793,-3.7916,-3.77,-3.7329,-3.731,-3.7079,-3.6708,-3.7118,-3.731,-3.7368,-3.7791,-3.8195,-3.8599,-3.8662,-3.8926,-3.9331,-3.9339,-3.9127,-3.8761,-3.8709,-3.8252,-3.7409,-3.7362,-3.6925,-3.6084,-3.4807,-3.3558,-3.24,-3.1926,-3.148,-3.106,-3.106,-3.0814,-3.0381,-3.0286,0.0,0.0,0.0,0.0,0.0,0.0,0.0,0.0,0.0,0.0,-2.8957,-2.9327,-2.9583,-2.9666,-3.081,-3.1533,-3.1571,-3.2661,-3.2828,-3.1541,-3.2145,-3.2607,-3.2626,-3.2942,-3.3365,-3.376,-3.4143,-3.4751,-3.5587,-3.6007,-3.654,-3.7335,-3.8109,-3.8726,-3.9097,-3.9402,-3.9575,-3.9551,-3.9521,-3.9483,-3.9406,-3.9343,-3.929,-3.9328,-3.9406,-3.9713,-4.0483,-4.1157,-4.1875,-4.2313,-4.2992,-4.355,-4.3569,-4.3886,-4.4109,-4.4147,-4.4147,-4.4147,-4.4147,-4.4147,-4.4147,-4.4116,-4.4104,-4.4085,-4.4005,-4.4005,-4.4209,-4.5138,-4.5602,-4.59,-3.7258,-3.7257,-3.7839,-3.8041,-3.7969,-3.7996,-3.8068,-3.8187,0.0,0.0,0.0,-3.8235,-3.8142,-3.8041,-3.7991,-3.7895,-3.7761,-3.7895,-3.8008,-3.8084,-3.8254,-3.8657,-3.9289,-3.9358,-3.9758,-4.0447,-4.0495,-4.0146,-3.9512,-3.9492,-3.9019,-3.8201,-3.8108,-3.767,-3.6741,-3.5353,-3.4351,-3.3794,-3.3198,-3.2499,-3.182,-3.1769,-3.141,-3.0726,-3.0652,-3.0204,-2.9355,-2.9942,-2.9912,-2.9083,-2.9692,-3.016,-3.0304,-3.0338,-3.0443,-3.0666,-3.1331,-3.1761,-3.1826,-3.2568,-3.3086,-3.3226,-3.3868,-3.3861,-3.2993,-3.302,-3.3064,-3.3045,-3.3665,-3.403,-3.4029,-3.4735,-3.5495,-3.6198,-3.6483,-3.7182,-3.8407,-3.8697,-3.8945,-3.9438,-3.9452,-3.9395,-3.935,-3.9362,-3.9346,-3.9346,-3.9256,-3.9183,-3.9183,-3.9275,-3.9525,-4.0067,-4.0449,-4.0803,-4.1322,-4.2054,-4.2593,-4.2883,-4.3373,-4.3801,-4.3968,-4.4005,-4.4005,-4.4005,-4.4005,-4.4005,-4.4005,-4.4023,-4.4005,-4.4005,-4.4005,-4.4005,-4.4079,-4.4562,-4.5026,-3.8078,-3.7939,-3.7976,-3.7935,-3.7874,-3.855,-3.9185,-3.9699,-3.9071,-3.9185,-3.9891,-3.9795,-3.9356,-3.8575,-3.8632,-3.8252,-3.7604,-3.8309,-3.8709,-3.8803,-3.9547,-3.9948,-4.0043,-4.0136,-4.021,-4.0306,-4.0396,-4.0356,-4.026,-4.0241,-3.9783,-3.9035,-3.8887,-3.8414,-3.7578,-3.7184,-3.6976,-3.6804,-3.4143,-3.2664,-3.255,-3.2501,-3.2413,-3.2283,-3.22,-3.177,-3.0912,-3.0978,-3.0658,-2.9874,-2.9946,-3.0358,-3.1157,-3.1215,-3.1565,-3.2345,-3.2546,-3.2617,-3.2651,-3.3426,-3.4232,-3.4887,-3.5063,-3.4757,-3.3918,-3.4448,-3.4819,-3.4819,-3.4843,-3.4904,-3.4906,-3.559,-3.6084,-3.6289,-3.7423,-3.8323,-3.8428,-3.8944,-3.9308,-3.9413,-3.9425,-3.9354,-3.9237,-3.9237,-3.9229,-3.9156,-3.9129,-3.9129,-3.9129,-3.9129,-3.9166,-3.9389,-3.9965,-4.0411,-4.0606,-4.1237,-4.1924,-4.2705,-4.2835,-4.3188,-4.3819,-4.3912,-4.3931,-4.4005,-4.4005,-4.4005,-4.4005,-4.4005,-4.4005,-4.4005,-4.4005,-4.4005,-4.4005,-4.4172,-4.4246,-3.8714,-3.8708,-3.9029,-3.9139,-3.9071,-3.9355,-3.9696,-3.9937,-3.9558,-3.9637,-4.0058,-3.9996,-3.9745,-3.9323,-3.9302,-3.9094,-3.8776,-3.9155,-3.9366,-3.9466,-3.9846,-4.0038,-4.0098,-4.0158,-4.0215,-4.0253,-4.0271,-4.0519,-4.0959,-4.0997,-4.0768,-4.0291,-3.9357,-3.8632,-3.8232,-3.7657,-3.733,-3.7293,-3.5533,-3.4372,-3.3897,-3.3424,-3.2987,-3.2514,-3.246,-3.2255,-3.182,-3.1803,-3.1615,-3.1274,-3.1255,-3.1459,-3.1903,-3.1993,-3.2229,-3.2722,-3.3187,-3.3446,-3.3494,-3.4275,-3.4908,-3.5266,-3.5308,-3.5159,-3.4737,-3.498,-3.5176,-3.5196,-3.5181,-3.5319,-3.5646,-3.6065,-3.6596,-3.7383,-3.8112,-3.8587,-3.8925,-3.9139,-3.9324,-3.9283,-3.9256,-3.9202,-3.9156,-3.9156,-3.9129,-3.9082,-3.9101,-3.9101,-3.9101,-3.9101,-3.9101,-3.9138,-3.9435,-3.9658,-3.9751,-4.0401,-4.1033,-4.1441,-4.1869,-4.2445,-4.3169,-4.3355,-4.354,-4.3912,-4.4005,-4.4005,-4.4005,-4.4005,-4.4005,-4.4005,-4.4005,-4.4005,-4.4005,-4.4005,-4.4005,-3.9397,-3.9371,-3.9929,-4.008,-3.9975,-3.9848,-3.9804,-3.9804,-3.9739,-3.9781,-3.9848,-3.9867,-3.9804,-3.9717,-3.9689,-3.9689,-3.9731,-3.9943,-4.0061,-4.0148,-4.0318,-4.0457,-4.0501,-4.0585,-4.0608,-4.0668,-4.069,-4.1034,-4.1644,-4.1682,-4.1661,-4.1447,-4.0184,-3.9378,-3.918,-3.8388,-3.7882,-3.7638,-3.6974,-3.6132,-3.5132,-3.449,-3.3772,-3.2978,-3.2883,-3.277,-3.2543,-3.2505,-3.2411,-3.226,-3.226,-3.2392,-3.2673,-3.2745,-3.2925,-3.3249,-3.3869,-3.4263,-3.4351,-3.4906,-3.5254,-3.5254,-3.5261,-3.5245,-3.528,-3.5229,-3.5193,-3.5212,-3.5444,-3.5812,-3.6234,-3.6711,-3.7336,-3.8442,-3.8629,-3.8893,-3.9364,-3.9317,-3.9183,-3.9183,-3.9129,-3.9101,-3.9101,-3.9101,-3.9082,-3.9082,-3.9101,-3.9101,-3.9101,-3.9101,-3.9101,-3.9101,-3.9101,-3.9138,-3.9138,-3.964,-4.016,-4.0308,-4.0903,-4.1627,-4.2296,-4.2649,-4.2983,-4.3578,-4.3912,-4.3986,-4.4005,-4.4005,-4.4005,-4.4005,-4.4005,-4.4005,-4.4055,-4.4085,-4.4036,-4.0043,-4.0003,-3.9939,-3.9807,-3.9684,-3.9613,-3.9602,-3.9607,-3.9545,-3.9483,-3.9571,-3.9642,-3.9679,-3.9551,-3.9564,-3.9596,-3.9621,-4.0328,-4.076,-4.0885,-4.1612,-4.1995,-4.1901,-4.203,-4.2096,-4.2059,-4.2067,-4.2109,-4.2299,-4.2318,-4.2252,-4.2133,-4.1938,-4.138,-4.0679,-4.0408,-3.9944,-3.91,-3.8264,-3.7143,-3.5825,-3.5638,-3.5206,-3.4417,-3.4317,-3.3958,-3.3224,-3.3144,-3.2807,-3.2197,-3.218,-3.2599,-3.345,-3.3581,-3.3957,-3.4764,-3.4914,-3.5007,-3.5007,-3.5069,-3.5127,-3.511,-3.5127,-3.5164,-3.5217,-3.5198,-3.5179,-3.5365,-3.6112,-3.6498,-3.6444,-3.7604,-3.8435,-3.8587,-3.9077,-3.9489,-3.9413,-3.9283,-3.9183,-3.9082,-3.9082,-3.9101,-3.9101,-3.9101,-3.9101,-3.9101,-3.9101,-3.9101,-3.9101,-3.9101,-3.9101,-3.9101,-3.9101,-3.9101,-3.912,-3.912,-3.9565,-4.0178,-4.042,-4.0866,-4.1516,-4.2222,-4.2853,-4.2853,-4.341,-4.3726,-4.3819,-4.4005,-4.3949,-4.3856,-4.3893,-4.4036,-4.4135,-4.4195,-4.4177,-3.9895,-3.9848,-3.967,-3.9783,-4.0098,-4.0504,-4.07,-4.0682,-4.0682,-4.0673,-4.0645,-4.0728,-4.052,-4.0181,-4.063,-4.0828,-4.0865,-4.1229,-4.1424,-4.1451,-4.1833,-4.1991,-4.2018,-4.2044,-4.2096,-4.2121,-4.2146,-4.2398,-4.2812,-4.2888,-4.2817,-4.2656,-4.2227,-4.1742,-4.1334,-4.1185,-4.07,-3.9825,-3.9435,-3.8489,-3.701,-3.6025,-3.5421,-3.5067,-3.4577,-3.4204,-3.3869,-3.385,-3.3728,-3.3478,-3.3502,-3.374,-3.428,-3.4338,-3.4529,-3.4944,-3.5054,-3.5108,-3.5108,-3.511,-3.5092,-3.5092,-3.5092,-3.511,-3.5147,-3.5166,-3.5393,-3.5904,-3.6476,-3.6993,-3.7681,-3.8382,-3.8866,-3.9146,-3.9406,-3.9464,-3.9399,-3.9229,-3.9129,-3.9101,-3.9101,-3.9101,-3.9101,-3.9101,-3.9101,-3.9101,-3.9101,-3.9101,-3.9101,-3.9101,-3.9101,-3.9101,-3.9101,-3.9101,-3.9101,-3.9101,-3.9287,-3.9528,-3.964,-3.9918,-4.0698,-4.107,-4.1497,-4.1999,-4.2445,-4.2667,-4.25,-4.3039,-4.3299,-4.3373,-4.3881,-4.4135,-4.4226,-4.4285,-4.4255,-3.9914,-3.9883,-3.9885,-4.0188,-4.0669,-4.1156,-4.1385,-4.1366,-4.1366,-4.1366,-4.1378,-4.1607,-4.1482,-4.1155,-4.151,-4.1688,-4.1678,-4.193,-4.2042,-4.2089,-4.2257,-4.2416,-4.2473,-4.2473,-4.2502,-4.2539,-4.2595,-4.2876,-4.339,-4.34,-4.3371,-4.321,-4.2686,-4.2207,-4.1943,-4.1767,-4.1169,-4.0215,-4.0111,-3.9398,-3.7985,-3.6666,-3.5777,-3.5384,-3.4835,-3.4389,-3.4148,-3.4221,-3.4269,-3.434,-3.4427,-3.4539,-3.4666,-3.4747,-3.479,-3.4869,-3.4964,-3.502,-3.502,-3.502,-3.502,-3.5039,-3.502,-3.5153,-3.5361,-3.5455,-3.6005,-3.7011,-3.726,-3.7833,-3.8575,-3.8911,-3.9239,-3.9614,-3.9502,-3.9395,-3.9399,-3.9221,-3.9101,-3.9101,-3.9101,-3.9101,-3.9101,-3.9101,-3.9101,-3.9101,-3.9101,-3.9101,-3.9101,-3.9101,-3.9101,-3.9101,-3.9101,-3.9101,-3.9101,-3.9101,-3.9101,-3.9101,-3.9157,-3.938,-3.9974,-4.0141,-4.0438,-4.1237,-4.1404,-4.1646,-4.1906,-4.2277,-4.2679,-4.2914,-4.3401,-4.4061,-4.4306,-4.4354,-4.443,-4.042,-4.0468,-4.0959,-4.1188,-4.1153,-4.1126,-4.1075,-4.1203,-4.1111,-4.1066,-4.1235,-4.1912,-4.2246,-4.2165,-4.1767,-4.144,-4.1508,-4.2323,-4.2668,-4.2761,-4.3454,-4.3856,-4.3893,-4.3893,-4.3869,-4.372,-4.3683,-4.3794,-4.3924,-4.3924,-4.3936,-4.3818,-4.3706,-4.3291,-4.2617,-4.2474,-4.1636,-4.0357,-4.0117,-3.9608,-3.8701,-3.7838,-3.673,-3.5559,-3.5291,-3.4884,-3.419,-3.4092,-3.4167,-3.4197,-3.4358,-3.4473,-3.4602,-3.4666,-3.4747,-3.4788,-3.4809,-3.4809,-3.4866,-3.4904,-3.4923,-3.4923,-3.5095,-3.5305,-3.6083,-3.6274,-3.7015,-3.8575,-3.8613,-3.8745,-3.8917,-3.9342,-3.963,-3.9651,-3.9521,-3.9413,-3.9399,-3.9229,-3.9129,-3.9101,-3.9101,-3.9101,-3.9101,-3.9101,-3.9101,-3.9101,-3.9101,-3.9101,-3.9101,-3.9101,-3.9129,-3.9129,-3.9129,-3.9101,-3.9101,-3.9101,-3.9101,-3.9101,-3.9101,-3.912,-3.9417,-3.9733,-4.0141,-4.0513,-4.0884,-4.12,-4.146,-4.1805,-4.2169,-4.2555,-4.3072,-4.3633,-4.4383,-4.4568,-4.4659,-4.0898,-4.0785,-4.1511,-4.1779,-4.175,-4.2225,-4.2426,-4.2391,-4.2391,-4.2406,-4.2457,-4.2754,-4.2866,-4.2866,-4.2642,-4.2632,-4.2783,-4.3213,-4.3393,-4.343,-4.3721,-4.3865,-4.3865,-4.3865,-4.3883,-4.3883,-4.3883,-4.3883,-4.3883,-4.3883,-4.3851,-4.3818,-4.3734,-4.3517,-4.3244,-4.3192,-4.2555,-4.153,-4.0979,-4.0299,-3.946,-3.8689,-3.7746,-3.6775,-3.6205,-3.5524,-3.4669,-3.4803,-3.4641,-3.4185,-3.4269,-3.4404,-3.4517,-3.4626,-3.4706,-3.4743,-3.4766,-3.5015,-3.5486,-3.5581,-3.5826,-3.6335,-3.6413,-3.6512,-3.6912,-3.7315,-3.7964,-3.8708,-3.9296,-3.9523,-3.9599,-3.97,-3.9735,-3.9689,-3.9564,-3.9451,-3.9373,-3.9256,-3.9156,-3.9101,-3.9101,-3.9101,-3.9101,-3.9101,-3.9101,-3.9101,-3.9129,-3.9156,-3.9202,-3.9229,-3.9275,-3.9275,-3.9301,-3.9301,-3.9275,-3.9156,-3.9101,-3.9101,-3.9101,-3.9101,-3.9287,-3.937,-3.9668,-3.9714,-4.0141,-4.0253,-4.0346,-4.0774,-4.1297,-4.2614,-4.3136,-4.3506,-4.4516,-4.4707,-4.4789,-4.1592,-4.1716,-4.221,-4.2412,-4.2395,-4.2905,-4.3087,-4.3087,-4.3087,-4.3105,-4.3105,-4.3105,-4.3105,-4.3123,-4.316,-4.3251,-4.3444,-4.3513,-4.3618,-4.3652,-4.3671,-4.3686,-4.3704,-4.3686,-4.3686,-4.3686,-4.3686,-4.3686,-4.3686,-4.3686,-4.3686,-4.3686,-4.3582,-4.3582,-4.3548,-4.3532,-4.3094,-4.2304,-4.1515,-4.0708,-3.9918,-3.9111,-3.845,-3.7918,-3.7349,-3.6541,-3.5495,-3.5597,-3.5309,-3.4629,-3.4649,-3.4638,-3.4491,-3.4561,-3.4752,-3.497,-3.5074,-3.5456,-3.613,-3.6302,-3.6588,-3.7115,-3.7235,-3.7335,-3.7643,-3.8142,-3.8605,-3.9163,-3.96,-3.9979,-4.0017,-3.9889,-3.9754,-3.9708,-3.9583,-3.9495,-3.9425,-3.9283,-3.9183,-3.9129,-3.9101,-3.9101,-3.9101,-3.9129,-3.9129,-3.9129,-3.9183,-3.9256,-3.9256,-3.9328,-3.9418,-3.9418,-3.9391,-3.9373,-3.9373,-3.9275,-3.9229,-3.9229,-3.9202,-3.9175,-3.9147,-3.9129,-3.9129,-3.9101,-3.9101,-3.9101,-3.9361,-3.9788,-4.0923,-4.2444,-4.2942,-4.3184,-4.4033,-4.4852,-4.4919,-4.2467,-4.3014,-4.3105,-4.3014,-4.2958,-4.2957,-4.29,-4.2938,-4.2938,-4.292,-4.2957,-4.2938,-4.2938,-4.2938,-4.3049,-4.3104,-4.3123,-4.3214,-4.3286,-4.3429,-4.3411,-4.3446,-4.3497,-4.3532,-4.3532,-4.3532,-4.3513,-4.3513,-4.3513,-4.3513,-4.3532,-4.3532,-4.3513,-4.3513,-4.3479,-4.3461,-4.3112,-4.2396,-4.1644,-4.0799,-3.9937,-3.9221,-3.8744,-3.8634,-3.8542,-3.7845,-3.6431,-3.6463,-3.6113,-3.542,-3.5472,-3.5235,-3.4726,-3.4633,-3.489,-3.5581,-3.5712,-3.6109,-3.6782,-3.698,-3.7066,-3.7352,-3.7272,-3.7777,-3.8392,-3.8647,-3.9037,-3.9772,-3.9981,-4.0017,-4.0057,-3.9973,-3.9826,-3.9731,-3.9602,-3.952,-3.9469,-3.9309,-3.9165,-3.9129,-3.9175,-3.912,-3.9138,-3.9416,-3.9537,-3.9564,-3.9618,-3.9754,-3.9773,-3.9743,-3.9518,-3.95,-3.9507,-3.9476,-3.9451,-3.9399,-3.9418,-3.9418,-3.9391,-3.932,-3.9275,-3.9229,-3.9202,-3.9156,-3.9129,-3.9129,-3.9183,-3.9674,-4.0525,-4.1743,-4.2159,-4.3061,-4.4161,-4.4991,-4.508,-4.285,-4.2995,-4.2975,-4.2956,-4.2938,-4.292,-4.29,-4.29,-4.29,-4.29,-4.29,-4.29,-4.29,-4.29,-4.2938,-4.2956,-4.2956,-4.2975,-4.3087,-4.3251,-4.3251,-4.334,-4.3411,-4.3446,-4.3446,-4.3479,-4.3479,-4.3479,-4.3479,-4.3479,-4.3479,-4.3479,-4.3479,-4.3479,-4.3479,-4.3479,-4.3332,-4.3075,-4.2341,-4.1534,-4.0744,-3.9955,-3.9276,-3.8762,-3.8707,-3.8414,-3.7973,-3.7511,-3.6887,-3.6095,-3.6167,-3.6107,-3.5969,-3.5982,-3.6186,-3.6422,-3.6497,-3.6913,-3.7654,-3.7847,-3.8115,-3.8614,-3.8812,-3.8954,-3.9274,-3.9381,-3.9605,-4.0057,-4.0077,-4.0077,-4.0057,-3.9975,-3.9867,-3.9712,-3.9674,-3.9614,-3.9495,-3.9328,-3.921,-3.9258,-3.9649,-3.9937,-4.0114,-4.0412,-4.0756,-4.0803,-4.0959,-4.1083,-4.1083,-4.0666,-4.0516,-4.0497,-4.0121,-3.962,-3.9558,-3.9533,-3.9552,-3.9502,-3.9476,-3.9444,-3.9373,-3.9328,-3.9256,-3.9229,-3.9202,-3.921,-3.9237,-3.9605,-4.0396,-4.1374,-4.2219,-4.3365,-4.4661,-4.5129,-4.5192,-4.2994,-4.29,-4.29,-4.29,-4.29,-4.29,-4.29,-4.29,-4.29,-4.29,-4.29,-4.29,-4.29,-4.29,-4.29,-4.29,-4.29,-4.29,-4.2957,-4.3087,-4.3142,-4.3214,-4.334,-4.3394,-4.3446,-4.3497,-4.3479,-4.3479,-4.3479,-4.3479,-4.3479,-4.3479,-4.3479,-4.3479,-4.3479,-4.3479,-4.3479,-4.3369,-4.269,-4.2047,-4.1442,-4.0487,-3.968,-3.9184,-3.8854,-3.8707,-3.867,-3.8254,-3.7658,-3.6951,-3.6639,-3.6509,-3.6582,-3.6626,-3.6856,-3.7145,-3.7333,-3.7685,-3.8446,-3.8646,-3.8902,-3.9458,-3.962,-3.9631,-3.9764,-3.9989,-4.0331,-4.0114,-4.0402,-4.046,-4.0194,-4.0036,-3.9911,-3.98,-3.9722,-3.9645,-3.9502,-3.9388,-3.9496,-3.973,-4.016,-4.0542,-4.097,-4.1306,-4.1745,-4.1773,-4.1865,-4.2025,-4.1957,-4.1651,-4.1418,-4.1103,-4.0632,-4.0155,-3.9764,-3.9684,-3.9679,-3.965,-3.9577,-3.9502,-3.9425,-3.9425,-3.9399,-3.9328,-3.9301,-3.9335,-3.9388,-3.9471,-4.0026,-4.1113,-4.2431,-4.346,-4.456,-4.5161,-4.5298,-4.29,-4.29,-4.29,-4.29,-4.29,-4.29,-4.29,-4.29,-4.29,-4.29,-4.29,-4.29,-4.29,-4.29,-4.29,-4.29,-4.29,-4.29,-4.29,-4.2938,-4.3031,-4.3123,-4.3214,-4.334,-4.3446,-4.3463,-4.3479,-4.3479,-4.3479,-4.3479,-4.3479,-4.3479,-4.3479,-4.3479,-4.3479,-4.3479,-4.3479,-4.3369,-4.2782,-4.2396,-4.2176,-4.0932,-4.0052,-3.9955,-3.935,-3.8982,-3.8872,-3.8689,-3.8315,-3.7687,-3.7071,-3.685,-3.673,-3.6713,-3.723,-3.7839,-3.7997,-3.8401,-3.9051,-3.9249,-3.9476,-3.967,-3.9808,-3.9811,-4.0127,-4.081,-4.1076,-4.0629,-4.109,-4.1187,-4.0538,-4.0308,-4.0169,-3.993,-3.9769,-3.9645,-3.9546,-3.9489,-3.9745,-4.0333,-4.0643,-4.0952,-4.166,-4.2034,-4.2193,-4.2193,-4.2331,-4.254,-4.2516,-4.2435,-4.1908,-4.158,-4.1307,-4.0684,-4.0268,-3.9727,-3.9746,-3.9661,-3.9631,-3.9577,-3.9527,-3.9502,-3.9458,-3.9406,-3.9481,-3.9495,-3.959,-3.9768,-4.0453,-4.1783,-4.281,-4.3586,-4.4359,-4.507,-4.538,-4.29,-4.29,-4.29,-4.29,-4.29,-4.29,-4.29,-4.29,-4.29,-4.29,-4.29,-4.29,-4.29,-4.29,-4.29,-4.29,-4.29,-4.29,-4.29,-4.29,-4.292,-4.2994,-4.3123,-4.3305,-4.3429,-4.3446,-4.3463,-4.3479,-4.3479,-4.3479,-4.3479,-4.3479,-4.3479,-4.3479,-4.3479,-4.3479,-4.3479,-4.3479,-4.3314,-4.2855,-4.2323,-4.1919,-4.1368,-4.0799,-4.0538,-4.0115,-3.9588,-3.9001,-3.8634,-3.8444,-3.8242,-3.8125,-3.804,-3.8132,-3.8293,-3.8496,-3.8776,-3.8995,-3.9272,-3.95,-3.982,-4.0378,-4.0528,-4.0847,-4.1523,-4.1916,-4.2066,-4.1963,-4.2255,-4.2067,-4.1302,-4.1034,-4.0724,-4.0025,-3.9796,-3.9674,-3.9626,-3.9602,-3.9796,-4.0544,-4.1164,-4.182,-4.2529,-4.3165,-4.3587,-4.3652,-4.3743,-4.383,-4.3655,-4.3428,-4.2999,-4.2607,-4.2214,-4.1438,-4.0734,-4.0075,-3.9727,-3.9689,-3.9642,-3.9631,-3.9607,-3.9564,-3.9521,-3.9471,-3.9721,-3.9827,-4.0061,-4.0249,-4.137,-4.2525,-4.3164,-4.3937,-4.4688,-4.5399,-4.54,-4.29,-4.29,-4.29,-4.29,-4.29,-4.29,-4.29,-4.29,-4.29,-4.29,-4.29,-4.29,-4.29,-4.29,-4.29,-4.29,-4.29,-4.29,-4.29,-4.29,-4.29,-4.2994,-4.3104,-4.3251,-4.3305,-4.3394,-4.3465,-4.3444,-4.3479,-4.3479,-4.3479,-4.3479,-4.3479,-4.3479,-4.3479,-4.3479,-4.3497,-4.3479,-4.3479,-4.324,-4.2837,-4.2488,-4.2103,-4.1556,-4.1313,-4.0818,-4.0377,-3.9955,-3.946,-3.8891,-3.8689,-3.8707,-3.8707,-3.8822,-3.891,-3.891,-3.9417,-3.9805,-3.9978,-4.0282,-4.079,-4.1217,-4.1406,-4.1712,-4.2243,-4.2724,-4.3064,-4.2633,-4.3021,-4.2812,-4.2143,-4.1665,-4.0974,-4.0186,-3.9883,-3.9811,-3.9722,-3.997,-4.0428,-4.1184,-4.1957,-4.2726,-4.3474,-4.4112,-4.4374,-4.4486,-4.4455,-4.4561,-4.4581,-4.4354,-4.4004,-4.3516,-4.3103,-4.2439,-4.1658,-4.0988,-4.0428,-4.0272,-3.9735,-3.9684,-3.9679,-3.9661,-3.9679,-3.9712,-3.9981,-4.0273,-4.0617,-4.1127,-4.2148,-4.3071,-4.363,-4.4247,-4.5016,-4.5438,-4.5419,-4.2882,-4.29,-4.29,-4.29,-4.29,-4.29,-4.29,-4.29,-4.29,-4.29,-4.29,-4.29,-4.29,-4.29,-4.29,-4.29,-4.29,-4.29,-4.29,-4.29,-4.29,-4.2956,-4.3049,-4.3104,-4.3324,-4.3524,-4.3541,-4.3758,-4.394,-4.392,-4.3809,-4.3975,-4.392,-4.3809,-4.403,-4.3901,-4.3773,-4.3883,-4.3828,-4.3754,-4.3497,-4.2986,-4.2546,-4.2378,-4.1684,-4.1372,-4.1222,-4.1001,-4.0414,-3.9038,-3.8964,-3.9111,-3.9074,-3.9135,-3.9243,-3.9449,-4.017,-4.0718,-4.0819,-4.1413,-4.2025,-4.2215,-4.231,-4.2484,-4.2905,-4.357,-4.3814,-4.3323,-4.3708,-4.3576,-4.2736,-4.1971,-4.1053,-4.0307,-4.0032,-3.9946,-3.9947,-4.0438,-4.1237,-4.2027,-4.2803,-4.3595,-4.4214,-4.4524,-4.4578,-4.4605,-4.4685,-4.4745,-4.4796,-4.4681,-4.4407,-4.4094,-4.3779,-4.3479,-4.2696,-4.1952,-4.1411,-4.0969,-4.011,-3.98,-3.975,-3.9769,-3.9853,-4.0004,-4.0419,-4.0946,-4.1437,-4.2153,-4.3056,-4.3595,-4.4133,-4.4691,-4.5246,-4.54,-4.5457,-4.2842,-4.29,-4.29,-4.29,-4.29,-4.29,-4.29,-4.2882,-4.29,-4.29,-4.29,-4.29,-4.29,-4.29,-4.29,-4.29,-4.2973,-4.2991,-4.29,-4.29,-4.29,-4.29,-4.2992,-4.3176,-4.3523,-4.3943,-4.4254,-4.4656,-4.5077,-4.5168,-4.5351,-4.5296,-4.5149,-4.5351,-4.5278,-4.5168,-4.5369,-4.5278,-4.4764,-4.4433,-4.425,-4.3681,-4.3188,-4.3094,-4.2451,-4.2103,-4.1919,-4.1442,-4.0946,-4.0689,-4.0598,-4.0579,-4.0464,-4.0572,-4.0609,-4.0755,-4.1146,-4.1539,-4.1623,-4.1965,-4.2415,-4.3088,-4.329,-4.3658,-4.4326,-4.4585,-4.4789,-4.4698,-4.4874,-4.4303,-4.308,-4.2049,-4.1227,-4.0519,-4.0195,-4.0096,-4.0106,-4.0636,-4.1434,-4.2121,-4.297,-4.3755,-4.4501,-4.4621,-4.4667,-4.4738,-4.4764,-4.4796,-4.4846,-4.4895,-4.4754,-4.4501,-4.43,-4.3999,-4.3656,-4.2851,-4.2117,-4.1635,-4.0836,-4.0359,-4.0314,-4.0239,-4.0454,-4.0704,-4.0969,-4.1573,-4.2328,-4.3058,-4.3921,-4.4287,-4.4614,-4.5036,-4.5399,-4.5475,-4.5513,-4.2727,-4.2747,-4.2747,-4.2747,-4.2747,-4.2747,-4.2747,-4.2786,-4.2842,-4.2824,-4.2862,-4.29,-4.29,-4.29,-4.2918,-4.3063,-4.3516,-4.386,-4.4041,-4.4059,-4.4059,-4.4041,-4.4023,-4.4025,-4.4302,-4.4451,-4.4818,-4.5313,-4.5624,-4.5846,-4.5755,-4.5847,-4.5902,-4.5792,-4.5902,-4.5938,-4.5828,-4.5792,-4.5516,-4.5112,-4.4672,-4.4323,-4.3791,-4.3534,-4.3075,-4.2873,-4.28,-4.2506,-4.2268,-4.2213,-4.2194,-4.1827,-4.1287,-4.1248,-4.136,-4.1501,-4.205,-4.2371,-4.2501,-4.2994,-4.3495,-4.3943,-4.4178,-4.4483,-4.4877,-4.5125,-4.5192,-4.5235,-4.5142,-4.4723,-4.352,-4.2622,-4.1743,-4.096,-4.0444,-4.0195,-4.0267,-4.1032,-4.1808,-4.2403,-4.3341,-4.407,-4.4561,-4.4726,-4.477,-4.4815,-4.4889,-4.4919,-4.4895,-4.4943,-4.501,-4.4871,-4.4684,-4.4497,-4.4364,-4.3729,-4.2784,-4.2265,-4.1688,-4.1461,-4.1419,-4.1313,-4.1225,-4.1494,-4.1803,-4.2652,-4.3404,-4.4133,-4.4614,-4.4902,-4.517,-4.5418,-4.5513,-4.5531,-4.5568,-4.257,-4.2552,-4.2609,-4.2609,-4.2609,-4.2609,-4.2609,-4.2609,-4.2706,-4.2783,-4.2765,-4.2824,-4.2862,-4.29,-4.29,-4.3353,-4.4077,-4.4802,-4.5019,-4.5019,-4.5019,-4.5019,-4.5073,-4.5182,-4.5185,-4.4738,-4.5378,-4.5797,-4.6057,-4.6081,-4.6449,-4.6248,-4.6268,-4.6507,-4.6379,-4.6287,-4.6452,-4.6489,-4.6232,-4.5865,-4.5223,-4.4892,-4.4232,-4.3608,-4.3424,-4.3369,-4.3351,-4.3314,-4.3369,-4.3479,-4.3532,-4.2812,-4.2014,-4.1649,-4.1773,-4.2036,-4.2816,-4.3193,-4.3446,-4.4016,-4.4527,-4.4712,-4.4808,-4.4929,-4.5084,-4.517,-4.5235,-4.5256,-4.5201,-4.4914,-4.4093,-4.3386,-4.2603,-4.1839,-4.1017,-4.0673,-4.0824,-4.1825,-4.2473,-4.2555,-4.3591,-4.4569,-4.4764,-4.4846,-4.4846,-4.4889,-4.4962,-4.501,-4.4991,-4.4991,-4.5057,-4.5103,-4.4916,-4.484,-4.4725,-4.4211,-4.3323,-4.2955,-4.2473,-4.2344,-4.2363,-4.2408,-4.2341,-4.2383,-4.2808,-4.3577,-4.4192,-4.4729,-4.5151,-4.5456,-4.5513,-4.555,-4.5568,-4.5586,-4.5605,-4.2391,-4.2432,-4.2552,-4.2609,-4.2609,-4.2609,-4.257,-4.2609,-4.2609,-4.2649,-4.2649,-4.2783,-4.2822,-4.2842,-4.2844,-4.3371,-4.4204,-4.511,-4.5508,-4.549,-4.5508,-4.5508,-4.5653,-4.6069,-4.6178,-4.6237,-4.6444,-4.6775,-4.727,-4.7587,-4.7393,-4.7693,-4.7696,-4.7697,-4.7699,-4.7884,-4.7682,-4.7517,-4.715,-4.6764,-4.6324,-4.5314,-4.4397,-4.3663,-4.3552,-4.3479,-4.3479,-4.3479,-4.3479,-4.3479,-4.3548,-4.3468,-4.3221,-4.3195,-4.3291,-4.3448,-4.3722,-4.397,-4.4149,-4.4428,-4.4693,-4.4796,-4.4943,-4.5061,-4.517,-4.5235,-4.5256,-4.5277,-4.5239,-4.4953,-4.4112,-4.3825,-4.3405,-4.2775,-4.2354,-4.2162,-4.2333,-4.2843,-4.3216,-4.2879,-4.3957,-4.4938,-4.4943,-4.4967,-4.501,-4.501,-4.5057,-4.508,-4.5057,-4.5061,-4.5106,-4.5125,-4.5109,-4.5068,-4.5026,-4.444,-4.3767,-4.3653,-4.3289,-4.2949,-4.3066,-4.3414,-4.3514,-4.3495,-4.367,-4.419,-4.4786,-4.5247,-4.5399,-4.5513,-4.555,-4.5605,-4.5586,-4.5605,-4.572,-4.2079,-4.2181,-4.2264,-4.2305,-4.2305,-4.231,-4.2351,-4.2351,-4.2508,-4.2566,-4.2548,-4.2667,-4.2745,-4.2783,-4.286,-4.3514,-4.4729,-4.6033,-4.6486,-4.654,-4.6558,-4.654,-4.6486,-4.6957,-4.7083,-4.712,-4.7215,-4.7347,-4.7765,-4.7888,-4.8006,-4.8028,-4.8108,-4.8226,-4.8247,-4.8212,-4.8324,-4.8196,-4.7921,-4.7498,-4.7021,-4.5571,-4.4544,-4.4176,-4.3718,-4.3497,-4.3479,-4.3479,-4.3479,-4.3513,-4.3529,-4.3686,-4.3786,-4.3883,-4.4011,-4.4147,-4.4285,-4.4401,-4.4496,-4.4632,-4.4738,-4.4865,-4.5014,-4.5129,-4.5192,-4.5254,-4.5297,-4.5277,-4.5277,-4.5144,-4.4743,-4.4322,-4.3845,-4.3482,-4.3119,-4.2869,-4.2945,-4.3535,-4.3509,-4.3352,-4.4277,-4.4981,-4.5038,-4.5061,-4.5125,-4.5125,-4.5148,-4.5125,-4.5125,-4.5148,-4.517,-4.517,-4.5192,-4.517,-4.5148,-4.4786,-4.4367,-4.4233,-4.4097,-4.3776,-4.3817,-4.4181,-4.4429,-4.4524,-4.4779,-4.4803,-4.5036,-4.5381,-4.5475,-4.5531,-4.5568,-4.5586,-4.5586,-4.5624,-4.5836,-4.1797,-4.1858,-4.1902,-4.1962,-4.1987,-4.1995,-4.2061,-4.2121,-4.2305,-4.2422,-4.2463,-4.2548,-4.2667,-4.2799,-4.3165,-4.3891,-4.5399,-4.6776,-4.7301,-4.7536,-4.7554,-4.7627,-4.7681,-4.7699,-4.7627,-4.7554,-4.7609,-4.7699,-4.7717,-4.7801,-4.7861,-4.7943,-4.8087,-4.8148,-4.8187,-4.8247,-4.8286,-4.8324,-4.8306,-4.7902,-4.6985,-4.592,-4.5076,-4.4874,-4.4176,-4.3773,-4.3828,-4.3571,-4.3497,-4.3532,-4.36,-4.3686,-4.3818,-4.3961,-4.4147,-4.4266,-4.4373,-4.4468,-4.4578,-4.4632,-4.4782,-4.4914,-4.5019,-4.5129,-4.5213,-4.5256,-4.5277,-4.5277,-4.5277,-4.5277,-4.5086,-4.4704,-4.438,-4.4208,-4.3768,-4.3386,-4.3614,-4.3975,-4.4279,-4.4429,-4.4881,-4.5033,-4.5109,-4.517,-4.5192,-4.5211,-4.5213,-4.5213,-4.5192,-4.5213,-4.5213,-4.5235,-4.5235,-4.5235,-4.5235,-4.5233,-4.4946,-4.4829,-4.4791,-4.462,-4.4753,-4.5001,-4.5077,-4.5042,-4.5123,-4.5186,-4.5381,-4.5457,-4.5495,-4.5531,-4.5586,-4.5586,-4.5586,-4.5913,-4.6278,-4.1471,-4.1471,-4.1604,-4.171,-4.178,-4.1823,-4.1902,-4.203,-4.2121,-4.2145,-4.2205,-4.2405,-4.2548,-4.2793,-4.3583,-4.444,-4.5363,-4.6269,-4.7138,-4.7627,-4.7699,-4.7699,-4.7699,-4.7699,-4.7699,-4.7699,-4.7699,-4.7699,-4.7717,-4.7699,-4.7801,-4.7884,-4.7943,-4.8024,-4.8166,-4.8226,-4.8265,-4.8286,-4.8324,-4.7957,-4.7278,-4.6856,-4.6342,-4.5736,-4.5039,-4.4507,-4.436,-4.3938,-4.3608,-4.3532,-4.3704,-4.3771,-4.3837,-4.4104,-4.4226,-4.4314,-4.4373,-4.4487,-4.4578,-4.4659,-4.4789,-4.4919,-4.5038,-4.517,-4.5235,-4.5277,-4.5277,-4.5277,-4.5277,-4.5277,-4.5277,-4.5182,-4.5105,-4.5029,-4.4781,-4.4704,-4.4857,-4.4456,-4.476,-4.4874,-4.5099,-4.5156,-4.5192,-4.5235,-4.5297,-4.5297,-4.5275,-4.5275,-4.5256,-4.5256,-4.5275,-4.5275,-4.5275,-4.5256,-4.5256,-4.5275,-4.5275,-4.5235,-4.5235,-4.5235,-4.5235,-4.5235,-4.5256,-4.5239,-4.5317,-4.5357,-4.536,-4.5419,-4.5476,-4.5531,-4.5568,-4.5586,-4.5586,-4.6047,-4.6663,-4.0965,-4.1105,-4.1198,-4.129,-4.1398,-4.1453,-4.1587,-4.1736,-4.1849,-4.1977,-4.2103,-4.2205,-4.2369,-4.2771,-4.3595,-4.4491,-4.5345,-4.6106,-4.6939,-4.7554,-4.7699,-4.7699,-4.7699,-4.7699,-4.7699,-4.7699,-4.7699,-4.7699,-4.7699,-4.7699,-4.7741,-4.7801,-4.7861,-4.7943,-4.8046,-4.8148,-4.8187,-4.8247,-4.8267,-4.8122,-4.7755,-4.737,-4.6966,-4.6581,-4.581,-4.5259,-4.4764,-4.4452,-4.3936,-4.3731,-4.3738,-4.3837,-4.3915,-4.4135,-4.4285,-4.4314,-4.4401,-4.4515,-4.4578,-4.4667,-4.4796,-4.4919,-4.5038,-4.517,-4.5256,-4.5277,-4.5277,-4.5277,-4.5277,-4.5277,-4.5277,-4.5277,-4.5277,-4.5277,-4.5277,-4.5277,-4.5277,-4.5277,-4.5201,-4.5258,-4.5297,-4.5256,-4.5235,-4.5275,-4.5297,-4.5297,-4.5297,-4.5297,-4.5277,-4.5277,-4.5277,-4.5297,-4.5277,-4.5277,-4.5277,-4.5297,-4.5297,-4.5256,-4.5256,-4.5256,-4.5277,-4.5277,-4.5277,-4.5277,-4.5297,-4.5317,-4.5338,-4.54,-4.5457,-4.5495,-4.5568,-4.578,-4.6028,-4.6451,-4.7182,-4.0436,-4.0614,-4.0728,-4.0888,-4.1,-4.1041,-4.1226,-4.1471,-4.1648,-4.1823,-4.1995,-4.2121,-4.231,-4.262,-4.3358,-4.409,-4.4983,-4.5834,-4.6631,-4.721,-4.7609,-4.7699,-4.7699,-4.7699,-4.7699,-4.7699,-4.7699,-4.7699,-4.7699,-4.7699,-4.7699,-4.7699,-4.7819,-4.7861,-4.7943,-4.8006,-4.8108,-4.8208,-4.8267,-4.8269,-4.8159,-4.7737,-4.7535,-4.7186,-4.6654,-4.592,-4.5388,-4.4799,-4.4356,-4.4097,-4.3859,-4.3883,-4.3979,-4.4195,-4.4314,-4.4373,-4.443,-4.4524,-4.4605,-4.4667,-4.4777,-4.49,-4.5038,-4.5192,-4.5256,-4.5277,-4.5277,-4.5277,-4.5277,-4.5277,-4.5277,-4.5277,-4.5277,-4.5277,-4.5277,-4.5277,-4.5277,-4.5277,-4.5277,-4.5277,-4.5277,-4.5277,-4.5277,-4.5277,-4.5277,-4.5277,-4.5277,-4.5277,-4.5277,-4.5277,-4.5277,-4.5277,-4.5277,-4.5277,-4.5277,-4.5277,-4.5277,-4.5277,-4.5277,-4.5277,-4.5277,-4.5277,-4.5277,-4.5277,-4.5277,-4.5277,-4.5317,-4.538,-4.5419,-4.5534,-4.5744,-4.6242,-4.6606,-4.7067,-4.7836,-3.9781,-3.9833,-4.032,-4.0583,-4.0697,-4.0745,-4.0888,-4.1186,-4.1363,-4.1498,-4.1719,-4.2079,-4.2269,-4.2486,-4.2829,-4.3454,-4.4277,-4.5037,-4.5888,-4.6667,-4.7283,-4.7591,-4.7663,-4.7699,-4.7699,-4.7699,-4.7699,-4.7699,-4.7699,-4.7699,-4.7699,-4.7699,-4.7759,-4.7801,-4.7861,-4.7943,-4.8046,-4.8148,-4.8247,-4.8267,-4.8306,-4.8177,-4.8141,-4.7994,-4.748,-4.6985,-4.6856,-4.5643,-4.4812,-4.4607,-4.4179,-4.3992,-4.4055,-4.4237,-4.4373,-4.443,-4.4487,-4.4551,-4.4605,-4.4685,-4.4789,-4.4895,-4.5061,-4.5213,-4.5277,-4.5277,-4.5277,-4.5277,-4.5277,-4.5277,-4.5277,-4.5277,-4.5277,-4.5277,-4.5277,-4.5277,-4.5277,-4.5277,-4.5277,-4.5277,-4.5277,-4.5277,-4.5277,-4.5277,-4.5277,-4.5277,-4.5277,-4.5277,-4.5277,-4.5277,-4.5277,-4.5277,-4.5277,-4.5277,-4.5277,-4.5277,-4.5277,-4.5277,-4.5277,-4.5277,-4.5277,-4.5277,-4.5277,-4.5277,-4.5277,-4.5277,-4.5277,-4.5339,-4.5418,-4.5611,-4.5975,-4.6608,-4.7529,-4.8259,-4.9067,-3.9677,-3.9729,-3.9918,-4.0138,-4.0337,-4.0337,-4.0551,-4.084,-4.1012,-4.1272,-4.1587,-4.1866,-4.2121,-4.231,-4.2526,-4.308,-4.3999,-4.4367,-4.5345,-4.6214,-4.6848,-4.7265,-4.7464,-4.7681,-4.7699,-4.7699,-4.7699,-4.7699,-4.7699,-4.7699,-4.7699,-4.7699,-4.7699,-4.7699,-4.7759,-4.7861,-4.8024,-4.8166,-4.8226,-4.8247,-4.8306,-4.8324,-4.8324,-4.8251,-4.8122,-4.7553,-4.7021,-4.6121,-4.5492,-4.4927,-4.4369,-4.4166,-4.4177,-4.4325,-4.4411,-4.4468,-4.4542,-4.4597,-4.4678,-4.4712,-4.4815,-4.4991,-4.5106,-4.5213,-4.5277,-4.5277,-4.5277,-4.5277,-4.5277,-4.5277,-4.5277,-4.5277,-4.5277,-4.5277,-4.5277,-4.5277,-4.5277,-4.5277,-4.5277,-4.5277,-4.5277,-4.5277,-4.5277,-4.5277,-4.5277,-4.5277,-4.5277,-4.5277,-4.5277,-4.5277,-4.5277,-4.5277,-4.5277,-4.5277,-4.5277,-4.5277,-4.5277,-4.5277,-4.5277,-4.5277,-4.5277,-4.5277,-4.5277,-4.5277,-4.5277,-4.5277,-4.5297,-4.5317,-4.5531,-4.5955,-4.6513,-4.7165,-4.8164,-4.9317,-4.9952,-3.9573,-3.9573,-3.9573,-3.9713,-3.9986,-4.002,-4.0238,-4.0485,-4.0728,-4.1012,-4.1426,-4.1604,-4.1866,-4.2121,-4.2346,-4.2745,-4.3444,-4.3978,-4.478,-4.558,-4.625,-4.6794,-4.7246,-4.7572,-4.7699,-4.7699,-4.7699,-4.7699,-4.7699,-4.7699,-4.7699,-4.7699,-4.7699,-4.7699,-4.7699,-4.7801,-4.7984,-4.8105,-4.8148,-4.8187,-4.8247,-4.8286,-4.8286,-4.8233,-4.7994,-4.7609,-4.6948,-4.6175,-4.5503,-4.5008,-4.4575,-4.4251,-4.4296,-4.443,-4.4496,-4.4551,-4.4624,-4.4659,-4.4738,-4.4789,-4.4846,-4.5057,-4.5129,-4.5213,-4.5256,-4.5277,-4.5277,-4.5277,-4.5277,-4.5277,-4.5277,-4.5277,-4.5277,-4.5277,-4.5277,-4.5277,-4.5277,-4.5277,-4.5277,-4.5277,-4.5277,-4.5277,-4.5277,-4.5277,-4.5277,-4.5277,-4.5277,-4.5277,-4.5277,-4.5277,-4.5277,-4.5277,-4.5277,-4.5277,-4.5277,-4.5277,-4.5277,-4.5277,-4.5277,-4.5277,-4.5277,-4.5277,-4.5277,-4.5277,-4.5277,-4.5277,-4.5411,-4.5585,-4.5988,-4.6451,-4.7241,-4.8164,-4.9048,-5.0067,-5.026,-3.9342,-3.9342,-3.9342,-3.9484,-3.9729,-3.9849,-3.9986,-4.0188,-4.0436,-4.0728,-4.1123,-4.1318,-4.1542,-4.1866,-4.2121,-4.2476,-4.2879,-4.3538,-4.4162,-4.4675,-4.5562,-4.6269,-4.6812,-4.7192,-4.7536,-4.7681,-4.7699,-4.7699,-4.7699,-4.7699,-4.7699,-4.7699,-4.7699,-4.7699,-4.7699,-4.7801,-4.7902,-4.7943,-4.7988,-4.8068,-4.8187,-4.8169,-4.8247,-4.7956,-4.7627,-4.726,-4.6819,-4.5877,-4.5275,-4.5106,-4.4606,-4.4381,-4.444,-4.4524,-4.4605,-4.4667,-4.4693,-4.477,-4.487,-4.4914,-4.4986,-4.5103,-4.5192,-4.5235,-4.5277,-4.5277,-4.5277,-4.5277,-4.5277,-4.5277,-4.5277,-4.5277,-4.5277,-4.5277,-4.5277,-4.5277,-4.5277,-4.5277,-4.5277,-4.5277,-4.5277,-4.5277,-4.5277,-4.5277,-4.5277,-4.5277,-4.5277,-4.5277,-4.5277,-4.5277,-4.5277,-4.5277,-4.5277,-4.5277,-4.5277,-4.5277,-4.5277,-4.5277,-4.5277,-4.5277,-4.5277,-4.5277,-4.5277,-4.5277,-4.5277,-4.5277,-4.5602,-4.5927,-4.66,-4.7369,-4.8449,-4.9393,-5.0182,-5.0606,-5.0664,-3.9288,-3.9288,-3.9288,-3.9325,-3.9484,-3.959,-3.9746,-3.9986,-4.0238,-4.0551,-4.0793,-4.1012,-4.1272,-4.1587,-4.1892,-4.2187,-4.2544,-4.2871,-4.3385,-4.4168,-4.4802,-4.5599,-4.6232,-4.6703,-4.7138,-4.7572,-4.7699,-4.7591,-4.7699,-4.7536,-4.7645,-4.7699,-4.7482,-4.7699,-4.7699,-4.7759,-4.7801,-4.792,-4.7943,-4.8006,-4.805,-4.8093,-4.7913,-4.7476,-4.7149,-4.6838,-4.6488,-4.5429,-4.5097,-4.5108,-4.4621,-4.4449,-4.4524,-4.4605,-4.4685,-4.477,-4.4821,-4.4914,-4.4991,-4.5061,-4.5125,-4.517,-4.5233,-4.5275,-4.5277,-4.5277,-4.5277,-4.5277,-4.5277,-4.5277,-4.5277,-4.5277,-4.5277,-4.5277,-4.5277,-4.5277,-4.5277,-4.5277,-4.5277,-4.5277,-4.5277,-4.5277,-4.5277,-4.5277,-4.5277,-4.5277,-4.5277,-4.5277,-4.5277,-4.5277,-4.5277,-4.5277,-4.5277,-4.5277,-4.5277,-4.5277,-4.5277,-4.5277,-4.5277,-4.5277,-4.5277,-4.5277,-4.5277,-4.5277,-4.5277,-4.5316,-4.5908,-4.6579,-4.752,-4.8445,-4.9351,-4.9931,-5.0413,-5.0644,-5.0664,-3.9288,-3.9288,-3.9288,-3.9288,-3.9325,-3.9448,-3.9642,-3.9849,-4.0054,-4.0288,-4.0485,-4.0728,-4.0965,-4.1272,-4.1613,-4.1917,-4.2251,-4.253,-4.2892,-4.3656,-4.4041,-4.4711,-4.5399,-4.5997,-4.6287,-4.6812,-4.6884,-4.6812,-4.6703,-4.6812,-4.6776,-4.6721,-4.6884,-4.6703,-4.6884,-4.7174,-4.7759,-4.7819,-4.7824,-4.7684,-4.7601,-4.7463,-4.7268,-4.6724,-4.6305,-4.603,-4.5637,-4.5183,-4.4772,-4.4811,-4.468,-4.4477,-4.4587,-4.4712,-4.4789,-4.4895,-4.4991,-4.5057,-4.5125,-4.5192,-4.5213,-4.5254,-4.5297,-4.5277,-4.5277,-4.5277,-4.5277,-4.5277,-4.5277,-4.5277,-4.5277,-4.5277,-4.5277,-4.5277,-4.5277,-4.5277,-4.5277,-4.5277,-4.5277,-4.5277,-4.5277,-4.5277,-4.5277,-4.5277,-4.5277,-4.5277,-4.5277,-4.5277,-4.5277,-4.5277,-4.5277,-4.5277,-4.5277,-4.5277,-4.5277,-4.5277,-4.5277,-4.5277,-4.5277,-4.5277,-4.5277,-4.5277,-4.5277,-4.5297,-4.5316,-4.5583,-4.6424,-4.7269,-4.8288,-4.9135,-4.9927,-5.0392,-5.0664,-5.0683,-5.0683,-3.9255,-3.9288,-3.9288,-3.9288,-3.9342,-3.9448,-3.9537,-3.9677,-3.9849,-3.9986,-4.0121,-4.0485,-4.0728,-4.0965,-4.138,-4.1719,-4.1977,-4.2251,-4.2584,-4.3018,-4.3547,-4.4038,-4.4458,-4.4965,-4.5436,-4.5436,-4.5544,-4.5834,-4.5417,-4.5707,-4.5671,-4.5526,-4.5725,-4.5725,-4.6106,-4.6595,-4.7265,-4.7415,-4.7451,-4.7257,-4.7048,-4.6724,-4.6369,-4.5807,-4.5352,-4.511,-4.4786,-4.4471,-4.4309,-4.433,-4.4449,-4.4551,-4.4667,-4.4821,-4.4919,-4.5014,-4.5125,-4.517,-4.5192,-4.5256,-4.5256,-4.5275,-4.5297,-4.5277,-4.5277,-4.5277,-4.5277,-4.5277,-4.5277,-4.5277,-4.5277,-4.5277,-4.5277,-4.5277,-4.5277,-4.5277,-4.5277,-4.5277,-4.5277,-4.5277,-4.5277,-4.5277,-4.5277,-4.5277,-4.5277,-4.5277,-4.5277,-4.5277,-4.5277,-4.5277,-4.5277,-4.5277,-4.5277,-4.5277,-4.5277,-4.5277,-4.5277,-4.5277,-4.5277,-4.5277,-4.5277,-4.5277,-4.5277,-4.5316,-4.5373,-4.5946,-4.7207,-4.8226,-4.9133,-4.9884,-5.0389,-5.0507,-5.0683,-5.0683,-5.0683,-3.8808,-3.9309,-3.9288,-3.9288,-3.9342,-3.9325,-3.9448,-3.9537,-3.9677,-3.9849,-3.9969,-4.0205,-4.0436,-4.0762,-4.1041,-4.1408,-4.1762,-4.2061,-4.2351,-4.2713,-4.309,-4.3547,-4.3969,-4.4331,-4.4765,-4.5073,-4.52,-4.5091,-4.5236,-4.5218,-4.52,-4.5327,-4.5055,-4.5128,-4.5309,-4.5743,-4.6269,-4.6685,-4.6794,-4.6654,-4.6368,-4.6027,-4.549,-4.4893,-4.4675,-4.445,-4.4192,-4.4165,-4.4097,-4.4285,-4.4468,-4.4605,-4.4712,-4.484,-4.4943,-4.5125,-4.5233,-4.5275,-4.5256,-4.5277,-4.5277,-4.5277,-4.5277,-4.5277,-4.5277,-4.5277,-4.5277,-4.5277,-4.5277,-4.5277,-4.5277,-4.5277,-4.5277,-4.5277,-4.5277,-4.5277,-4.5277,-4.5277,-4.5277,-4.5277,-4.5277,-4.5277,-4.5277,-4.5277,-4.5277,-4.5277,-4.5277,-4.5277,-4.5277,-4.5277,-4.5277,-4.5277,-4.5277,-4.5277,-4.5277,-4.5277,-4.5277,-4.5277,-4.5277,-4.5277,-4.5277,-4.5277,-4.5277,-4.5507,-4.5851,-4.6959,-4.8391,-4.9223,-4.971,-5.0078,-5.0504,-5.0604,-5.0663,-5.0683,-5.0683,-3.7961,-3.8394,-3.8411,-3.8576,-3.8874,-3.9156,-3.9325,-3.9432,-3.959,-3.9642,-3.9746,-3.9986,-4.0255,-4.0436,-4.0806,-4.118,-4.1542,-4.1849,-4.2145,-4.245,-4.2649,-4.3054,-4.3457,-4.3679,-4.3842,-4.424,-4.4367,-4.4132,-4.4421,-4.4367,-4.4295,-4.424,-4.4349,-4.4367,-4.4403,-4.4639,-4.5073,-4.5508,-4.5761,-4.578,-4.5548,-4.5189,-4.4576,-4.4144,-4.4108,-4.4007,-4.3911,-4.3992,-4.4207,-4.4354,-4.4551,-4.4685,-4.4789,-4.4938,-4.508,-4.5233,-4.5275,-4.5297,-4.5277,-4.5277,-4.5277,-4.5277,-4.5277,-4.5277,-4.5277,-4.5277,-4.5277,-4.5277,-4.5277,-4.5277,-4.5277,-4.5277,-4.5277,-4.5277,-4.5277,-4.5277,-4.5277,-4.5277,-4.5277,-4.5277,-4.5277,-4.5277,-4.5277,-4.5277,-4.5277,-4.5277,-4.5277,-4.5277,-4.5277,-4.5277,-4.5277,-4.5277,-4.5277,-4.5277,-4.5277,-4.5277,-4.5277,-4.5277,-4.5277,-4.5277,-4.5277,-4.5392,-4.5488,-4.5965,-4.6519,-4.7723,-4.8926,-4.9513,-4.9999,-5.0349,-5.0563,-5.0643,-5.0683,-5.0683,-5.0683,-3.6916,-3.7152,-3.7119,-3.7566,-3.8179,-3.8841,-3.9193,-3.9259,-3.9398,-3.9484,-3.959,-3.9867,-4.0037,-4.0238,-4.0549,-4.0901,-4.1272,-4.1542,-4.1892,-4.2228,-4.249,-4.2735,-4.2874,-4.2917,-4.3206,-4.3045,-4.3045,-4.3389,-4.3081,-4.319,-4.3299,-4.29,-4.3063,-4.3226,-4.3389,-4.3751,-4.4095,-4.4258,-4.4603,-4.4765,-4.4403,-4.4062,-4.3794,-4.3415,-4.3466,-4.3652,-4.3915,-4.4116,-4.4325,-4.4496,-4.4613,-4.477,-4.4943,-4.508,-4.5211,-4.5275,-4.5297,-4.5277,-4.5277,-4.5277,-4.5277,-4.5277,-4.5277,-4.5277,-4.5277,-4.5277,-4.5277,-4.5277,-4.5277,-4.5277,-4.5277,-4.5277,-4.5277,-4.5277,-4.5277,-4.5277,-4.5277,-4.5277,-4.5277,-4.5277,-4.5277,-4.5277,-4.5277,-4.5277,-4.5277,-4.5277,-4.5277,-4.5277,-4.5277,-4.5277,-4.5277,-4.5277,-4.5277,-4.5277,-4.5277,-4.5277,-4.5277,-4.5277,-4.5277,-4.5277,-4.5277,-4.5488,-4.5717,-4.6481,-4.7322,-4.8162,-4.9159,-4.9743,-5.0169,-5.0366,-5.0563,-5.0663,-5.0683,-5.0683,-5.0683,-3.6388,-3.6933,-3.7051,-3.7235,-3.7466,-3.8162,-3.846,-3.851,-3.911,-3.9395,-3.9515,-3.9623,-3.9833,-4.0121,-4.0221,-4.0566,-4.1012,-4.1255,-4.1587,-4.1934,-4.2246,-4.245,-4.2649,-4.2783,-4.2842,-4.29,-4.29,-4.29,-4.29,-4.29,-4.29,-4.29,-4.29,-4.29,-4.29,-4.3281,-4.3317,-4.3371,-4.3516,-4.3932,-4.3987,-4.3574,-4.325,-4.3251,-4.3375,-4.3615,-4.3878,-4.4128,-4.4306,-4.4477,-4.4719,-4.4919,-4.5125,-4.517,-4.5233,-4.5297,-4.5277,-4.5277,-4.5277,-4.5277,-4.5277,-4.5277,-4.5277,-4.5277,-4.5277,-4.5277,-4.5277,-4.5277,-4.5277,-4.5277,-4.5277,-4.5277,-4.5277,-4.5277,-4.5277,-4.5277,-4.5277,-4.5277,-4.5277,-4.5277,-4.5277,-4.5277,-4.5277,-4.5277,-4.5277,-4.5277,-4.5277,-4.5277,-4.5277,-4.5277,-4.5277,-4.5277,-4.5277,-4.5277,-4.5277,-4.5277,-4.5277,-4.5277,-4.5277,-4.5277,-4.5316,-4.5736,-4.6214,-4.7283,-4.82,-4.8869,-4.9465,-5.0004,-5.0396,-5.0481,-5.0542,-5.0643,-5.0683,-5.0683,-5.0683,-3.5448,-3.5943,-3.6439,-3.6622,-3.6754,-3.7417,-3.7897,-3.8261,-3.8642,-3.9023,-3.9375,-3.9518,-3.9677,-3.9952,-4.002,-4.0337,-4.0776,-4.0995,-4.1363,-4.1692,-4.1995,-4.2228,-4.245,-4.2667,-4.2783,-4.2842,-4.29,-4.29,-4.29,-4.29,-4.29,-4.29,-4.29,-4.29,-4.29,-4.29,-4.29,-4.2918,-4.29,-4.3172,-4.3607,-4.3303,-4.3123,-4.3251,-4.341,-4.3649,-4.3878,-4.4128,-4.4325,-4.4551,-4.4789,-4.4967,-4.5125,-4.5233,-4.5256,-4.5277,-4.5277,-4.5277,-4.5277,-4.5277,-4.5277,-4.5277,-4.5277,-4.5277,-4.5277,-4.5277,-4.5277,-4.5277,-4.5277,-4.5277,-4.5277,-4.5277,-4.5277,-4.5277,-4.5277,-4.5277,-4.5277,-4.5277,-4.5277,-4.5277,-4.5277,-4.5277,-4.5277,-4.5277,-4.5277,-4.5277,-4.5277,-4.5277,-4.5277,-4.5277,-4.5277,-4.5277,-4.5277,-4.5277,-4.5277,-4.5277,-4.5277,-4.5277,-4.5277,-4.5564,-4.5793,-4.6214,-4.6787,-4.7876,-4.8735,-4.9251,-4.9828,-5.0252,-5.0435,-5.0481,-5.0542,-5.0642,-5.0663,-5.0683,-5.0683,-3.4219,-3.4642,-3.5513,-3.586,-3.5976,-3.6655,-3.7301,-3.7864,-3.8146,-3.856,-3.9126,-3.9382,-3.954,-3.9731,-3.9952,-4.032,-4.0631,-4.0871,-4.1198,-4.1498,-4.1805,-4.2061,-4.2328,-4.2588,-4.2706,-4.2822,-4.2842,-4.29,-4.29,-4.29,-4.29,-4.29,-4.29,-4.29,-4.29,-4.29,-4.29,-4.29,-4.29,-4.29,-4.2974,-4.3049,-4.3105,-4.3268,-4.3444,-4.3682,-4.3929,-4.4116,-4.4344,-4.4551,-4.4789,-4.4986,-4.5103,-4.5211,-4.5275,-4.5297,-4.5277,-4.5277,-4.5277,-4.5277,-4.5277,-4.5277,-4.5277,-4.5277,-4.5277,-4.5277,-4.5277,-4.5277,-4.5277,-4.5277,-4.5277,-4.5277,-4.5277,-4.5277,-4.5277,-4.5277,-4.5277,-4.5277,-4.5277,-4.5277,-4.5277,-4.5277,-4.5277,-4.5277,-4.5277,-4.5277,-4.5277,-4.5277,-4.5277,-4.5277,-4.5277,-4.5277,-4.5277,-4.5277,-4.5277,-4.5277,-4.5277,-4.5277,-4.5354,-4.5812,-4.6271,-4.671,-4.7417,-4.8525,-4.927,-4.971,-4.9958,-5.0268,-5.0393,-5.0459,-5.0521,-5.0582,-5.0663,-5.0683,-5.0683,-3.2994,-3.3867,-3.4736,-3.5114,-3.523,-3.5893,-3.6307,-3.6622,-3.7715,-3.8311,-3.8612,-3.9215,-3.959,-3.9713,-3.9713,-4.0037,-4.0534,-4.0776,-4.0995,-4.13,-4.1736,-4.1995,-4.2205,-4.2468,-4.2645,-4.2763,-4.2822,-4.2842,-4.2862,-4.29,-4.29,-4.29,-4.29,-4.29,-4.29,-4.29,-4.29,-4.29,-4.29,-4.2882,-4.2975,-4.3031,-4.3142,-4.3305,-4.3465,-4.3704,-4.3883,-4.4067,-4.4248,-4.4524,-4.4764,-4.4938,-4.5057,-4.5148,-4.5235,-4.5277,-4.5277,-4.5277,-4.5277,-4.5277,-4.5277,-4.5277,-4.5277,-4.5277,-4.5277,-4.5277,-4.5277,-4.5277,-4.5277,-4.5277,-4.5277,-4.5277,-4.5277,-4.5277,-4.5277,-4.5277,-4.5277,-4.5277,-4.5277,-4.5277,-4.5277,-4.5277,-4.5277,-4.5277,-4.5277,-4.5277,-4.5277,-4.5277,-4.5277,-4.5277,-4.5277,-4.5277,-4.5277,-4.5277,-4.5277,-4.5277,-4.5277,-4.5277,-4.5488,-4.6042,-4.6615,-4.7207,-4.8028,-4.9098,-4.9671,-5.0092,-5.0283,-5.0325,-5.0393,-5.0478,-5.05,-5.0542,-5.0643,-5.0741,-5.0779]}]]